[[{"header":{"parameterUnit":"m.s-1","parameterCategory":1,"la1":31.0,"la2":29.5877,"lo1":-88.7671,"lo2":-86.6584,"dy":0.0162,"dx":0.0185,"nx":115,"ny":88,"refTime":"2023-03-28T12:00:00:Z","depth":0,"parameterNumber":2,"parameterNumberName":"U-component_of_WINDS"},"data":[0.0,0.0,0.0,0.0,0.0,0.0,0.0,0.0,0.0,0.0,0.0,0.0,0.0,0.0,0.0,0.0,0.0,0.0,0.0,0.0,0.0,0.0,0.0,0.0,0.0,0.0,0.0,0.0,0.0,0.0,0.0,0.0,0.0,0.0,0.0,0.0,0.0,0.0,0.0,0.0,0.0,0.0,0.0,0.0,0.0,0.0,0.0,0.0,0.0,0.0,0.0,0.0,0.0,0.0,0.0,0.0,0.0,0.0,0.0,0.0,0.0,0.0,0.0,0.0,0.0,0.0,0.0,0.0,0.0,0.0,0.0,0.0,0.0,0.0,0.0,0.0,0.0,0.0,0.0,0.0,0.0,0.0,0.0,0.0,0.0,0.0,0.0,0.0,0.0,0.0,0.0,0.0,0.0,0.0,0.0,0.0,0.0,0.0,0.0,0.0,0.0,0.0,0.0,0.0,0.0,0.0,0.0,0.0,0.0,0.0,0.0,0.0,0.0,0.0,0.0,0.0,0.0,0.0,0.0,0.0,0.0,0.0,0.0,0.0,0.0,0.0,0.0,0.0,0.0,0.0,0.0,0.0,0.0,0.0,0.0,0.0,0.0,0.0,0.0,0.0,0.0,0.0,0.0,0.0,0.0,0.0,0.0,0.0,0.0,0.0,0.0,0.0,0.0,0.0,0.0,0.0,0.0,0.0,0.0,0.0,0.0,0.0,0.0,0.0,0.0,0.0,0.0,0.0,0.0,0.0,0.0,0.0,0.0,0.0,0.0,0.0,0.0,0.0,0.0,0.0,0.0,0.0,0.0,0.0,0.0,0.0,0.0,0.0,0.0,0.0,0.0,0.0,0.0,0.0,0.0,0.0,0.0,0.0,0.0,0.0,0.0,0.0,0.0,0.0,0.0,0.0,0.0,0.0,0.0,0.0,0.0,0.0,0.0,0.0,0.0,0.0,0.0,0.0,0.0,0.0,0.0,0.0,0.0,0.0,0.0,0.0,0.0,0.0,0.0,0.0,0.0,0.0,0.0,0.0,0.0,0.0,0.0,0.0,0.0,0.0,0.0,0.0,0.0,0.0,0.0,0.0,0.0,0.0,0.0,0.0,0.0,0.0,0.0,0.0,0.0,0.0,0.0,0.0,0.0,0.0,0.0,0.0,0.0,0.0,0.0,0.0,0.0,0.0,0.0,0.0,0.0,0.0,0.0,0.0,0.0,0.0,0.0,0.0,0.0,0.0,0.0,0.0,0.0,0.0,0.0,0.0,0.0,0.0,0.0,0.0,0.0,0.0,0.0,0.0,0.0,0.0,0.0,0.0,0.0,0.0,0.0,0.0,0.0,0.0,0.0,0.0,0.0,0.0,0.0,0.0,0.0,0.0,0.0,0.0,0.0,0.0,0.0,0.0,0.0,0.0,0.0,0.0,0.0,0.0,0.0,0.0,0.0,0.0,0.0,0.0,0.0,0.0,0.0,0.0,0.0,0.0,0.0,0.0,0.0,0.0,0.0,0.0,0.0,0.0,0.0,0.0,0.0,0.0,0.0,0.0,0.0,0.0,0.0,0.0,0.0,0.0,0.0,0.0,0.0,0.0,0.0,0.0,0.0,0.0,0.0,0.0,0.0,0.0,0.0,0.0,0.0,0.0,0.0,0.0,0.0,0.0,0.0,0.0,0.0,0.0,0.0,0.0,0.0,0.0,0.0,0.0,0.0,0.0,0.0,0.0,0.0,0.0,0.0,0.0,0.0,0.0,0.0,0.0,0.0,0.0,0.0,0.0,0.0,0.0,0.0,0.0,0.0,0.0,0.0,0.0,0.0,0.0,0.0,0.0,0.0,0.0,0.0,0.0,0.0,0.0,0.0,0.0,0.0,0.0,0.0,0.0,0.0,0.0,0.0,0.0,0.0,0.0,0.0,0.0,0.0,0.0,0.0,0.0,0.0,0.0,0.0,0.0,0.0,0.0,0.0,0.0,0.0,0.0,0.0,0.0,0.0,0.0,0.0,0.0,0.0,0.0,0.0,0.0,0.0,0.0,0.0,0.0,0.0,0.0,0.0,0.0,0.0,0.0,0.0,0.0,0.0,0.0,0.0,0.0,0.0,0.0,0.0,0.0,0.0,0.0,0.0,0.0,0.0,0.0,0.0,0.0,0.0,0.0,0.0,0.0,0.0,0.0,0.0,0.0,0.0,0.0,0.0,0.0,0.0,0.0,0.0,0.0,0.0,0.0,0.0,0.0,0.0,0.0,0.0,0.0,0.0,0.0,0.0,0.0,0.0,0.0,0.0,0.0,0.0,0.0,0.0,0.0,0.0,0.0,0.0,0.0,0.0,0.0,0.0,0.0,0.0,0.0,0.0,0.0,0.0,0.0,0.0,0.0,0.0,0.0,0.0,0.0,0.0,0.0,0.0,0.0,0.0,0.0,0.0,0.0,0.0,0.0,0.0,0.0,0.0,0.0,0.0,0.0,0.0,0.0,0.0,0.0,0.0,0.0,0.0,0.0,0.0,0.0,0.0,0.0,0.0,0.0,0.0,0.0,0.0,0.0,0.0,0.0,0.0,0.0,0.0,0.0,0.0,0.0,0.0,0.0,0.0,0.0,0.0,0.0,0.0,0.0,0.0,0.0,0.0,0.0,0.0,0.0,0.0,0.0,0.0,0.0,0.0,0.0,0.0,0.0,0.0,0.0,0.0,0.0,0.0,0.0,0.0,0.0,0.0,0.0,0.0,0.0,0.0,0.0,0.0,0.0,0.0,0.0,0.0,0.0,0.0,0.0,0.0,0.0,0.0,0.0,0.0,0.0,0.0,0.0,0.0,0.0,0.0,0.0,0.0,0.0,0.0,0.0,0.0,0.0,0.0,0.0,0.0,0.0,0.0,0.0,0.0,0.0,0.0,0.0,0.0,0.0,0.0,0.0,0.0,0.0,0.0,0.0,0.0,0.0,0.0,0.0,0.0,0.0,0.0,0.0,0.0,0.0,0.0,0.0,0.0,0.0,0.0,0.0,0.0,0.0,0.0,0.0,0.0,0.0,0.0,0.0,0.0,0.0,0.0,0.0,0.0,0.0,0.0,0.0,0.0,0.0,0.0,0.0,0.0,0.0,0.0,0.0,0.0,0.0,0.0,0.0,0.0,0.0,0.0,0.0,0.0,0.0,0.0,0.0,0.0,0.0,0.0,0.0,0.0,0.0,0.0,0.0,0.0,0.0,0.0,0.0,0.0,0.0,0.0,0.0,0.0,0.0,0.0,0.0,0.0,0.0,0.0,0.0,0.0,0.0,0.0,0.0,0.0,0.0,0.0,0.0,0.0,0.0,0.0,0.0,0.0,0.0,0.0,0.0,0.0,0.0,0.0,0.0,0.0,0.0,0.0,0.0,0.0,0.0,0.0,0.0,0.0,0.0,0.0,0.0,0.0,0.0,0.0,0.0,0.0,0.0,0.0,0.0,0.0,0.0,0.0,0.0,0.0,0.0,0.0,0.0,0.0,0.0,0.0,0.0,0.0,0.0,0.0,0.0,0.0,0.0,0.0,0.0,0.0,0.0,0.0,0.0,0.0,0.0,0.0,0.0,0.0,0.0,0.0,0.0,0.0,0.0,0.0,0.0,0.0,0.0,0.0,0.0,0.0,0.0,0.0,0.0,0.0,0.0,0.0,0.0,0.0,0.0,0.0,0.0,0.0,0.0,0.0,0.0,0.0,0.0,0.0,0.0,0.0,0.0,0.0,0.0,0.0,0.0,0.0,0.0,0.0,0.0,0.0,0.0,0.0,0.0,0.0,0.0,0.0,0.0,0.0,0.0,0.0,0.0,0.0,0.0,0.0,0.0,0.0,0.0,0.0,0.0,0.0,0.0,0.0,0.0,0.0,0.0,0.0,0.0,0.0,0.0,0.0,0.0,0.0,0.0,0.0,0.0,0.0,0.0,0.0,0.0,0.0,0.0,0.0,0.0,0.0,0.0,0.0,0.0,0.0,0.0,0.0,0.0,0.0,0.0,0.0,0.0,0.0,0.0,0.0,0.0,0.0,0.0,0.0,0.0,0.0,0.0,0.0,0.0,0.0,0.0,0.0,0.0,0.0,0.0,0.0,0.0,0.0,0.0,0.0,0.0,0.0,0.0,0.0,0.0,0.0,0.0,0.0,0.0,0.0,0.0,0.0,0.0,0.0,0.0,0.0,0.0,0.0,0.0,0.0,0.0,0.0,0.0,0.0,0.0,0.0,0.0,0.0,0.0,0.0,0.0,0.0,0.0,0.0,0.0,0.0,0.0,-2.0782,0.0,0.0,0.0,0.0,0.0,0.0,0.0,0.0,0.0,0.0,0.0,0.0,0.0,0.0,0.0,0.0,0.0,0.0,0.0,0.0,0.0,0.0,0.0,0.0,0.0,0.0,0.0,0.0,0.0,0.0,0.0,0.0,0.0,0.0,0.0,0.0,0.0,0.0,0.0,0.0,0.0,0.0,0.0,0.0,0.0,0.0,0.0,0.0,0.0,0.0,0.0,0.0,0.0,0.0,0.0,0.0,0.0,0.0,0.0,0.0,0.0,0.0,0.0,0.0,0.0,0.0,0.0,0.0,0.0,0.0,0.0,0.0,0.0,0.0,0.0,0.0,0.0,0.0,0.0,0.0,0.0,0.0,0.0,0.0,0.0,0.0,0.0,0.0,0.0,0.0,0.0,0.0,0.0,0.0,0.0,0.0,0.0,0.0,0.0,0.0,0.0,0.0,0.0,0.0,0.0,0.0,0.0,0.0,0.0,0.0,-2.0656,-2.036,-2.0258,-2.0447,-2.0968,0.0,0.0,0.0,0.0,0.0,0.0,0.0,0.0,0.0,0.0,0.0,0.0,0.0,0.0,0.0,0.0,0.0,0.0,0.0,0.0,0.0,0.0,0.0,0.0,0.0,0.0,0.0,0.0,0.0,0.0,0.0,0.0,0.0,0.0,0.0,0.0,0.0,0.0,0.0,0.0,0.0,0.0,0.0,0.0,0.0,0.0,0.0,0.0,0.0,0.0,0.0,0.0,0.0,0.0,0.0,0.0,0.0,0.0,0.0,0.0,0.0,0.0,0.0,0.0,0.0,0.0,0.0,0.0,0.0,0.0,0.0,0.0,0.0,0.0,0.0,0.0,0.0,0.0,0.0,0.0,0.0,0.0,0.0,0.0,0.0,0.0,0.0,0.0,0.0,0.0,0.0,0.0,0.0,0.0,0.0,0.0,0.0,0.0,0.0,0.0,0.0,0.0,0.0,0.0,0.0,0.0,0.0,0.0,0.0,0.0,0.0,0.0,-2.0462,-2.0586,-2.1066,0.0,0.0,0.0,0.0,0.0,0.0,0.0,0.0,0.0,0.0,0.0,0.0,0.0,0.0,0.0,0.0,0.0,0.0,0.0,0.0,0.0,0.0,0.0,0.0,0.0,0.0,0.0,0.0,0.0,0.0,0.0,0.0,0.0,0.0,0.0,0.0,0.0,0.0,0.0,0.0,0.0,0.0,0.0,0.0,0.0,0.0,0.0,0.0,0.0,0.0,0.0,0.0,0.0,0.0,0.0,0.0,0.0,0.0,0.0,0.0,0.0,0.0,0.0,0.0,0.0,0.0,0.0,0.0,0.0,0.0,0.0,0.0,0.0,0.0,0.0,0.0,0.0,0.0,0.0,0.0,0.0,0.0,0.0,0.0,0.0,0.0,0.0,0.0,0.0,0.0,0.0,0.0,0.0,0.0,0.0,0.0,0.0,0.0,0.0,0.0,0.0,0.0,0.0,0.0,0.0,0.0,0.0,0.0,0.0,0.0,-2.1459,-2.1407,-2.0923,0.0,-2.1399,0.0,0.0,0.0,0.0,0.0,0.0,0.0,0.0,0.0,0.0,0.0,0.0,0.0,0.0,0.0,0.0,0.0,0.0,0.0,0.0,0.0,0.0,0.0,0.0,0.0,0.0,0.0,0.0,0.0,0.0,0.0,0.0,0.0,0.0,0.0,0.0,0.0,0.0,0.0,0.0,0.0,0.0,0.0,0.0,0.0,0.0,0.0,0.0,0.0,0.0,0.0,0.0,0.0,0.0,0.0,0.0,0.0,0.0,0.0,0.0,0.0,0.0,0.0,0.0,0.0,0.0,0.0,0.0,0.0,0.0,0.0,0.0,0.0,0.0,0.0,0.0,0.0,0.0,0.0,0.0,0.0,0.0,0.0,0.0,0.0,0.0,0.0,0.0,0.0,0.0,0.0,0.0,0.0,0.0,0.0,0.0,0.0,0.0,0.0,0.0,0.0,0.0,0.0,0.0,0.0,0.0,0.0,0.0,0.0,0.0,-2.1878,-2.1525,-2.1252,-2.1204,0.0,0.0,0.0,0.0,0.0,0.0,0.0,0.0,0.0,0.0,0.0,0.0,0.0,0.0,0.0,0.0,0.0,0.0,0.0,0.0,0.0,0.0,0.0,0.0,0.0,0.0,0.0,0.0,0.0,0.0,0.0,0.0,0.0,0.0,0.0,0.0,0.0,0.0,0.0,0.0,0.0,0.0,0.0,0.0,0.0,0.0,0.0,0.0,0.0,0.0,0.0,0.0,0.0,0.0,0.0,0.0,0.0,0.0,0.0,0.0,0.0,0.0,0.0,0.0,0.0,0.0,0.0,0.0,0.0,0.0,0.0,0.0,0.0,0.0,0.0,0.0,0.0,0.0,0.0,0.0,0.0,0.0,0.0,0.0,0.0,0.0,0.0,0.0,0.0,0.0,0.0,0.0,0.0,0.0,0.0,0.0,0.0,0.0,0.0,0.0,0.0,0.0,0.0,0.0,0.0,0.0,0.0,0.0,0.0,0.0,-2.2767,-2.2035,-2.1341,-2.1358,-2.1434,-2.152,0.0,0.0,0.0,0.0,0.0,0.0,0.0,0.0,0.0,0.0,0.0,0.0,0.0,0.0,0.0,0.0,0.0,0.0,0.0,0.0,0.0,0.0,0.0,0.0,0.0,0.0,0.0,0.0,0.0,0.0,0.0,0.0,0.0,0.0,0.0,0.0,0.0,0.0,0.0,0.0,0.0,0.0,0.0,0.0,0.0,0.0,0.0,0.0,0.0,0.0,0.0,0.0,0.0,0.0,0.0,0.0,0.0,0.0,0.0,0.0,0.0,0.0,0.0,0.0,0.0,0.0,0.0,0.0,0.0,0.0,0.0,0.0,0.0,0.0,0.0,0.0,0.0,0.0,0.0,0.0,0.0,0.0,0.0,0.0,0.0,0.0,0.0,0.0,0.0,0.0,0.0,0.0,0.0,0.0,0.0,0.0,0.0,0.0,0.0,0.0,0.0,0.0,0.0,0.0,0.0,0.0,0.0,0.0,-2.4034,-2.2977,-2.1878,-2.0842,-2.1182,-2.1506,0.0,0.0,0.0,0.0,0.0,0.0,0.0,0.0,0.0,0.0,0.0,0.0,0.0,0.0,0.0,0.0,0.0,0.0,0.0,0.0,0.0,0.0,0.0,0.0,0.0,0.0,0.0,0.0,0.0,0.0,0.0,0.0,0.0,0.0,0.0,0.0,0.0,0.0,0.0,0.0,0.0,0.0,0.0,0.0,0.0,0.0,0.0,0.0,0.0,0.0,0.0,0.0,0.0,0.0,0.0,0.0,0.0,0.0,0.0,0.0,0.0,0.0,0.0,0.0,0.0,0.0,0.0,0.0,0.0,0.0,0.0,0.0,0.0,0.0,0.0,0.0,0.0,0.0,0.0,0.0,0.0,0.0,0.0,0.0,0.0,0.0,0.0,0.0,0.0,0.0,0.0,0.0,0.0,0.0,0.0,0.0,0.0,0.0,0.0,0.0,0.0,0.0,0.0,0.0,0.0,0.0,0.0,0.0,0.0,-2.461,-2.3527,-2.2497,-2.1583,-2.1444,-2.1482,0.0,0.0,0.0,0.0,0.0,0.0,0.0,0.0,0.0,0.0,0.0,0.0,0.0,0.0,0.0,0.0,0.0,0.0,0.0,0.0,0.0,0.0,0.0,0.0,0.0,0.0,0.0,0.0,0.0,0.0,0.0,0.0,0.0,0.0,0.0,0.0,0.0,0.0,0.0,0.0,0.0,0.0,0.0,0.0,0.0,0.0,0.0,0.0,0.0,0.0,0.0,0.0,0.0,0.0,0.0,0.0,0.0,0.0,0.0,0.0,0.0,0.0,0.0,0.0,0.0,0.0,0.0,0.0,0.0,0.0,0.0,0.0,0.0,0.0,0.0,0.0,0.0,0.0,0.0,0.0,0.0,0.0,0.0,0.0,0.0,0.0,0.0,0.0,0.0,0.0,0.0,0.0,0.0,0.0,0.0,0.0,0.0,0.0,0.0,0.0,0.0,0.0,0.0,0.0,0.0,0.0,0.0,0.0,0.0,-2.4693,0.0,-2.3135,-2.2452,-2.2119,-2.2025,0.0,0.0,0.0,0.0,0.0,0.0,0.0,0.0,0.0,0.0,0.0,0.0,0.0,0.0,0.0,0.0,0.0,0.0,0.0,0.0,0.0,0.0,0.0,0.0,0.0,0.0,0.0,0.0,0.0,0.0,0.0,0.0,0.0,0.0,0.0,0.0,0.0,0.0,0.0,0.0,0.0,0.0,0.0,0.0,0.0,0.0,0.0,0.0,0.0,0.0,0.0,0.0,0.0,0.0,0.0,0.0,0.0,0.0,0.0,0.0,0.0,0.0,0.0,0.0,0.0,0.0,0.0,0.0,0.0,0.0,0.0,0.0,0.0,0.0,0.0,0.0,0.0,0.0,0.0,0.0,0.0,0.0,0.0,0.0,0.0,0.0,0.0,0.0,0.0,0.0,0.0,0.0,0.0,0.0,0.0,0.0,0.0,0.0,0.0,0.0,0.0,0.0,0.0,0.0,0.0,0.0,0.0,0.0,-2.4748,-2.4191,-2.4123,-2.3864,-2.3333,-2.3161,-2.3146,0.0,0.0,0.0,0.0,0.0,0.0,0.0,0.0,0.0,0.0,0.0,0.0,0.0,0.0,0.0,0.0,0.0,0.0,0.0,0.0,0.0,0.0,0.0,0.0,0.0,0.0,0.0,0.0,0.0,0.0,0.0,0.0,0.0,0.0,0.0,0.0,0.0,0.0,0.0,0.0,0.0,0.0,0.0,0.0,0.0,0.0,0.0,0.0,0.0,0.0,0.0,0.0,0.0,0.0,0.0,0.0,0.0,0.0,0.0,0.0,0.0,0.0,0.0,0.0,0.0,0.0,0.0,0.0,0.0,0.0,0.0,0.0,0.0,0.0,0.0,0.0,0.0,0.0,0.0,0.0,0.0,0.0,0.0,0.0,0.0,0.0,0.0,0.0,0.0,0.0,0.0,0.0,0.0,0.0,0.0,0.0,0.0,0.0,0.0,0.0,0.0,0.0,0.0,0.0,0.0,0.0,0.0,0.0,0.0,-2.534,-2.4937,-2.4565,-2.4212,-2.3928,-2.3833,0.0,0.0,0.0,0.0,0.0,0.0,0.0,0.0,0.0,0.0,0.0,0.0,0.0,0.0,0.0,0.0,0.0,0.0,0.0,0.0,0.0,0.0,0.0,0.0,0.0,0.0,0.0,0.0,0.0,0.0,0.0,0.0,0.0,0.0,0.0,0.0,0.0,0.0,0.0,0.0,0.0,0.0,0.0,0.0,0.0,0.0,0.0,0.0,0.0,0.0,0.0,0.0,0.0,0.0,0.0,0.0,0.0,0.0,0.0,0.0,0.0,0.0,0.0,0.0,0.0,0.0,0.0,0.0,0.0,0.0,0.0,0.0,0.0,0.0,0.0,0.0,0.0,0.0,0.0,0.0,0.0,0.0,0.0,0.0,0.0,0.0,0.0,0.0,0.0,0.0,0.0,0.0,0.0,0.0,0.0,0.0,0.0,0.0,0.0,0.0,0.0,0.0,0.0,0.0,0.0,0.0,0.0,0.0,0.0,-2.6217,-2.5865,-2.5573,-2.541,-2.5012,-2.4821,-2.488,0.0,0.0,0.0,0.0,0.0,0.0,0.0,0.0,0.0,0.0,0.0,0.0,0.0,0.0,0.0,0.0,0.0,0.0,0.0,0.0,0.0,0.0,0.0,0.0,0.0,0.0,0.0,0.0,0.0,0.0,0.0,0.0,0.0,0.0,0.0,0.0,0.0,0.0,0.0,0.0,0.0,0.0,0.0,0.0,0.0,0.0,0.0,0.0,0.0,0.0,0.0,0.0,0.0,0.0,0.0,0.0,0.0,0.0,0.0,0.0,0.0,0.0,0.0,0.0,0.0,0.0,0.0,0.0,0.0,0.0,0.0,0.0,0.0,0.0,0.0,0.0,0.0,0.0,0.0,0.0,0.0,0.0,0.0,0.0,0.0,0.0,0.0,0.0,0.0,0.0,0.0,0.0,0.0,0.0,0.0,0.0,0.0,0.0,0.0,0.0,0.0,0.0,0.0,0.0,0.0,0.0,0.0,0.0,-2.6863,-2.6905,-2.6891,-2.6849,-2.6259,-2.5989,0.0,0.0,0.0,0.0,0.0,0.0,0.0,0.0,0.0,0.0,0.0,0.0,0.0,0.0,0.0,0.0,0.0,0.0,0.0,0.0,0.0,0.0,0.0,0.0,0.0,0.0,0.0,0.0,0.0,0.0,0.0,0.0,0.0,0.0,0.0,0.0,0.0,0.0,0.0,0.0,0.0,0.0,0.0,0.0,0.0,0.0,0.0,0.0,0.0,0.0,0.0,0.0,0.0,0.0,0.0,0.0,0.0,0.0,0.0,0.0,0.0,0.0,0.0,0.0,0.0,0.0,0.0,0.0,0.0,0.0,0.0,0.0,0.0,0.0,0.0,0.0,0.0,0.0,0.0,0.0,0.0,0.0,0.0,0.0,0.0,0.0,0.0,0.0,0.0,0.0,0.0,0.0,0.0,0.0,0.0,0.0,0.0,0.0,0.0,0.0,0.0,0.0,0.0,0.0,0.0,0.0,0.0,0.0,0.0,-2.7538,-2.7959,-2.7987,-2.7537,-2.6905,-2.6567,0.0,0.0,0.0,0.0,0.0,0.0,0.0,0.0,0.0,0.0,0.0,0.0,0.0,0.0,0.0,0.0,0.0,0.0,0.0,0.0,0.0,0.0,0.0,0.0,0.0,0.0,0.0,0.0,0.0,0.0,0.0,0.0,0.0,0.0,0.0,0.0,0.0,0.0,0.0,0.0,0.0,0.0,0.0,0.0,0.0,0.0,0.0,0.0,0.0,0.0,0.0,0.0,0.0,0.0,0.0,0.0,0.0,0.0,0.0,0.0,0.0,0.0,0.0,0.0,0.0,0.0,0.0,0.0,0.0,0.0,0.0,0.0,0.0,0.0,0.0,0.0,0.0,0.0,0.0,0.0,0.0,0.0,0.0,0.0,0.0,0.0,0.0,0.0,0.0,0.0,0.0,0.0,0.0,0.0,0.0,0.0,0.0,0.0,0.0,0.0,0.0,0.0,0.0,0.0,0.0,0.0,0.0,0.0,-2.7393,-2.7755,-2.8876,-2.9293,-2.8942,-2.7804,-2.7159,0.0,0.0,0.0,0.0,0.0,0.0,0.0,0.0,0.0,0.0,0.0,0.0,0.0,0.0,0.0,0.0,0.0,0.0,0.0,0.0,0.0,0.0,0.0,0.0,0.0,0.0,0.0,0.0,0.0,0.0,0.0,0.0,0.0,0.0,0.0,0.0,0.0,0.0,0.0,0.0,0.0,0.0,0.0,0.0,0.0,0.0,0.0,0.0,0.0,0.0,0.0,0.0,0.0,0.0,0.0,0.0,0.0,0.0,0.0,0.0,0.0,0.0,0.0,0.0,0.0,0.0,0.0,0.0,0.0,0.0,0.0,0.0,0.0,0.0,0.0,0.0,0.0,0.0,0.0,0.0,0.0,0.0,0.0,0.0,0.0,0.0,0.0,0.0,0.0,0.0,0.0,0.0,0.0,0.0,0.0,0.0,0.0,0.0,0.0,0.0,0.0,0.0,0.0,0.0,0.0,0.0,0.0,0.0,-2.773,-2.7785,-2.9567,-3.0484,-3.0441,-2.8858,-2.7795,0.0,0.0,0.0,0.0,0.0,0.0,0.0,0.0,0.0,0.0,0.0,0.0,0.0,0.0,0.0,0.0,0.0,0.0,0.0,0.0,0.0,0.0,0.0,0.0,0.0,0.0,0.0,0.0,0.0,0.0,0.0,0.0,0.0,0.0,0.0,0.0,0.0,0.0,0.0,0.0,0.0,0.0,0.0,0.0,0.0,0.0,0.0,0.0,0.0,0.0,0.0,0.0,0.0,0.0,0.0,0.0,0.0,0.0,0.0,0.0,0.0,0.0,0.0,0.0,0.0,0.0,0.0,0.0,0.0,0.0,0.0,0.0,0.0,0.0,0.0,0.0,0.0,0.0,0.0,0.0,0.0,0.0,0.0,0.0,0.0,0.0,0.0,0.0,0.0,0.0,0.0,0.0,0.0,0.0,0.0,0.0,0.0,0.0,0.0,0.0,0.0,0.0,0.0,0.0,0.0,0.0,0.0,0.0,-2.7441,-2.8307,-2.9743,-3.0484,-3.0484,-2.9673,-2.8733,0.0,0.0,0.0,0.0,0.0,0.0,0.0,0.0,0.0,0.0,0.0,0.0,0.0,0.0,0.0,0.0,0.0,0.0,0.0,0.0,0.0,0.0,0.0,0.0,0.0,0.0,0.0,0.0,0.0,0.0,0.0,0.0,0.0,0.0,0.0,0.0,0.0,0.0,0.0,0.0,0.0,0.0,0.0,0.0,0.0,0.0,0.0,0.0,-1.8736,0.0,0.0,0.0,0.0,0.0,0.0,0.0,0.0,0.0,0.0,0.0,0.0,0.0,0.0,0.0,0.0,0.0,0.0,0.0,0.0,0.0,0.0,0.0,0.0,0.0,0.0,0.0,0.0,0.0,0.0,0.0,0.0,0.0,0.0,0.0,0.0,0.0,0.0,0.0,0.0,0.0,0.0,0.0,0.0,0.0,0.0,0.0,0.0,0.0,0.0,0.0,0.0,0.0,0.0,0.0,0.0,0.0,0.0,0.0,-2.7041,-2.8478,-2.9769,-3.0623,-3.0933,-3.0336,-2.9275,0.0,0.0,0.0,0.0,0.0,0.0,0.0,0.0,0.0,0.0,0.0,0.0,0.0,0.0,0.0,0.0,0.0,0.0,0.0,0.0,0.0,0.0,0.0,0.0,0.0,0.0,0.0,0.0,0.0,0.0,0.0,0.0,0.0,0.0,0.0,0.0,0.0,0.0,0.0,0.0,0.0,0.0,0.0,0.0,0.0,0.0,0.0,0.0,0.0,0.0,0.0,0.0,0.0,0.0,0.0,0.0,0.0,0.0,0.0,0.0,0.0,0.0,0.0,0.0,0.0,0.0,0.0,0.0,0.0,0.0,0.0,0.0,0.0,0.0,0.0,0.0,0.0,0.0,0.0,0.0,0.0,0.0,0.0,0.0,0.0,0.0,0.0,0.0,0.0,0.0,0.0,0.0,0.0,0.0,0.0,0.0,0.0,0.0,0.0,0.0,0.0,0.0,0.0,0.0,0.0,0.0,0.0,-2.5115,-2.6629,-2.8386,-2.9675,-3.059,-3.1124,-3.048,-2.9299,-2.7684,0.0,0.0,0.0,0.0,0.0,0.0,0.0,0.0,0.0,0.0,0.0,0.0,0.0,0.0,0.0,0.0,0.0,0.0,0.0,0.0,0.0,0.0,0.0,0.0,0.0,0.0,0.0,0.0,0.0,0.0,0.0,0.0,0.0,0.0,0.0,0.0,0.0,0.0,-1.9792,-1.9123,0.0,0.0,0.0,0.0,0.0,0.0,0.0,0.0,-1.9861,0.0,0.0,0.0,0.0,0.0,0.0,0.0,0.0,0.0,0.0,0.0,0.0,0.0,0.0,0.0,0.0,0.0,0.0,0.0,0.0,0.0,0.0,0.0,0.0,0.0,0.0,0.0,0.0,0.0,0.0,0.0,0.0,0.0,0.0,0.0,0.0,0.0,0.0,0.0,0.0,0.0,0.0,0.0,0.0,0.0,0.0,0.0,0.0,0.0,0.0,0.0,0.0,0.0,0.0,0.0,0.0,-2.3814,-2.502,-2.6455,-2.8124,-2.9398,-2.993,-2.9596,-2.9024,-2.8159,-2.6965,0.0,0.0,0.0,0.0,0.0,0.0,0.0,0.0,0.0,0.0,0.0,0.0,0.0,0.0,0.0,0.0,0.0,0.0,0.0,0.0,0.0,0.0,0.0,0.0,0.0,0.0,0.0,0.0,0.0,0.0,0.0,0.0,0.0,0.0,0.0,0.0,0.0,0.0,0.0,-1.9403,-1.9099,0.0,0.0,0.0,0.0,0.0,0.0,0.0,0.0,-2.0638,0.0,0.0,0.0,0.0,0.0,0.0,0.0,0.0,0.0,0.0,0.0,0.0,0.0,0.0,0.0,0.0,0.0,0.0,0.0,0.0,0.0,0.0,0.0,0.0,0.0,0.0,0.0,0.0,0.0,0.0,0.0,0.0,0.0,0.0,0.0,0.0,0.0,0.0,0.0,0.0,0.0,0.0,0.0,0.0,0.0,0.0,0.0,0.0,0.0,0.0,0.0,0.0,0.0,0.0,0.0,-2.3803,-2.4871,-2.6295,-2.8045,-2.8956,-2.9372,-2.9196,-2.832,-2.7456,0.0,0.0,0.0,0.0,0.0,0.0,0.0,0.0,0.0,0.0,0.0,0.0,0.0,0.0,0.0,0.0,0.0,0.0,0.0,0.0,0.0,0.0,0.0,0.0,0.0,0.0,0.0,0.0,0.0,0.0,0.0,0.0,0.0,0.0,0.0,0.0,0.0,0.0,0.0,0.0,-1.9006,-1.8984,-1.9362,0.0,0.0,0.0,0.0,0.0,0.0,-2.1092,-2.0938,0.0,0.0,0.0,0.0,0.0,0.0,0.0,0.0,0.0,0.0,0.0,0.0,0.0,0.0,0.0,0.0,0.0,0.0,0.0,0.0,0.0,0.0,0.0,0.0,0.0,0.0,0.0,0.0,0.0,0.0,0.0,0.0,0.0,0.0,0.0,0.0,0.0,0.0,0.0,0.0,0.0,0.0,0.0,0.0,0.0,0.0,0.0,0.0,0.0,0.0,0.0,0.0,0.0,0.0,0.0,-2.395,-2.4951,-2.6274,-2.794,-2.855,-2.8799,-2.871,-2.7549,-2.6701,0.0,0.0,0.0,0.0,0.0,0.0,0.0,0.0,0.0,0.0,0.0,0.0,0.0,0.0,0.0,0.0,0.0,0.0,0.0,0.0,0.0,0.0,0.0,0.0,0.0,0.0,0.0,0.0,0.0,0.0,0.0,0.0,0.0,0.0,0.0,0.0,0.0,0.0,0.0,0.0,0.0,-1.9018,-1.9062,-1.9412,0.0,0.0,0.0,0.0,-2.0982,-2.12,0.0,0.0,0.0,0.0,0.0,0.0,0.0,0.0,0.0,0.0,0.0,0.0,0.0,0.0,0.0,0.0,0.0,0.0,0.0,0.0,0.0,0.0,0.0,0.0,0.0,0.0,0.0,0.0,0.0,0.0,0.0,0.0,0.0,0.0,0.0,0.0,0.0,0.0,0.0,0.0,0.0,0.0,0.0,0.0,0.0,0.0,0.0,0.0,0.0,0.0,0.0,0.0,0.0,0.0,0.0,0.0,-2.4422,-2.548,-2.6563,-2.7688,-2.8294,-2.814,-2.721,-2.6118,-2.535,0.0,0.0,0.0,0.0,0.0,0.0,0.0,0.0,0.0,0.0,0.0,0.0,0.0,0.0,0.0,0.0,0.0,0.0,0.0,0.0,0.0,0.0,0.0,0.0,0.0,0.0,0.0,0.0,0.0,0.0,0.0,0.0,0.0,0.0,0.0,0.0,0.0,0.0,0.0,0.0,0.0,-1.9727,-2.0829,-2.1141,-2.0997,0.0,0.0,-2.103,-2.0437,-2.0885,0.0,0.0,0.0,0.0,0.0,0.0,0.0,0.0,0.0,0.0,0.0,0.0,0.0,0.0,0.0,0.0,0.0,0.0,0.0,0.0,0.0,0.0,0.0,0.0,0.0,0.0,0.0,0.0,0.0,0.0,0.0,0.0,0.0,0.0,0.0,0.0,0.0,0.0,0.0,0.0,0.0,0.0,0.0,0.0,0.0,0.0,0.0,0.0,0.0,0.0,0.0,0.0,0.0,0.0,0.0,-2.3339,-2.4508,-2.5418,-2.647,-2.7666,-2.8246,-2.7966,-2.6922,-2.6129,-2.5434,0.0,0.0,0.0,0.0,0.0,0.0,0.0,0.0,0.0,0.0,0.0,0.0,0.0,0.0,0.0,0.0,0.0,0.0,0.0,0.0,0.0,0.0,0.0,0.0,0.0,0.0,0.0,0.0,0.0,0.0,0.0,0.0,0.0,0.0,0.0,0.0,0.0,0.0,0.0,0.0,0.0,0.0,-2.006,-2.0691,0.0,0.0,0.0,-2.1071,-2.0666,0.0,0.0,0.0,0.0,0.0,0.0,0.0,0.0,0.0,0.0,0.0,0.0,0.0,0.0,0.0,0.0,0.0,0.0,0.0,0.0,0.0,0.0,0.0,0.0,0.0,0.0,0.0,0.0,0.0,0.0,0.0,0.0,0.0,0.0,0.0,0.0,0.0,0.0,0.0,0.0,0.0,0.0,0.0,0.0,0.0,0.0,0.0,0.0,0.0,0.0,0.0,0.0,0.0,0.0,0.0,0.0,0.0,-2.4376,-2.5033,-2.598,-2.7195,-2.7845,-2.77,-2.6809,-2.6146,0.0,0.0,0.0,0.0,0.0,0.0,0.0,0.0,0.0,0.0,0.0,0.0,0.0,0.0,0.0,0.0,0.0,0.0,0.0,0.0,0.0,0.0,0.0,0.0,0.0,0.0,0.0,-1.9583,0.0,0.0,0.0,0.0,0.0,0.0,0.0,0.0,0.0,0.0,0.0,0.0,0.0,0.0,-1.9226,-1.968,-2.0326,-2.0602,0.0,0.0,-2.0969,-2.0704,-2.066,-2.0398,0.0,0.0,0.0,0.0,0.0,0.0,0.0,0.0,0.0,0.0,0.0,0.0,0.0,0.0,0.0,0.0,0.0,0.0,0.0,0.0,0.0,0.0,0.0,0.0,0.0,0.0,0.0,0.0,0.0,0.0,0.0,0.0,0.0,0.0,0.0,0.0,0.0,0.0,0.0,0.0,0.0,0.0,0.0,0.0,0.0,0.0,0.0,0.0,0.0,0.0,0.0,0.0,0.0,0.0,0.0,-2.4002,-2.432,-2.4978,-2.5898,-2.6812,-2.7002,-2.6472,-2.547,-2.4833,0.0,0.0,0.0,0.0,0.0,0.0,0.0,0.0,0.0,0.0,0.0,0.0,0.0,0.0,0.0,0.0,0.0,0.0,0.0,0.0,0.0,0.0,0.0,0.0,0.0,0.0,0.0,0.0,0.0,0.0,0.0,0.0,0.0,0.0,0.0,0.0,0.0,0.0,0.0,0.0,0.0,-1.9644,-2.0733,-2.0962,-2.0714,0.0,0.0,-2.0784,-2.0088,-2.0542,-2.0782,-2.015,0.0,0.0,0.0,0.0,0.0,0.0,0.0,0.0,0.0,0.0,0.0,0.0,0.0,0.0,0.0,0.0,0.0,0.0,0.0,0.0,0.0,0.0,0.0,0.0,0.0,0.0,0.0,0.0,0.0,0.0,0.0,0.0,0.0,0.0,0.0,0.0,0.0,0.0,0.0,0.0,0.0,0.0,0.0,0.0,0.0,0.0,0.0,0.0,0.0,0.0,0.0,0.0,0.0,-2.1629,-2.3353,-2.3569,-2.4354,-2.5734,-2.6163,-2.6054,-2.5576,-2.4948,-2.4227,0.0,0.0,0.0,0.0,0.0,0.0,0.0,0.0,0.0,0.0,0.0,0.0,0.0,0.0,0.0,0.0,0.0,0.0,0.0,0.0,0.0,0.0,0.0,0.0,0.0,0.0,0.0,0.0,-1.8841,-1.8936,-1.8637,0.0,0.0,0.0,0.0,0.0,0.0,0.0,0.0,0.0,0.0,-1.9642,-2.0633,-2.0723,0.0,0.0,-2.0581,-2.0657,-2.0389,-2.0088,-1.9876,-1.9634,-1.8778,0.0,0.0,0.0,0.0,0.0,0.0,0.0,0.0,0.0,0.0,0.0,0.0,0.0,0.0,0.0,0.0,0.0,0.0,0.0,0.0,0.0,0.0,0.0,0.0,0.0,0.0,0.0,0.0,0.0,0.0,0.0,0.0,0.0,0.0,0.0,0.0,0.0,0.0,0.0,0.0,0.0,0.0,0.0,0.0,0.0,0.0,0.0,0.0,0.0,0.0,0.0,0.0,-2.0845,-2.2574,-2.2716,-2.3505,-2.4967,-2.5284,-2.526,-2.4844,-2.4414,-2.3845,0.0,0.0,0.0,0.0,0.0,0.0,0.0,0.0,0.0,0.0,0.0,0.0,0.0,0.0,0.0,0.0,0.0,0.0,0.0,0.0,0.0,0.0,0.0,0.0,0.0,0.0,0.0,0.0,-1.8994,-1.8975,-1.8637,0.0,0.0,0.0,0.0,0.0,0.0,0.0,0.0,0.0,0.0,-1.9014,-1.974,-2.004,-2.0206,-2.0206,-2.0333,-2.041,-2.0371,-1.9766,-1.9248,-1.9111,0.0,0.0,0.0,0.0,0.0,0.0,0.0,0.0,0.0,0.0,0.0,0.0,0.0,0.0,0.0,0.0,0.0,0.0,0.0,0.0,0.0,0.0,0.0,0.0,0.0,0.0,0.0,0.0,0.0,0.0,-2.0395,0.0,0.0,0.0,0.0,0.0,0.0,0.0,0.0,0.0,0.0,0.0,0.0,0.0,0.0,0.0,0.0,0.0,0.0,0.0,0.0,0.0,0.0,-2.0115,-2.1603,-2.1869,-2.2327,-2.3183,-2.4069,-2.4531,-2.4467,-2.4075,-2.3726,-2.3547,0.0,0.0,0.0,0.0,0.0,0.0,0.0,0.0,0.0,0.0,0.0,0.0,0.0,0.0,0.0,0.0,0.0,0.0,0.0,0.0,0.0,0.0,0.0,0.0,0.0,0.0,-1.911,-1.8861,-1.8582,0.0,0.0,0.0,0.0,0.0,0.0,0.0,0.0,0.0,0.0,-1.7248,-1.7608,-1.8026,-1.8807,-1.9313,-1.9341,-1.9611,-1.9894,-1.9904,-1.957,-1.9141,0.0,0.0,0.0,0.0,0.0,0.0,0.0,0.0,0.0,0.0,0.0,0.0,0.0,0.0,0.0,0.0,0.0,0.0,0.0,0.0,0.0,0.0,0.0,0.0,0.0,0.0,0.0,-2.1679,-2.1479,0.0,0.0,0.0,0.0,0.0,0.0,0.0,0.0,0.0,0.0,0.0,-1.9144,-1.8905,0.0,0.0,0.0,0.0,0.0,0.0,0.0,0.0,0.0,0.0,0.0,0.0,-1.9966,-2.1283,-2.1704,-2.2295,-2.3071,-2.3396,-2.356,-2.356,-2.3143,-2.2868,-2.2736,0.0,0.0,0.0,0.0,0.0,0.0,0.0,0.0,0.0,0.0,0.0,0.0,0.0,0.0,0.0,0.0,0.0,0.0,0.0,0.0,0.0,0.0,0.0,0.0,0.0,-1.8266,0.0,0.0,0.0,0.0,0.0,0.0,0.0,0.0,0.0,0.0,0.0,-1.7021,-1.7209,-1.7325,-1.7547,-1.7946,-1.8061,-1.8189,0.0,0.0,0.0,0.0,0.0,0.0,0.0,0.0,0.0,0.0,0.0,0.0,0.0,0.0,-1.7255,-1.6281,-1.6489,-1.6732,-1.6462,0.0,0.0,0.0,0.0,0.0,0.0,0.0,0.0,0.0,0.0,0.0,0.0,0.0,0.0,-2.2081,0.0,-2.1262,0.0,0.0,0.0,0.0,0.0,0.0,0.0,0.0,-1.9946,-1.9777,-1.9263,-1.9004,-1.8691,0.0,-1.842,-1.828,0.0,0.0,0.0,0.0,0.0,0.0,0.0,0.0,-2.0234,-2.1171,-2.1807,-2.2441,-2.3052,-2.3101,-2.3101,-2.3091,-2.2734,-2.2456,-2.2372,-2.1361,-2.0693,0.0,0.0,0.0,0.0,0.0,0.0,0.0,0.0,0.0,0.0,0.0,0.0,0.0,0.0,0.0,0.0,0.0,0.0,0.0,0.0,0.0,0.0,0.0,-1.7799,0.0,0.0,0.0,0.0,0.0,0.0,0.0,0.0,0.0,-1.5417,-1.604,-1.6511,-1.6514,-1.662,-1.6822,-1.7082,0.0,0.0,0.0,0.0,0.0,0.0,0.0,-1.7933,-1.8719,-1.882,-1.8646,-1.8022,-1.752,-1.7317,-1.7902,0.0,0.0,-1.7095,-1.7156,-1.7294,-1.7294,-1.733,-1.7248,-1.6956,-1.691,-1.6975,0.0,0.0,0.0,0.0,0.0,0.0,0.0,0.0,-2.2026,-2.2023,0.0,-2.1611,0.0,0.0,0.0,0.0,0.0,-1.918,0.0,0.0,-1.8295,-1.8013,-1.8319,-1.8033,-1.7845,-1.7871,-1.8387,-1.8462,-1.8166,-1.7565,0.0,0.0,0.0,0.0,0.0,0.0,-2.0722,-2.1128,-2.1913,-2.2576,-2.294,-2.2979,-2.2998,-2.3008,-2.263,-2.245,-2.2372,-2.0445,-1.9771,-2.0683,-1.8961,0.0,0.0,0.0,0.0,0.0,0.0,0.0,0.0,0.0,0.0,0.0,0.0,0.0,0.0,0.0,0.0,0.0,0.0,0.0,0.0,-1.7421,0.0,0.0,0.0,0.0,0.0,0.0,0.0,0.0,0.0,0.0,-1.4221,-1.5249,-1.5776,-1.5043,0.0,0.0,0.0,0.0,-1.6634,-1.665,-1.7029,-1.7276,-1.7349,-1.7004,-1.7003,-1.7876,0.0,0.0,-1.7833,-1.7216,-1.6935,-1.7676,-1.81,-1.831,-1.8071,-1.8125,-1.82,-1.8191,-1.821,-1.8192,-1.8127,-1.8072,-1.8109,-2.4391,0.0,0.0,0.0,0.0,-2.2793,-2.2588,-2.2254,-2.2381,-2.2372,-2.2235,-2.1889,0.0,0.0,0.0,0.0,0.0,0.0,-1.9981,-1.955,-1.9509,-1.9189,-1.8642,-1.8555,-1.8511,-1.8496,-1.8419,-1.8357,-1.823,-1.7583,-1.7825,-1.8904,0.0,0.0,0.0,0.0,-1.9067,-2.0013,-2.0331,-2.0615,-2.1042,-2.1282,-2.1511,-2.1748,-2.1651,-2.1456,-2.1219,-2.0359,-1.9796,-1.9589,-1.8943,0.0,0.0,0.0,0.0,0.0,0.0,0.0,0.0,0.0,0.0,0.0,0.0,0.0,0.0,0.0,0.0,0.0,0.0,0.0,-1.7888,-1.6452,-1.5285,0.0,0.0,0.0,0.0,0.0,0.0,0.0,0.0,0.0,-1.4684,-1.5183,-1.5524,0.0,0.0,-1.5389,-1.5389,-1.5424,-1.5512,-1.5745,-1.5543,0.0,-1.6597,-1.671,-1.7047,-1.8072,-1.7804,-1.7553,-1.7836,-1.7195,-1.6852,-1.7523,-1.7731,-1.7819,-1.7828,-1.8906,-1.9693,-1.9833,-1.9793,-1.9582,-1.907,-1.8962,-1.8759,-2.4419,-2.3678,-2.3316,-2.3196,-2.3203,-2.336,-2.313,-2.2721,-2.292,-2.2902,-2.2686,-2.2298,-2.228,-2.2514,-2.1682,0.0,0.0,0.0,-1.9844,-1.9433,-1.9721,-1.9526,-1.903,-1.8979,-1.8979,-1.8972,-1.8782,-1.8621,-1.8489,-1.7969,-1.8095,-1.8854,0.0,0.0,-1.9009,-1.8713,-1.8871,-1.9579,-1.9886,-2.015,-2.0417,-2.0738,-2.1006,-2.1219,-2.1227,-2.1125,-2.0895,-2.0063,-1.9664,-1.9737,-1.8821,-1.825,0.0,0.0,0.0,0.0,0.0,0.0,0.0,0.0,0.0,0.0,0.0,-1.7008,-1.7664,0.0,0.0,0.0,-1.7293,-1.7288,-1.6829,-1.5653,0.0,0.0,0.0,0.0,0.0,0.0,0.0,-1.5013,-1.5211,-1.533,-1.5489,-1.5679,-1.5709,-1.5425,-1.5389,-1.5391,-1.543,0.0,-1.5229,-1.5454,-1.5265,-1.535,-1.6047,-1.6319,-1.6734,-1.7602,-1.7549,-1.7365,-1.7489,-1.6952,-1.6695,-1.7266,-1.749,-1.7625,-1.8027,-1.9046,-1.9861,-1.9898,-1.9605,-1.9388,-1.9648,-1.9503,-1.9102,-2.4227,-2.4287,-2.459,-2.4299,-2.3672,-2.402,-2.3762,-2.3177,-2.3564,-2.3529,-2.3134,-2.2792,-2.2399,-2.1909,-2.0622,0.0,-1.9952,-1.9214,-1.8891,-1.8884,-1.9169,-1.9301,-1.9272,-1.9272,-1.9272,-1.9272,-1.9272,-1.9118,-1.8818,-1.8496,-1.8465,-1.859,-1.8032,-1.8136,-1.8903,-1.9232,-1.9434,-1.9476,-2.0113,-2.0538,-2.0572,-2.0853,-2.0998,-2.1032,-2.1032,-2.1015,-2.0965,-1.9586,-1.9345,-2.0404,-1.8642,-1.789,-1.8541,0.0,0.0,0.0,0.0,0.0,0.0,0.0,0.0,0.0,0.0,0.0,0.0,0.0,0.0,0.0,-1.6409,0.0,-1.5587,-1.5233,0.0,0.0,0.0,-1.4721,-1.4951,-1.5002,-1.5243,-1.5884,0.0,0.0,-1.6375,-1.6411,-1.6155,-1.5577,-1.5504,-1.548,-1.5548,-1.5583,-1.5604,-1.5669,-1.5866,-1.5976,-1.5873,-1.6019,-1.6329,-1.681,-1.7116,-1.7168,-1.691,-1.6529,-1.6513,-1.7008,-1.7185,-1.7397,-1.8365,-1.8464,-1.8643,-1.8862,-1.8338,-1.8314,-1.9726,-1.9632,-1.9297,-2.4684,-2.4658,-2.4711,-2.4367,-2.367,-2.38,-2.3738,-2.3598,-2.3675,-2.3614,-2.3528,-2.2978,-2.242,-2.1864,-2.1135,-2.0832,-2.0779,-2.0171,-1.9762,-1.9595,-1.9661,-1.9566,-1.9279,-1.9272,-1.9272,-1.9272,-1.9272,-1.9235,-1.9147,-1.8833,-1.8692,-1.8721,-1.8376,-1.8263,-1.8378,-1.8047,-1.7978,-1.8236,-1.8646,-1.8981,-1.9223,-1.9315,-1.9489,-1.9732,-1.9747,-1.9626,-1.9368,-1.9009,-1.8768,-1.8666,-1.8168,-1.7644,-1.7172,-1.7638,0.0,0.0,0.0,0.0,0.0,0.0,0.0,0.0,0.0,-1.6109,-1.6864,0.0,-1.6982,0.0,-1.6061,-1.6149,-1.6568,-1.6255,0.0,0.0,-1.5818,-1.5855,-1.5666,-1.5891,-1.6089,-1.6243,-1.6257,-1.6331,-1.6404,-1.6411,-1.636,-1.6206,-1.6148,-1.617,-1.6206,-1.6169,-1.6191,-1.619,-1.6263,-1.6366,-1.6523,-1.6685,-1.6643,-1.6418,-1.6427,-1.6383,-1.6135,-1.5961,-1.5974,-1.6109,-1.6157,-1.6292,-1.6527,-1.648,-1.6861,-1.7589,-1.8139,-1.8544,-1.875,-1.9134,-1.9513,-2.4821,-2.4821,-2.4821,-2.4573,-2.4179,-2.4179,-2.4179,-2.4179,-2.4179,-2.4071,-2.3729,-2.2974,-2.2333,-2.1873,-2.1318,-2.1101,-2.1039,-2.0448,-2.0142,-1.9974,-1.9974,-1.9879,-1.9711,-1.9703,-1.963,-1.9544,-1.9544,-1.947,-1.9264,-1.895,-1.8789,-1.8782,-1.8467,-1.8271,-1.8223,-1.7908,-1.7852,-1.8028,-1.8357,-1.8672,-1.8994,-1.9008,-1.9096,-1.9264,-1.9272,-1.9191,-1.9016,-1.8862,-1.8733,-1.8677,-1.8268,-1.7781,-1.7308,-1.7375,-1.7049,0.0,0.0,0.0,0.0,0.0,0.0,0.0,0.0,0.0,0.0,0.0,-1.6949,-1.6549,-1.6275,-1.6279,-1.6712,-1.6551,-1.6345,-1.614,-1.6265,-1.6404,-1.6382,-1.6529,-1.6638,-1.6777,-1.6799,-1.6799,-1.6799,-1.6799,-1.6753,-1.667,-1.667,-1.6612,-1.6488,-1.6459,-1.6458,-1.6505,-1.6481,-1.6531,-1.6725,-1.6717,-1.6555,-1.6272,-1.6076,-1.5974,-1.5832,-1.5825,-1.5825,-1.5825,-1.5825,-1.5825,-1.5825,-1.5825,-1.6015,-1.6487,-1.7084,-1.7656,-1.8322,-1.8555,-1.8587,-2.4821,-2.4821,-2.4821,-2.4821,-2.4821,-2.4821,-2.4821,-2.4821,-2.471,-2.4312,-2.3616,-2.2736,-2.2167,-2.1791,-2.134,-2.1122,-2.1067,-2.0574,-2.034,-2.0249,-2.0303,-2.0274,-2.0183,-2.0183,-2.0091,-1.9828,-1.9874,-1.9713,-1.9382,-1.9052,-1.8891,-1.884,-1.8562,-1.843,-1.8423,-1.8423,-1.8423,-1.843,-1.8708,-1.9038,-1.9264,-1.9272,-1.9272,-1.9272,-1.9272,-1.9272,-1.9264,-1.9008,-1.9029,-1.9366,-1.855,-1.8091,-1.8039,-1.7241,-1.6586,0.0,-1.5942,0.0,0.0,0.0,0.0,0.0,0.0,0.0,0.0,-1.6399,-1.6703,-1.7037,-1.6699,-1.6492,-1.6536,-1.6536,-1.6536,-1.6536,-1.6536,-1.6653,-1.6917,-1.6969,-1.7026,-1.7304,-1.7286,-1.7279,-1.7016,-1.7138,-1.7145,-1.6546,-1.6727,-1.6729,-1.6384,-1.6419,-1.6512,-1.6601,-1.6588,-1.6565,-1.6553,-1.6353,-1.6224,-1.613,-1.5981,-1.5825,-1.5825,-1.5825,-1.5825,-1.5825,-1.5825,-1.5825,-1.5825,-1.5825,-1.5825,-1.5872,-1.5967,-1.6473,-1.7755,-1.7848,-1.7509,-2.4821,-2.4821,-2.4821,-2.4821,-2.4821,-2.4821,-2.4821,-2.4765,-2.4256,-2.3464,-2.2449,-2.2266,-2.1866,-2.1368,-2.1191,-2.1191,-2.1198,-2.1077,-2.0881,-2.057,-2.0577,-2.0431,-2.019,-2.0183,-2.0146,-2.015,-2.0095,-1.9981,-1.972,-1.9661,-1.95,-1.9243,-1.9125,-1.9089,-1.9089,0.0,0.0,0.0,-1.9147,-1.9213,-1.9272,-1.9272,-1.9272,-1.9272,-1.9272,0.0,-1.9272,-1.9272,-1.9118,-1.8948,-1.8757,0.0,0.0,0.0,0.0,0.0,0.0,0.0,0.0,0.0,0.0,0.0,-1.7712,-1.74,-1.6855,-1.6557,-1.6721,-1.7303,-1.7026,-1.6917,-1.7121,-1.7143,-1.715,-1.715,-1.7143,-1.7172,-1.7238,-1.7238,-1.7267,-1.7271,-1.7286,-1.6897,-1.5981,-1.6527,-1.6292,-1.4698,-1.5615,-1.6224,-1.5354,-1.6001,-1.6558,-1.6581,-1.6588,-1.6494,-1.6312,-1.6218,-1.6123,-1.5927,-1.5825,-1.5825,-1.5825,-1.5825,-1.5825,-1.5825,-1.5825,-1.5825,-1.5825,-1.5825,-1.5825,-1.5825,-1.5825,-1.592,-1.6292,-1.6904,-1.7311,-2.4821,0.0,-2.4821,-2.4821,0.0,-2.4487,-2.4368,-2.4368,-2.4024,-2.3239,-2.2108,-2.1774,-2.1489,-2.1211,-2.1211,-2.1211,-2.1211,-2.1211,-2.1123,-2.0969,-2.0962,-2.0874,-2.0713,-2.0713,-2.0633,-2.0479,-2.0424,-2.0311,-2.0011,-2.0003,-1.9908,-1.9747,-1.9594,-1.9566,-1.9566,-1.9404,-1.9272,-1.9272,-1.9272,-1.9272,-1.9272,-1.9272,-1.9272,-1.9272,-1.9272,0.0,0.0,0.0,0.0,0.0,0.0,0.0,0.0,0.0,0.0,-1.766,-1.7727,-1.7804,-1.7971,-1.7986,-1.8036,-1.8115,-1.8144,-1.7936,-1.7451,-1.737,-1.7485,-1.7821,-1.7717,-1.7567,-1.7567,-1.752,-1.7454,-1.7301,-1.6951,-1.6763,-1.6709,-1.6426,-1.619,-1.619,-1.5988,-1.5555,-1.4937,-1.5032,-1.4746,-1.359,-1.4172,-1.4657,-1.422,-1.5425,-1.6534,-1.6454,-1.6541,-1.6494,-1.6272,-1.6224,-1.6123,-1.6028,-1.5879,-1.5825,-1.5825,-1.5825,-1.5825,-1.5825,-1.5825,-1.5825,-1.5825,-1.5825,-1.5825,-1.5825,-1.5825,-1.5825,-1.5825,-1.6204,-1.6527,-2.4821,-2.4821,-2.471,-2.4646,-2.459,-2.4024,-2.3697,-2.3585,0.0,0.0,0.0,-2.1439,-2.1211,-2.1211,-2.1211,-2.1211,-2.1211,-2.1211,-2.1211,-2.1211,-2.1211,-2.1211,-2.1211,-2.1211,-2.1072,-2.0815,-2.0808,-2.0584,-2.0278,-2.027,-2.0234,-2.0161,-1.9967,-1.9842,-1.9828,-1.9579,-1.9418,-1.9367,-1.936,-1.9272,-1.9272,-1.9272,-1.9272,-1.9272,-1.9272,-1.9272,-1.9272,-1.9272,-1.9272,-1.9264,-1.9023,-1.8877,-1.8862,-1.8569,-1.8262,-1.8013,-1.7933,-1.7925,-1.7984,-1.7991,-1.8074,-1.8246,-1.8117,-1.7952,-1.7884,-1.8145,-1.8299,-1.8299,-1.8158,-1.7943,-1.7683,-1.7509,-1.7332,-1.6971,-1.6415,-1.6062,-1.5961,-1.548,-1.5146,-1.4949,-1.4657,-1.4172,-1.383,-1.3632,-1.3151,-1.2678,-1.2829,-1.2974,-1.3017,-1.4657,-1.5967,-1.5838,-1.5872,-1.6015,-1.5879,-1.554,-1.5588,-1.535,-1.5248,-1.5343,-1.5493,-1.554,-1.5588,-1.5778,-1.5683,-1.5588,-1.5737,-1.5594,-1.5642,-1.5784,-1.5825,-1.5825,-1.5825,-1.5784,-1.5778,-2.483,-2.4757,-2.4256,-2.4033,-2.3977,-2.3408,-2.2845,-2.2343,-2.2343,-2.1995,-2.1325,-2.1268,-2.1211,-2.1211,-2.1211,-2.1211,-2.1211,-2.1211,-2.1211,-2.1211,-2.1211,-2.1211,-2.1211,-2.1211,-2.1189,-2.1145,-2.1145,-2.0976,-2.0684,-2.0662,-2.046,-2.0267,-2.0139,-2.0117,-2.0164,-2.0128,-1.9967,-1.9749,-1.9418,-1.9272,-1.9272,-1.9272,-1.9272,-1.9272,-1.9272,-1.9272,-1.9272,-1.9272,-1.9272,-1.9272,-1.9287,-1.9213,-1.9199,-1.8899,-1.8694,-1.8642,-1.8386,-1.8357,-1.8621,-1.865,-1.8477,-1.8033,-1.7344,-1.728,-1.815,-1.8277,-1.8299,-1.8306,-1.7633,-1.7193,-1.7095,-1.654,-1.6067,-1.5758,-1.5566,-1.5428,-1.5306,-1.5124,-1.4825,-1.4388,-1.4364,-1.359,-1.2382,-1.263,-1.2247,-1.0939,-1.1565,-1.263,-1.2684,-1.38,-1.4532,-1.4586,-1.458,-1.4627,-1.4532,-1.3752,-1.3505,-1.3167,-1.3307,-1.365,-1.4382,-1.4484,-1.4771,-1.5588,-1.5016,-1.4873,-1.5445,-1.5064,-1.4914,-1.5391,-1.554,-1.5635,-1.5635,-1.5588,-1.5547,-2.4662,-2.4524,-2.377,-2.3416,-2.3352,-2.2788,-2.2165,-2.1603,-2.1603,-2.1497,-2.1211,-2.1211,-2.1211,-2.1211,-2.1211,-2.1211,-2.1211,-2.1211,-2.1211,-2.1211,-2.1211,-2.1211,-2.1211,-2.1211,-2.1211,-2.1211,-2.1211,-2.1137,-2.0998,-2.0984,-2.0911,-2.0757,-2.0596,-2.0358,-2.019,-2.0183,-2.0164,-2.0018,-1.9757,-1.9507,-1.9279,-1.9272,-1.9272,-1.9272,-1.9272,-1.9272,-1.9272,-1.9272,-1.9272,-1.9272,-1.9272,-1.9272,-1.9272,-1.9184,-1.9052,-1.9045,-1.8913,-1.8899,-1.9045,-1.9052,-1.8742,-1.808,-1.7621,-1.7409,-1.74,-1.7432,-1.7432,-1.7432,-1.7027,-1.6748,-1.6604,-1.6221,-1.591,-1.5632,-1.5258,-1.4959,-1.4727,-1.3981,-1.3466,-1.3204,-1.2564,-1.1863,-1.1037,-1.1086,-1.0939,-0.9821,-1.0596,-1.1033,-1.1082,-1.196,-1.2834,-1.3318,-1.3463,-1.3414,-1.3414,-1.3071,-1.2732,-1.2684,-1.2684,-1.2877,-1.3366,-1.3414,-1.3655,-1.3992,-1.3698,-1.3655,-1.413,-1.38,-1.3752,-1.389,-1.4136,-1.4232,-1.4621,-1.5016,-1.5261,-2.3857,-2.3948,-2.2983,-2.2568,-2.257,-2.2108,-2.1611,-2.1211,-2.1211,-2.1211,-2.1211,-2.1211,-2.1211,-2.1211,-2.1211,-2.1211,-2.1211,-2.1211,-2.1211,-2.1211,-2.1211,-2.1211,-2.1211,-2.1211,-2.1211,-2.1211,-2.1211,-2.1211,-2.1211,-2.1211,-2.1211,-2.1181,-2.0955,-2.065,-2.0464,-2.0402,-2.042,-2.0278,-2.0106,-1.9828,-1.9506,-1.9491,-1.9462,-1.9389,-1.9441,-1.9404,-1.9286,-1.9272,-1.9272,-1.9272,-1.9272,-1.9272,-1.9272,-1.9108,-1.9108,-1.922,-1.8907,-1.8698,-1.8698,-1.8527,-1.816,-1.7509,-1.7246,-1.6836,-1.6258,-1.6146,-1.6305,-1.6624,-1.6546,-1.6305,-1.6079,-1.5833,-1.5625,-1.5369,-1.4822,-1.443,-1.4219,-1.3135,-1.2324,-1.2103,-1.1175,-1.054,-1.024,-0.9929,-0.9722,-0.9686,-0.9624,-0.9624,-0.9723,-1.0355,-1.1126,-1.1755,-1.2193,-1.2339,-1.2339,-1.2047,-1.1907,-1.2004,-1.1907,-1.2004,-1.2193,-1.2339,-1.2533,-1.2678,-1.2533,-1.2581,-1.2635,-1.249,-1.2538,-1.2775,-1.2974,-1.3071,-1.3752,-1.4244,-1.4688,-2.1806,-2.2372,-2.162,-2.1336,-2.134,-2.1275,-2.1218,-2.1153,-2.1211,-2.1211,-2.1211,-2.1211,-2.1211,-2.1211,-2.1211,-2.1211,-2.1211,-2.1211,-2.1211,-2.1211,-2.1211,-2.1211,-2.1211,-2.1211,-2.1211,-2.1211,-2.1211,-2.1211,-2.1211,-2.1211,-2.1211,-2.1211,-2.1174,-2.113,-2.1108,-2.1101,-2.0976,-2.0684,-2.0591,-2.0472,-2.0172,-2.0088,-2.0011,-1.9779,-1.9771,-1.9632,-1.933,-1.9272,-1.9279,-1.9272,-1.9279,-1.9272,-1.922,-1.8572,-1.8468,-1.9168,-1.7845,-1.6942,-1.6942,-1.6258,-1.5933,-1.5666,-1.5143,-1.4671,-1.4509,-1.4461,-1.5089,-1.6152,-1.5986,-1.5595,-1.553,-1.4936,-1.4408,-1.424,-1.4044,-1.3811,-1.3591,-1.2992,-1.2407,-1.1887,-1.1227,-1.0608,-1.0095,-0.9914,-0.9799,-0.9623,-0.9661,-0.9644,-0.9624,-0.9772,-0.9916,-1.0162,-1.0694,-1.1272,-1.1272,-1.0498,-1.0256,-1.0064,-0.9965,-1.0404,-1.1028,-1.1365,-1.156,-1.1901,-1.1804,-1.1609,-1.1999,-1.2047,-1.1658,-1.2101,-1.2393,-1.278,-1.3312,-1.3366,-1.3565,-2.093,-2.1208,-2.0321,-1.986,-1.9796,-1.9782,-2.0031,-2.0342,-2.0392,-2.0687,-2.1153,-2.1211,-2.1211,-2.1211,-2.1211,-2.1211,-2.1211,-2.1211,-2.1211,-2.1211,-2.1211,-2.1211,-2.1211,-2.1211,-2.1211,-2.1211,-2.1211,-2.1211,-2.1211,-2.1211,-2.1211,-2.1211,-2.1211,-2.1211,-2.1211,-2.1211,-2.1137,-2.1013,-2.1013,-2.094,-2.0786,-2.0373,-2.0179,-2.0062,-2.0047,-1.9989,-1.9789,-1.9234,-1.8794,-1.8787,-1.8626,-1.852,-1.852,-1.8199,-1.8146,-1.8468,-1.7417,-1.667,-1.6683,-1.6411,-1.5986,-1.5565,-1.5196,-1.4778,-1.4245,-1.4196,-1.4509,-1.5041,-1.4934,-1.4719,-1.4724,-1.4407,-1.4153,-1.4062,-1.404,-1.3885,-1.3429,-1.2763,-1.2154,-1.1563,-1.0897,-1.04,-1.0122,-1.0102,-0.9973,-0.9827,-0.9778,-0.9754,-0.9657,-0.9624,-0.9624,-0.9677,-1.0015,-1.0207,-1.0256,-0.9965,-0.9624,-0.9624,-0.9624,-0.9916,-1.0109,-1.0256,-1.0449,-1.089,-1.0596,-1.0449,-1.0645,-1.0645,-1.0453,-1.0988,-1.1228,-1.1424,-1.1624,-1.1858,-1.2198,-1.9813,-1.9899,-1.9464,-1.9069,-1.8883,-1.8883,-1.914,-1.9486,-1.9524,-1.9891,-2.0385,-2.0443,-2.045,-2.0507,-2.0974,-2.1211,-2.1211,-2.1211,-2.1211,-2.1211,-2.1211,-2.1211,-2.1211,-2.1211,-2.1211,-2.1211,-2.1211,-2.1031,-2.0802,-2.0507,-2.045,-2.0443,-2.0443,-2.0443,-2.0443,-2.0443,-2.0443,-2.0443,-2.0443,-2.0565,-2.0673,-2.0111,-1.9889,-2.0266,-2.0314,-2.0161,-1.9792,-1.902,-1.8455,-1.8171,-1.797,-1.7816,-1.7742,-1.7516,-1.7278,-1.6995,-1.6624,-1.6252,-1.6045,-1.6045,-1.5779,-1.525,-1.5137,-1.488,-1.4353,-1.4196,-1.4196,-1.4245,-1.4196,-1.4191,-1.4196,-1.4196,-1.4196,-1.4196,-1.4083,-1.3753,-1.3349,-1.2612,-1.1889,-1.1389,-1.083,-1.0339,-1.0294,-1.0188,-1.0091,-0.9985,-0.9961,-0.9929,-0.9795,-0.9746,-0.9705,-0.9693,-0.9665,-0.9624,-0.9624,-0.9624,-0.9624,-0.9624,-0.9624,-0.9624,-0.9624,-0.9624,-0.9624,-1.0207,-0.9772,-0.9673,-0.9965,-0.9772,-0.9579,-0.9579,-0.9723,-1.0109,-1.0498,-1.0641,-1.0734,-1.7689,-1.8669,-1.9312,-1.9285,-1.9033,-1.8972,-1.8943,-1.8875,-1.8869,-1.8781,-1.8667,-1.8642,-1.8571,-1.8739,-2.0328,-2.1153,-2.1153,-2.1153,-2.1153,-2.1203,-2.1211,-2.1211,-2.1211,-2.1211,-2.1211,-2.1211,-2.1089,-2.0687,-1.9866,-1.9042,-1.8506,-1.8564,-1.8687,-1.8622,-1.8687,-1.8739,-1.8564,-1.8739,-1.8739,-1.9042,-1.9628,-1.8996,-1.924,-2.0384,-2.0643,-2.0003,-1.9029,-1.8789,-1.832,-1.7469,-1.7437,-1.7317,-1.7102,-1.6405,-1.559,-1.4715,-1.5148,-1.5196,-1.4509,-1.4461,-1.4407,-1.4299,-1.4353,-1.4245,-1.4191,-1.4196,-1.4196,-1.4196,-1.4196,-1.4196,-1.4142,-1.4137,-1.4137,-1.4083,-1.3699,-1.3369,-1.3261,-1.2259,-1.1719,-1.1487,-1.1013,-1.0608,-1.0436,-1.027,-1.0257,-1.0212,-1.0204,-1.018,-1.0131,-0.9965,-0.9892,-0.9847,-0.9766,-0.9636,-0.9636,-0.9628,-0.9628,-0.9624,-0.9624,-0.9624,-0.9624,-0.9624,-0.9624,-0.9624,-0.9624,-0.9624,-0.9624,-0.9525,-0.9426,-0.9229,-0.8878,-0.9072,-0.9612,-0.9657,-0.9706,-1.7195,-1.7571,-1.7803,-1.7811,-1.7599,-1.7588,-1.7754,-1.807,-1.8064,-1.8335,-1.8648,-1.861,-1.8568,-1.8441,-1.9094,-1.9744,-2.0284,-2.0277,-2.0622,-2.1153,-2.1211,-2.1211,-2.1211,-2.1211,-2.1211,-2.1089,-2.0565,-1.9809,-1.8978,-1.8506,-1.8389,-1.8389,-1.8389,-1.8389,-1.8389,-1.8389,-1.8389,-1.8389,-1.8389,-1.8564,-1.8861,-1.8564,-1.8687,-1.9178,-1.9223,-1.9004,-1.8555,-1.7812,-1.7207,-1.6917,-1.671,-1.6572,-1.6476,-1.6081,-1.5361,-1.4521,-1.4537,-1.4509,-1.4245,-1.4196,-1.4196,-1.4196,-1.4196,-1.4196,-1.4196,-1.4196,-1.4196,-1.4196,-1.4196,-1.4029,-1.3759,-1.3975,-1.4034,-1.3645,-1.3428,-1.2989,-1.2332,-1.1841,-1.1459,-1.1131,-1.0798,-1.066,-1.0603,-1.0538,-1.0461,-1.0363,-1.0335,-1.029,-1.0241,-1.0099,-1.0114,-1.011,-1.0014,-0.9969,-0.9973,-0.975,-0.9632,-0.9628,-0.9624,-0.9624,-0.9624,-0.9624,-0.9624,-0.9624,-0.9624,-0.9529,-0.948,-0.9229,-0.913,-0.8977,-0.8581,-0.8528,-0.8874,-0.8924,-0.8775,-1.7001,-1.7001,-1.7001,-1.692,-1.678,-1.677,-1.7009,-1.736,-1.7405,-1.7637,-1.7973,-1.7998,-1.7847,-1.7677,-1.7646,-1.8062,-1.8881,-1.9223,-1.9686,-2.027,-2.063,-2.0565,-2.0385,-2.0572,-2.0565,-2.0155,-1.9339,-1.8571,-1.7981,-1.7636,-1.7519,-1.7461,-1.7513,-1.7513,-1.7519,-1.7519,-1.7519,-1.7519,-1.7519,-1.7572,-1.787,-1.763,-1.7695,-1.7864,-1.7695,-1.7636,-1.7923,-1.7169,-1.657,-1.6315,-1.612,-1.5989,-1.5847,-1.5658,-1.5204,-1.4585,-1.4396,-1.4266,-1.4207,-1.4196,-1.4196,-1.4196,-1.4196,-1.4196,-1.4196,-1.4196,-1.4196,-1.4191,-1.3975,-1.3699,-1.3478,-1.3478,-1.3428,-1.3044,-1.2881,-1.2441,-1.1737,-1.1459,-1.1131,-1.0857,-1.0747,-1.0692,-1.0692,-1.0688,-1.0627,-1.053,-1.0521,-1.0456,-1.0416,-1.0282,-1.0249,-1.0245,-1.0184,-1.0136,-1.0111,-0.9953,-0.9799,-0.9774,-0.9677,-0.9661,-0.9648,-0.964,-0.9632,-0.9628,-0.9529,-0.943,-0.9282,-0.8981,-0.8829,-0.868,-0.8432,-0.8283,-0.8333,-0.8187,-0.8237,-1.7001,-1.7001,-1.7001,-1.6996,-1.6974,-1.6969,-1.6861,-1.681,-1.6789,-1.6784,-1.6701,-1.6498,-1.6485,-1.6166,-1.631,-1.6483,-1.7185,-1.7972,-1.8421,-1.8739,-1.9455,-1.9332,-1.8739,-1.9448,-1.9339,-1.8506,-1.7519,-1.7114,-1.6932,-1.6301,-1.5893,-1.5715,-1.5833,-1.5952,-1.5715,-1.5893,-1.5774,-1.5833,-1.5893,-1.6177,-1.6762,-1.6242,-1.6242,-1.682,-1.6242,-1.6183,-1.6938,-1.6921,-1.6497,-1.5752,-1.5623,-1.5478,-1.531,-1.5134,-1.4794,-1.4632,-1.4552,-1.4428,-1.4245,-1.4223,-1.4229,-1.4196,-1.4196,-1.4196,-1.4196,-1.4196,-1.4137,-1.4029,-1.3699,-1.3266,-1.3098,-1.2767,-1.2441,-1.2387,-1.206,-1.1732,-1.1459,-1.1076,-1.0747,-1.0692,-1.0692,-1.0692,-1.0692,-1.0692,-1.0672,-1.0664,-1.066,-1.0651,-1.0603,-1.0505,-1.0444,-1.0408,-1.0355,-1.0355,-1.0286,-1.0156,-1.0046,-0.9941,-0.9807,-0.9726,-0.9709,-0.9697,-0.9665,-0.9657,-0.9377,-0.9278,-0.913,-0.8829,-0.8581,-0.8432,-0.8184,-0.8084,-0.8038,-0.8041,-0.8038,-1.7001,-1.7001,-1.7001,-1.7001,-1.7001,-1.7001,-1.6958,-1.6899,-1.6899,-1.6764,-1.6581,-1.6554,-1.6425,-1.6242,-1.6194,-1.6248,-1.6325,-1.6663,-1.7339,-1.8305,-1.8687,-1.868,-1.8448,-1.8687,-1.8331,-1.7519,-1.7173,-1.6644,-1.6065,-1.5715,-1.5601,-1.5601,-1.5601,-1.5601,-1.5601,-1.5601,-1.5601,-1.5601,-1.5601,-1.5774,-1.6005,-1.5774,-1.5774,-1.5946,-1.572,-1.5769,-1.6005,-1.6065,-1.5893,-1.5601,-1.5601,-1.5564,-1.5461,-1.5268,-1.5112,-1.4968,-1.4859,-1.4676,-1.4476,-1.4422,-1.4358,-1.4239,-1.4196,-1.4196,-1.4196,-1.4191,-1.3975,-1.3704,-1.3374,-1.3044,-1.2278,-1.2005,-1.1841,-1.1841,-1.1673,-1.1404,-1.1072,-1.0857,-1.0747,-1.0692,-1.0692,-1.0692,-1.0692,-1.0692,-1.0692,-1.0692,-1.0692,-1.0692,-1.0676,-1.0639,-1.0615,-1.0599,-1.0588,-1.0535,-1.044,-1.0383,-1.0294,-1.0172,-1.0026,-0.9872,-0.9827,-0.9758,-0.9721,-0.9565,-0.9339,-0.9076,-0.8928,-0.868,-0.8432,-0.8233,-0.8088,-0.8038,-0.7988,-0.7988,-0.7988,-1.7001,-1.7001,-1.7001,-1.7001,-1.7001,-1.7001,-1.7001,-1.7001,-1.7001,-1.692,-1.6807,-1.6786,-1.6662,-1.6479,-1.6447,-1.6307,-1.6158,-1.6142,-1.6607,-1.7434,-1.7837,-1.7695,-1.7402,-1.7343,-1.7109,-1.6585,-1.6473,-1.6183,-1.5601,-1.5601,-1.5601,-1.5601,-1.5601,-1.5601,-1.5601,-1.5601,-1.5601,-1.5601,-1.5601,-1.5601,-1.5601,-1.5601,-1.5601,-1.5601,-1.5601,-1.5601,-1.5601,-1.5601,-1.5601,-1.5601,-1.5601,-1.5601,-1.5585,-1.5451,-1.5285,-1.5177,-1.5049,-1.4918,-1.4702,-1.4665,-1.4562,-1.4374,-1.432,-1.4277,-1.4169,-1.4029,-1.3645,-1.3369,-1.2881,-1.2387,-1.1732,-1.135,-1.1295,-1.1295,-1.124,-1.1076,-1.0747,-1.0692,-1.0692,-1.0692,-1.0692,-1.0692,-1.0692,-1.0692,-1.0692,-1.0692,-1.0692,-1.0692,-1.0692,-1.0688,-1.0692,-1.0692,-1.0655,-1.0635,-1.0664,-1.0611,-1.0538,-1.0412,-1.0274,-1.0115,-1.0006,-0.9888,-0.9811,-0.9486,-0.9229,-0.8981,-0.8783,-0.8531,-0.8283,-0.8137,-0.7988,-0.7988,-0.7988,-0.7988,-0.7988,-1.7001,-1.7001,-1.7001,-1.7001,-1.7001,-1.7001,-1.7001,-1.7001,-1.7001,-1.6996,-1.6985,-1.6969,-1.6872,-1.6774,-1.6747,-1.6549,-1.6366,-1.6328,-1.6261,-1.6392,-1.6677,-1.6676,-1.6016,-1.5952,-1.5893,-1.5774,-1.5715,-1.5661,-1.5601,-1.5601,-1.5601,-1.5601,-1.5601,-1.5601,-1.5601,-1.5601,-1.5601,-1.5601,-1.5601,-1.5601,-1.5601,-1.5601,-1.5601,-1.5601,-1.5601,-1.5601,-1.5601,-1.5601,-1.5601,-1.5601,-1.5601,-1.5601,-1.5601,-1.5596,-1.5483,-1.5253,-1.5215,-1.5138,-1.4966,-1.4907,-1.4799,-1.4589,-1.4398,-1.44,-1.4119,-1.3617,-1.3152,-1.2989,-1.2278,-1.1678,-1.1459,-1.1076,-1.0798,-1.0747,-1.0802,-1.0747,-1.0747,-1.0692,-1.0692,-1.0692,-1.0692,-1.0692,-1.0692,-1.0692,-1.0692,-1.0692,-1.0692,-1.0692,-1.0692,-1.0692,-1.0692,-1.0692,-1.0692,-1.0692,-1.0688,-1.0676,-1.0552,-1.007,-1.0069,-1.0008,-1.0012,-0.9884,-0.9689,-0.9361,-0.9019,-0.8809,-0.8485,-0.8184,-0.8084,-0.8038,-0.7988,-0.7988,-0.7988,-0.7988,-0.7988,-1.7001,-1.7001,-1.7001,-1.7001,-1.7001,-1.7001,-1.7001,-1.7001,-1.7001,-1.7001,-1.7001,-1.7001,-1.6969,-1.6915,-1.6904,-1.6786,-1.6614,-1.6571,-1.6447,-1.6298,-1.6346,-1.6145,-1.572,-1.5601,-1.5601,-1.5601,-1.5601,-1.5601,-1.5601,-1.5601,-1.5601,-1.5601,-1.5601,-1.5601,-1.5601,-1.5601,-1.5601,-1.5601,-1.5601,-1.5601,-1.5601,-1.5601,-1.5601,-1.5601,-1.5601,-1.5601,-1.5601,-1.5601,-1.5601,-1.5601,-1.5601,-1.5601,-1.5601,-1.5601,-1.5564,-1.551,-1.5488,-1.5344,-1.5156,-1.5097,-1.4979,-1.4754,-1.4213,-1.39,-1.3844,-1.3073,-1.2514,-1.2114,-1.1737,-1.1404,-1.1021,-1.0802,-1.0692,-1.0692,-1.0692,-1.0692,-1.0692,-1.0692,-1.0692,-1.0692,-1.0692,-1.0692,-1.0692,-1.0692,-1.0692,-1.0692,-1.0692,-1.0637,-1.0578,-1.0692,-1.0692,-1.0692,-1.0692,-1.0692,-1.0692,-1.0692,-1.0457,-0.9783,-0.961,-0.9656,-0.9667,-0.968,-0.9471,-0.9169,-0.8693,-0.8416,-0.7982,-0.7584,-0.7686,-0.7484,-0.7388,-0.7185,-0.7786,-0.7988,-0.7939,-1.7001,-1.7001,-1.7001,-1.7001,-1.7001,-1.7001,-1.7001,-1.7001,-1.7001,-1.7001,-1.7001,-1.7001,-1.7001,-1.7001,-1.7001,-1.6931,-1.6818,-1.6807,-1.6678,-1.6468,-1.635,-1.6097,-1.5806,-1.5671,-1.5601,-1.5601,-1.5601,-1.5601,-1.5601,-1.5601,-1.5601,-1.5601,-1.5601,-1.5601,-1.5601,-1.5601,-1.5601,-1.5601,-1.5601,-1.5601,-1.5601,-1.5601,-1.5601,-1.5601,-1.5601,-1.5601,-1.5601,-1.5601,-1.5601,-1.5601,-1.5601,-1.5601,-1.5601,-1.5601,-1.5601,-1.5601,-1.5601,-1.5413,-1.5077,-1.4917,-1.4691,-1.4259,-1.374,-1.3537,-1.326,-1.2636,-1.1967,-1.1755,-1.1401,-1.108,-1.0802,-1.0692,-1.0692,-1.0692,-1.0692,-1.0692,-1.0692,-1.0692,-1.0692,-1.0692,-1.0692,-1.0692,-1.0692,-1.0692,-1.0692,-1.0692,-1.0692,-1.0468,-1.0194,-1.0468,-1.0468,-1.0245,-1.0359,-1.0414,-1.0135,-1.0025,-0.9526,-0.8968,-0.8517,-0.8694,-0.8926,-0.9005,-0.8941,-0.8602,-0.8268,-0.7827,-0.7137,-0.6564,-0.6229,-0.6079,-0.6182,-0.6584,-0.7086,-0.7484,-0.7537,-1.7001,-1.7001,-1.7001,-1.7001,-1.7001,-1.7001,-1.7001,-1.7001,-1.7001,-1.7001,-1.7001,-1.7001,-1.7001,-1.7001,-1.7001,-1.6996,-1.699,-1.6964,-1.6867,-1.6678,-1.649,-1.6253,-1.6131,-1.5785,-1.5661,-1.5612,-1.5601,-1.5601,-1.5601,-1.5601,-1.5601,-1.5601,-1.5601,-1.5601,-1.5601,-1.5601,-1.5601,-1.5601,-1.5601,-1.5601,-1.5601,-1.5601,-1.5601,-1.5601,-1.5601,-1.5601,-1.5601,-1.5601,-1.5601,-1.5601,-1.5601,-1.5601,-1.5601,-1.5601,-1.5601,-1.5601,-1.5542,-1.5348,-1.4738,-1.4648,-1.4306,-1.3654,-1.3362,-1.3175,-1.2868,-1.223,-1.172,-1.1664,-1.1116,-1.0904,-1.0741,-1.072,-1.0692,-1.0692,-1.0692,-1.0692,-1.0692,-1.0692,-1.0692,-1.0692,-1.0692,-1.0692,-1.0692,-1.0692,-1.0633,-1.0194,-1.0194,-0.9915,-0.975,-0.986,-0.9691,-0.9302,-0.9581,-1.008,-0.9691,-0.9251,-0.8585,-0.7919,-0.7307,-0.7227,-0.7618,-0.7798,-0.7993,-0.7859,-0.727,-0.6542,-0.5667,-0.5207,-0.4859,-0.4977,-0.5279,-0.5732,-0.6234,-0.6531,-0.6681,-1.7001,-1.7001,-1.7001,-1.7001,-1.7001,-1.7001,-1.7001,-1.7001,-1.7001,-1.7001,-1.7001,-1.7001,-1.7001,-1.7001,-1.7001,-1.7001,-1.7001,-1.7001,-1.6969,-1.6915,-1.6694,-1.6581,-1.6471,-1.6147,-1.579,-1.5666,-1.5607,-1.5601,-1.5601,-1.5601,-1.5601,-1.5601,-1.5601,-1.5601,-1.5601,-1.5601,-1.5601,-1.5601,-1.5601,-1.5601,-1.5601,-1.5601,-1.5601,-1.5601,-1.5601,-1.5601,-1.5601,-1.5601,-1.5601,-1.5601,-1.5542,-1.5423,-1.5542,-1.5542,-1.5542,-1.5477,-1.5483,-1.524,-1.4689,-1.4446,-1.4316,-1.3539,-1.2945,-1.266,-1.2561,-1.1851,-1.1409,-1.1331,-1.1184,-1.1025,-1.0919,-1.0773,-1.0733,-1.0724,-1.0657,-1.0645,-1.0692,-1.0692,-1.0692,-1.0692,-1.0692,-1.0692,-1.0692,-1.0637,-1.0359,-0.986,-0.9471,-0.9196,-0.914,-0.9196,-0.8865,-0.8475,-0.8916,-0.9302,-0.8585,-0.7977,-0.7196,-0.6589,-0.6089,-0.5922,-0.6323,-0.6303,-0.6414,-0.6371,-0.6119,-0.5333,-0.4404,-0.4028,-0.3687,-0.4062,-0.4381,-0.4678,-0.5029,-0.5477,-0.5677,-1.7001,-1.7001,-1.7001,-1.7001,-1.7001,-1.7001,-1.7001,-1.7001,-1.7001,-1.7001,-1.7001,-1.7001,-1.7001,-1.7001,-1.7001,-1.7001,-1.7001,-1.7001,-1.7001,-1.6974,-1.6861,-1.677,-1.6709,-1.6466,-1.618,-1.5806,-1.5645,-1.5607,-1.5601,-1.5601,-1.5601,-1.5601,-1.5601,-1.5601,-1.5601,-1.5601,-1.5601,-1.5601,-1.5601,-1.5601,-1.5601,-1.5601,-1.5601,-1.5601,-1.5601,-1.5601,-1.5601,-1.5235,-1.5175,-1.5056,-1.4878,-1.5002,-1.5418,-1.5294,-1.5116,-1.5116,-1.4818,-1.4401,-1.3854,-1.3674,-1.3439,-1.2909,-1.2397,-1.2243,-1.2065,-1.1636,-1.1424,-1.1334,-1.1273,-1.1171,-1.1094,-1.1025,-1.0923,-1.0779,-1.0429,-1.0172,-1.0158,-1.0414,-1.0692,-1.0692,-1.0692,-1.0692,-1.0692,-1.0359,-0.9974,-0.942,-0.8751,-0.842,-0.8036,-0.8039,-0.7983,-0.7925,-0.8364,-0.8309,-0.7537,-0.6702,-0.5699,-0.5144,-0.47,-0.4756,-0.5133,-0.4962,-0.4681,-0.4755,-0.4879,-0.4075,-0.3262,-0.2897,-0.275,-0.2877,-0.316,-0.349,-0.3974,-0.4576,-0.4576,-1.7001,-1.7001,-1.7001,-1.7001,-1.7001,-1.7001,-1.7001,-1.7001,-1.7001,-1.7001,-1.7001,-1.7001,-1.7001,-1.7001,-1.7001,-1.7001,-1.7001,-1.7001,-1.7001,-1.699,-1.698,-1.6883,-1.6748,-1.6677,-1.6488,-1.6109,-1.5861,-1.5682,-1.5618,-1.5601,-1.5601,-1.5601,-1.5601,-1.5601,-1.5601,-1.5601,-1.5601,-1.5601,-1.5601,-1.5601,-1.5542,-1.5477,-1.5299,-1.5121,-1.5126,-1.5126,-1.5002,-1.4759,-1.4451,-1.4451,-1.3983,-1.4346,-1.4823,-1.4873,-1.4451,-1.4451,-1.4102,-1.3624,-1.308,-1.2779,-1.2543,-1.1893,-1.1828,-1.1828,-1.1784,-1.1698,-1.1561,-1.1484,-1.1411,-1.1285,-1.1265,-1.1191,-1.1126,-1.0875,-1.0205,-0.9616,-0.9609,-1.0118,-1.0351,-1.0414,-1.0304,-1.0249,-1.0025,-0.9691,-0.9364,-0.892,-0.8254,-0.759,-0.7152,-0.6988,-0.7099,-0.693,-0.7257,-0.6755,-0.5926,-0.5314,-0.4367,-0.4032,-0.3531,-0.3586,-0.3864,-0.3582,-0.341,-0.3625,-0.3541,-0.2853,-0.2446,-0.225,-0.2113,-0.1929,-0.2111,-0.2652,-0.3191,-0.3728,-0.3524,-1.7001,-1.7001,-1.7001,-1.7001,-1.7001,-1.7001,-1.7001,-1.7001,-1.7001,-1.7001,-1.7001,-1.7001,-1.7001,-1.7001,-1.7001,-1.7001,-1.7001,-1.7001,-1.7001,-1.7001,-1.7001,-1.6947,-1.6904,-1.6828,-1.6614,-1.6515,-1.6196,-1.5899,-1.5655,-1.5601,-1.5601,-1.5601,-1.5601,-1.5601,-1.5601,-1.5601,-1.5542,-1.5477,-1.5542,-1.5601,-1.5299,-1.4997,-1.4575,-1.4282,-1.4227,-1.4227,-1.4107,-1.3988,-1.3868,-1.3808,-1.3744,-1.3803,-1.3928,-1.3868,-1.3803,-1.3803,-1.3624,-1.3204,-1.2719,-1.2599,-1.2367,-1.1953,-1.1837,-1.1837,-1.1764,-1.1744,-1.1699,-1.1663,-1.1561,-1.1451,-1.1447,-1.1237,-1.1178,-1.0896,-1.0191,-0.9563,-0.9437,-0.9497,-0.957,-0.945,-0.9521,-0.9585,-0.9306,-0.8865,-0.8315,-0.7873,-0.7263,-0.6707,-0.6212,-0.627,-0.6437,-0.6209,-0.5926,-0.5146,-0.4257,-0.3754,-0.3139,-0.3026,-0.2691,-0.2466,-0.2522,-0.2242,-0.224,-0.2738,-0.2733,-0.2275,-0.1922,-0.1792,-0.1768,-0.1795,-0.1928,-0.2004,-0.2397,-0.2787,-0.2472,-1.7001,-1.7001,-1.7001,-1.7001,-1.7001,-1.7001,-1.7001,-1.7001,-1.7001,-1.7001,-1.7001,-1.7001,-1.7001,-1.7001,-1.7001,-1.7001,-1.7001,-1.7001,-1.7001,-1.7001,-1.7001,-1.7001,-1.7001,-1.6872,-1.6764,-1.6635,-1.6461,-1.6163,-1.579,-1.5655,-1.5618,-1.5601,-1.5601,-1.5601,-1.5601,-1.5601,-1.5359,-1.5235,-1.5359,-1.524,-1.4704,-1.4277,-1.3983,-1.3803,-1.3688,-1.3688,-1.3629,-1.3324,-1.3204,-1.3144,-1.2913,-1.2733,-1.2733,-1.2793,-1.2909,-1.3084,-1.2909,-1.2672,-1.2311,-1.2251,-1.2074,-1.1897,-1.1837,-1.1837,-1.1837,-1.1833,-1.1837,-1.1812,-1.1732,-1.1642,-1.1642,-1.1122,-1.0757,-1.0321,-0.9424,-0.8598,-0.8329,-0.8293,-0.8289,-0.8436,-0.8966,-0.9019,-0.853,-0.798,-0.7265,-0.6768,-0.6325,-0.5882,-0.5437,-0.5547,-0.5824,-0.5431,-0.5037,-0.4311,-0.3475,-0.2973,-0.2468,-0.23,-0.2188,-0.1907,-0.1795,-0.1851,-0.1963,-0.2297,-0.2013,-0.1787,-0.1776,-0.1813,-0.1788,-0.1762,-0.179,-0.1818,-0.1748,-0.1683,-0.1624,-1.7001,-1.7001,-1.7001,-1.7001,-1.7001,-1.7001,-1.7001,-1.7001,-1.7001,-1.7001,-1.7001,-1.7001,-1.7001,-1.7001,-1.7001,-1.7001,-1.7001,-1.7001,-1.7001,-1.7001,-1.7001,-1.7001,-1.7001,-1.6985,-1.6904,-1.6775,-1.663,-1.6477,-1.6028,-1.5779,-1.5666,-1.5612,-1.5601,-1.5477,-1.5418,-1.5294,-1.4992,-1.4813,-1.4873,-1.4585,-1.3803,-1.3629,-1.3509,-1.3329,-1.3329,-1.3273,-1.3093,-1.2788,-1.2543,-1.2427,-1.2191,-1.1897,-1.1837,-1.1837,-1.2014,-1.2307,-1.2014,-1.1837,-1.1837,-1.1837,-1.1897,-1.1837,-1.1837,-1.1837,-1.1837,-1.1837,-1.1837,-1.1837,-1.1768,-1.1575,-1.1318,-1.0781,-1.0233,-0.9496,-0.8372,-0.7267,-0.7297,-0.7245,-0.7166,-0.7541,-0.8323,-0.8314,-0.7791,-0.7096,-0.6379,-0.627,-0.5882,-0.577,-0.5382,-0.51,-0.5098,-0.4651,-0.4203,-0.353,-0.2971,-0.2579,-0.2188,-0.2019,-0.1963,-0.1851,-0.1795,-0.1795,-0.1963,-0.2018,-0.1962,-0.179,-0.1784,-0.1777,-0.1811,-0.1785,-0.1756,-0.173,-0.171,-0.1643,-0.1634,-1.7001,-1.7001,-1.7001,-1.7001,-1.7001,-1.7001,-1.7001,-1.7001,-1.7001,-1.7001,-1.7001,-1.7001,-1.7001,-1.7001,-1.7001,-1.7001,-1.7001,-1.7001,-1.7001,-1.7001,-1.7001,-1.7001,-1.7001,-1.7001,-1.6985,-1.6894,-1.6754,-1.6455,-1.6147,-1.6007,-1.579,-1.5666,-1.5558,-1.5353,-1.4873,-1.4867,-1.4396,-1.3923,-1.3863,-1.3564,-1.3084,-1.3329,-1.2969,-1.2432,-1.2134,-1.2195,-1.2255,-1.207,-1.2014,-1.1953,-1.1893,-1.1837,-1.1837,-1.1837,-1.1837,-1.1897,-1.1837,-1.1837,-1.1837,-1.1837,-1.1837,-1.1776,-1.1716,-1.1776,-1.1651,-1.1651,-1.1655,-1.1837,-1.1776,-1.1285,-1.0611,-1.0304,-0.9798,-0.8933,-0.7876,-0.7228,-0.71,-0.6717,-0.6577,-0.6469,-0.7243,-0.7227,-0.6953,-0.6177,-0.5547,-0.5491,-0.5493,-0.5442,-0.527,-0.5044,-0.4372,-0.3868,-0.3589,-0.3027,-0.2579,-0.2187,-0.2019,-0.1795,-0.1795,-0.1795,-0.1795,-0.1795,-0.1795,-0.1851,-0.1795,-0.1795,-0.179,-0.1783,-0.1774,-0.1811,-0.1785,-0.1753,-0.172,-0.1707,-0.1644,-1.7001,-1.7001,-1.7001,-1.7001,-1.7001,-1.7001,-1.7001,-1.7001,-1.7001,-1.7001,-1.7001,-1.7001,-1.7001,-1.7001,-1.7001,-1.7001,-1.7001,-1.7001,-1.7001,-1.7001,-1.7001,-1.7001,-1.7001,-1.7001,-1.7001,-1.6974,-1.6894,-1.6727,-1.6439,-1.6136,-1.5936,-1.5795,-1.5612,-1.5294,-1.457,-1.457,-1.3973,-1.338,-1.2848,-1.2668,-1.2664,-1.2608,-1.2376,-1.1837,-1.1837,-1.1837,-1.1837,-1.1837,-1.1837,-1.1837,-1.1837,-1.1837,-1.1837,-1.1837,-1.1837,-1.1837,-1.1837,-1.1837,-1.1837,-1.1776,-1.1776,-1.1591,-1.1345,-1.0917,-1.0921,-1.0982,-1.0978,-1.0917,-1.0978,-1.0486,-0.9572,-0.8961,-0.8535,-0.7864,-0.7194,-0.6872,-0.6593,-0.6472,-0.6265,-0.6097,-0.6049,-0.6285,-0.6401,-0.5996,-0.5569,-0.5514,-0.5441,-0.5366,-0.5178,-0.4931,-0.4036,-0.303,-0.2861,-0.2636,-0.2243,-0.1907,-0.1963,-0.1795,-0.1795,-0.1795,-0.1795,-0.1795,-0.1795,-0.1795,-0.1795,-0.1795,-0.1795,-0.1791,-0.1784,-0.1773,-0.1816,-0.1781,-0.1747,-0.1717,-0.1651,-1.7001,-1.7001,-1.7001,-1.7001,-1.7001,-1.7001,-1.7001,-1.7001,-1.7001,-1.7001,-1.7001,-1.7001,-1.7001,-1.7001,-1.7001,-1.7001,-1.7001,-1.7001,-1.7001,-1.7001,-1.7001,-1.7001,-1.7001,-1.7001,-1.7001,-1.7001,-1.6985,-1.6877,-1.6667,-1.6439,-1.618,-1.5957,-1.5555,-1.5004,-1.4525,-1.4033,-1.3439,-1.2543,-1.2307,-1.2307,-1.2363,-1.2247,-1.2014,-1.1833,-1.1837,-1.1837,-1.1837,-1.1837,-1.1837,-1.1837,-1.1837,-1.1837,-1.1837,-1.1837,-1.1837,-1.1837,-1.1837,-1.1595,-1.153,-1.153,-1.1595,-1.1224,-1.0547,-0.9937,-0.9937,-1.0058,-1.0061,-0.9997,-1.0304,-0.9694,-0.8653,-0.7861,-0.7497,-0.7011,-0.6403,-0.6099,-0.5916,-0.6025,-0.6077,-0.5987,-0.5954,-0.5885,-0.5957,-0.5803,-0.5669,-0.5567,-0.5455,-0.5358,-0.4921,-0.4494,-0.3589,-0.2526,-0.2356,-0.2244,-0.2075,-0.1795,-0.1795,-0.1795,-0.1795,-0.1795,-0.1795,-0.1795,-0.1795,-0.1795,-0.1795,-0.1795,-0.1795,-0.1795,-0.1794,-0.1785,-0.1773,-0.1806,-0.1776,-0.1741,-0.1707,-1.7001,-1.7001,-1.7001,-1.7001,-1.7001,-1.7001,-1.7001,-1.7001,-1.7001,-1.7001,-1.7001,-1.7001,-1.7001,-1.7001,-1.7001,-1.7001,-1.7001,-1.7001,-1.7001,-1.7001,-1.7001,-1.7001,-1.7001,-1.7001,-1.7001,-1.7001,-1.7001,-1.699,-1.6926,-1.6694,-1.6401,-1.6,-1.5481,-1.4595,-1.3875,-1.3287,-1.2733,-1.2191,-1.2191,-1.2191,-1.2191,-1.2191,-1.2247,-1.1893,-1.1837,-1.1837,-1.1837,-1.1837,-1.1837,-1.1837,-1.1837,-1.1837,-1.1837,-1.1651,-1.1591,-1.153,-1.1345,-1.0982,-1.0675,-1.1039,-1.1163,-1.0429,-0.9569,-0.8897,-0.8961,-0.9754,-0.9754,-0.9079,-0.9387,-0.9022,-0.8108,-0.7375,-0.6827,-0.6464,-0.6099,-0.6039,-0.5919,-0.5916,-0.5972,-0.5912,-0.5902,-0.588,-0.5876,-0.5831,-0.5761,-0.5659,-0.5217,-0.5119,-0.4203,-0.3665,-0.2923,-0.219,-0.1964,-0.1907,-0.1907,-0.1795,-0.1795,-0.1795,-0.1795,-0.1795,-0.1795,-0.1795,-0.1795,-0.1795,-0.1795,-0.1795,-0.1795,-0.1795,-0.1795,-0.1795,-0.1785,-0.1765,-0.1787,-0.1748,-0.1661,-1.7001,-1.7001,-1.7001,-1.7001,-1.7001,-1.7001,-1.7001,-1.7001,-1.7001,-1.7001,-1.7001,-1.7001,-1.7001,-1.7001,-1.7001,-1.7001,-1.7001,-1.7001,-1.7001,-1.7001,-1.7001,-1.7001,-1.7001,-1.7001,-1.7001,-1.7001,-1.7001,-1.7001,-1.698,-1.6883,-1.6392,-1.582,-1.5323,-1.4374,-1.3502,-1.2634,-1.2099,-1.1962,-1.2018,-1.2018,-1.1953,-1.1957,-1.2014,-1.1833,-1.1837,-1.1837,-1.1837,-1.1837,-1.1837,-1.1837,-1.1837,-1.1837,-1.1651,-1.1285,-1.0978,-1.0857,-1.049,-0.9876,-0.9694,-1.0122,-1.0183,-0.8778,-0.8166,-0.7922,-0.7925,-0.841,-0.8349,-0.8166,-0.8349,-0.7983,-0.6891,-0.6464,-0.6283,-0.5978,-0.5919,-0.5919,-0.5919,-0.5919,-0.5919,-0.5916,-0.5916,-0.5908,-0.5908,-0.5908,-0.5831,-0.5747,-0.5242,-0.4698,-0.3899,-0.3064,-0.2433,-0.2027,-0.1855,-0.1795,-0.1795,-0.1795,-0.1795,-0.1795,-0.1795,-0.1795,-0.1795,-0.1795,-0.1795,-0.1795,-0.1795,-0.1795,-0.1795,-0.1795,-0.1795,-0.1795,-0.179,-0.178,-0.1798,-0.1757,-0.1673,-1.7001,-1.7001,-1.7001,-1.7001,-1.7001,-1.7001,-1.7001,-1.7001,-1.7001,-1.7001,-1.7001,-1.7001,-1.7001,-1.7001,-1.7001,-1.7001,-1.7001,-1.7001,-1.7001,-1.7001,-1.7001,-1.7001,-1.7001,-1.7001,-1.7001,-1.7001,-1.7001,-1.7001,-1.7001,-1.7001,-1.6502,-1.5903,-1.5321,-1.4306,-1.3301,-1.2373,-1.1906,-1.1861,-1.1849,-1.1809,-1.1797,-1.1837,-1.1837,-1.1837,-1.1837,-1.1837,-1.1837,-1.1837,-1.1837,-1.1837,-1.1837,-1.1837,-1.147,-1.0978,-1.0429,-0.994,-0.9451,-0.8717,-0.8656,-0.8778,-0.8836,-0.7861,-0.7133,-0.7011,-0.7011,-0.7192,-0.7495,-0.7074,-0.7192,-0.7008,-0.6039,-0.5978,-0.6039,-0.5919,-0.5919,-0.5919,-0.5919,-0.5919,-0.5919,-0.5916,-0.5919,-0.5919,-0.5919,-0.5914,-0.5859,-0.5551,-0.4838,-0.4413,-0.3835,-0.3049,-0.2226,-0.1929,-0.1803,-0.1799,-0.1795,-0.1795,-0.1795,-0.1795,-0.1795,-0.1795,-0.1795,-0.1795,-0.1795,-0.1795,-0.1795,-0.1795,-0.1795,-0.1795,-0.1795,-0.1795,-0.179,-0.1786,-0.1814,-0.1775,-0.1745,-1.7001,-1.7001,-1.7001,-1.7001,-1.7001,-1.7001,-1.7001,-1.7001,-1.7001,-1.7001,-1.7001,-1.7001,-1.7001,-1.7001,-1.7001,-1.7001,-1.7001,-1.7001,-1.7001,-1.7001,-1.7001,-1.7001,-1.7001,-1.7001,-1.7001,-1.7001,-1.7001,-1.7001,-1.7001,-1.7001,-1.6586,-1.5869,-1.5187,-1.4267,-1.3321,-1.2603,-1.2194,-1.2052,-1.1966,-1.1947,-1.1878,-1.1857,-1.1857,-1.1817,-1.1821,-1.1825,-1.1841,-1.1837,-1.1837,-1.1837,-1.1837,-1.1716,-1.147,-1.0611,-1.0061,-0.9876,-0.9086,-0.823,-0.7559,-0.7495,-0.7373,-0.7192,-0.6585,-0.6221,-0.6221,-0.6585,-0.695,-0.6405,-0.6705,-0.6766,-0.6283,-0.5919,-0.5919,-0.5919,-0.5919,-0.5919,-0.5919,-0.5919,-0.5919,-0.5919,-0.5919,-0.5919,-0.5919,-0.5908,-0.587,-0.546,-0.4585,-0.4,-0.3714,-0.2924,-0.209,-0.1886,-0.1814,-0.1804,-0.18,-0.1795,-0.1795,-0.1795,-0.1795,-0.1795,-0.1795,-0.1795,-0.1795,-0.1795,-0.1795,-0.1795,-0.1795,-0.1795,-0.1795,-0.1795,-0.1795,-0.1787,-0.1818,-0.1795,-0.1768,-1.7001,-1.7001,-1.7001,-1.7001,-1.7001,-1.7001,-1.7001,-1.7001,-1.7001,-1.7001,-1.7001,-1.7001,-1.7001,-1.7001,-1.7001,-1.7001,-1.7001,-1.7001,-1.7001,-1.7001,-1.7001,-1.7001,-1.7001,-1.7001,-1.7001,-1.7001,-1.7001,-1.7001,-1.7001,-1.7001,-1.6618,-1.5904,-1.4973,-1.3799,-1.3007,-1.2453,-1.2255,-1.2223,-1.2211,-1.2182,-1.2134,-1.2109,-1.206,-1.1951,-1.1947,-1.1906,-1.1825,-1.1825,-1.1821,-1.1817,-1.1877,-1.155,-1.0933,-0.995,-0.9083,-0.8474,-0.75,-0.683,-0.6464,-0.6403,-0.6401,-0.628,-0.616,-0.5919,-0.5978,-0.616,-0.6099,-0.6039,-0.6283,-0.6221,-0.5978,-0.5919,-0.5919,-0.5919,-0.5919,-0.5919,-0.5919,-0.5919,-0.5919,-0.5919,-0.5919,-0.5919,-0.5919,-0.5919,-0.5886,-0.5569,-0.4752,-0.4177,-0.3831,-0.2802,-0.1895,-0.1854,-0.1829,-0.1814,-0.1804,-0.18,-0.1795,-0.1795,-0.1795,-0.1795,-0.1795,-0.1795,-0.1795,-0.1795,-0.1795,-0.1795,-0.1795,-0.1795,-0.1795,-0.1795,-0.1795,-0.1795,-0.1781,-0.1817,-0.1796,-1.7001,-1.7001,-1.7001,-1.7001,-1.7001,-1.7001,-1.7001,-1.7001,-1.7001,-1.7001,-1.7001,-1.7001,-1.7001,-1.7001,-1.7001,-1.7001,-1.7001,-1.7001,-1.7001,-1.7001,-1.7001,-1.7001,-1.7001,-1.7001,-1.7001,-1.7001,-1.7001,-1.7001,-1.7001,-1.7001,-1.6618,-1.5839,-1.4856,-1.407,-1.3293,-1.2818,-1.2471,-1.2434,-1.2389,-1.2349,-1.2304,-1.2268,-1.2231,-1.2158,-1.2113,-1.2085,-1.1996,-1.1955,-1.1955,-1.1939,-1.178,-1.1374,-1.0379,-0.9358,-0.836,-0.7436,-0.6526,-0.6037,-0.5978,-0.5978,-0.6039,-0.5978,-0.5919,-0.5919,-0.5919,-0.5978,-0.5978,-0.5919,-0.5919,-0.5919,-0.5919,-0.5919,-0.5919,-0.5919,-0.5919,-0.5919,-0.5919,-0.5919,-0.5919,-0.5919,-0.5919,-0.5919,-0.5919,-0.5919,-0.5908,-0.5479,-0.4986,-0.4462,-0.3886,-0.284,-0.1983,-0.1828,-0.1792,-0.1774,-0.1816,-0.1802,-0.1799,-0.1795,-0.1795,-0.1795,-0.1795,-0.1795,-0.1795,-0.1795,-0.1795,-0.1795,-0.1795,-0.1795,-0.1795,-0.1795,-0.1795,-0.1795,-0.1795,-0.1781,-0.1818,-1.7001,-1.7001,-1.7001,-1.7001,-1.7001,-1.7001,-1.7001,-1.7001,-1.7001,-1.7001,-1.7001,-1.7001,-1.7001,-1.7001,-1.7001,-1.7001,-1.7001,-1.7001,-1.7001,-1.7001,-1.7001,-1.7001,-1.7001,-1.7001,-1.7001,-1.7001,-1.7001,-1.7001,-1.7001,-1.7001,-1.6618,-1.6034,-1.5187,-1.4441,-1.3827,-1.2939,-1.2609,-1.2536,-1.2572,-1.2519,-1.2458,-1.2393,-1.2373,-1.2328,-1.23,-1.2276,-1.2231,-1.2219,-1.2109,-1.2077,-1.1935,-1.1251,-1.0431,-0.9348,-0.8384,-0.7383,-0.6355,-0.6039,-0.5919,-0.5919,-0.5919,-0.5919,-0.5919,-0.5919,-0.5919,-0.5919,-0.5919,-0.5919,-0.5919,-0.5919,-0.5919,-0.5919,-0.5919,-0.5919,-0.5919,-0.5919,-0.5919,-0.5919,-0.5919,-0.5919,-0.5919,-0.5919,-0.5919,-0.5919,-0.5857,-0.5607,-0.5176,-0.4739,-0.4035,-0.2982,-0.2239,-0.1861,-0.1825,-0.1793,-0.1776,-0.1817,-0.1802,-0.1799,-0.1795,-0.1795,-0.1795,-0.1795,-0.1795,-0.1795,-0.1795,-0.1795,-0.1795,-0.1795,-0.1795,-0.1795,-0.1795,-0.1795,-0.1795,-0.1795,-0.178,-1.7001,-1.7001,-1.7001,-1.7001,-1.7001,-1.7001,-1.7001,-1.7001,-1.7001,-1.7001,-1.7001,-1.7001,-1.7001,-1.7001,-1.7001,-1.7001,-1.7001,-1.7001,-1.7001,-1.7001,-1.7001,-1.7001,-1.7001,-1.7001,-1.7001,-1.7001,-1.7001,-1.7001,-1.7001,-1.7001,-1.6872,-1.6618,-1.5318,-1.4735,-1.3809,-1.2618,-1.2517,-1.2493,-1.2534,-1.2625,-1.2596,-1.2637,-1.2588,-1.2519,-1.2491,-1.245,-1.2377,-1.2349,-1.2087,-1.1344,-1.1177,-1.0447,-0.8479,-0.8067,-0.7534,-0.6567,-0.6025,-0.5919,-0.5919,-0.5919,-0.5919,-0.5919,-0.5919,-0.5919,-0.5919,-0.5919,-0.5919,-0.5919,-0.5919,-0.5919,-0.5919,-0.5919,-0.5919,-0.5919,-0.5919,-0.5919,-0.5919,-0.5919,-0.5919,-0.5919,-0.5919,-0.5919,-0.5919,-0.5919,-0.5855,-0.5671,-0.5423,-0.4989,-0.4246,-0.3246,-0.2562,-0.218,-0.1856,-0.1824,-0.1795,-0.1776,-0.1816,-0.1802,-0.1799,-0.1795,-0.1795,-0.1795,-0.1795,-0.1795,-0.1795,-0.1795,-0.1795,-0.1795,-0.1795,-0.1795,-0.1795,-0.1795,-0.1795,-0.1795,-0.1795,-1.7001,-1.7001,-1.7001,-1.7001,-1.7001,-1.7001,-1.7001,-1.7001,-1.7001,-1.7001,-1.7001,-1.7001,-1.7001,-1.7001,-1.7001,-1.7001,-1.7001,-1.7001,-1.7001,-1.7001,-1.7001,-1.7001,-1.7001,-1.7001,-1.7001,-1.7001,-1.7001,-1.7001,-1.6872,-1.6348,-1.6089,-1.5959,-1.4987,-1.4137,-1.3214,-1.2285,-1.196,-1.2022,-1.2157,-1.2433,-1.2634,-1.277,-1.2755,-1.2694,-1.2666,-1.2588,-1.2455,-1.2435,-1.1853,-1.1059,-1.0856,-0.9838,-0.8023,-0.7355,-0.6935,-0.6153,-0.6027,-0.5928,-0.5914,-0.5935,-0.5925,-0.5919,-0.5919,-0.5919,-0.5919,-0.5919,-0.5919,-0.5919,-0.5919,-0.5919,-0.5919,-0.5919,-0.5919,-0.5919,-0.5919,-0.5919,-0.5919,-0.5919,-0.5919,-0.5919,-0.5919,-0.5919,-0.5919,-0.5919,-0.5857,-0.5794,-0.5607,-0.5298,-0.4559,-0.3568,-0.2946,-0.2567,-0.2179,-0.1854,-0.1884,-0.1854,-0.1776,-0.1814,-0.1801,-0.1798,-0.1796,-0.1795,-0.1795,-0.1795,-0.1795,-0.1795,-0.1795,-0.1795,-0.1795,-0.1795,-0.1795,-0.1795,-0.1795,-0.1795,-0.1794,-1.7001,-1.7001,-1.7001,-1.7001,-1.7001,-1.7001,-1.7001,-1.7001,-1.7001,-1.7001,-1.7001,-1.7001,-1.7001,-1.7001,-1.7001,-1.7001,-1.7001,-1.7001,-1.7001,-1.7001,-1.7001,-1.7001,-1.7001,-1.7001,-1.7001,-1.7001,-1.7001,-1.7001,-1.6548,-1.5694,-1.4777,-1.4782,-1.3997,-1.3083,-1.1894,-1.1428,-1.1101,-1.1035,-1.1035,-1.1233,-1.2437,-1.277,-1.277,-1.2758,-1.275,-1.2738,-1.261,-1.2421,-1.2103,-1.1311,-1.0461,-0.9465,-0.8063,-0.6895,-0.6402,-0.6232,-0.6108,-0.6076,-0.5978,-0.5996,-0.5955,-0.5877,-0.5921,-0.5919,-0.5919,-0.5919,-0.5919,-0.5919,-0.5919,-0.5919,-0.5919,-0.5919,-0.5919,-0.5919,-0.5919,-0.5919,-0.5919,-0.5919,-0.5919,-0.5919,-0.5919,-0.5919,-0.5919,-0.5919,-0.5919,-0.5857,-0.5794,-0.5485,-0.4991,-0.4067,-0.351,-0.3136,-0.2628,-0.2238,-0.209,-0.2058,-0.1852,-0.1774,-0.1812,-0.1799,-0.1795,-0.1795,-0.1795,-0.1795,-0.1795,-0.1795,-0.1795,-0.1795,-0.1795,-0.1795,-0.1795,-0.1795,-0.1795,-0.1795,-0.1795,-1.7001,-1.7001,-1.7001,-1.7001,-1.7001,-1.7001,-1.7001,-1.7001,-1.7001,-1.7001,-1.7001,-1.7001,-1.7001,-1.7001,-1.7001,-1.7001,-1.7001,-1.7001,-1.7001,-1.7001,-1.7001,-1.7001,-1.6936,-1.6807,-1.6872,-1.7001,-1.7001,-1.6608,-1.6084,-1.4772,-1.3787,-1.445,-1.3337,-1.1824,-1.0836,-1.0439,-0.9975,-0.9975,-0.9573,-1.0435,-1.2169,-1.2704,-1.277,-1.277,-1.2704,-1.2169,-1.1967,-1.1497,-1.0435,-0.9157,-0.8817,-0.7944,-0.6883,-0.6462,-0.6292,-0.6268,-0.6202,-0.6163,-0.6127,-0.6076,-0.5966,-0.5932,-0.5974,-0.5935,-0.5919,-0.5919,-0.5919,-0.5919,-0.5919,-0.5919,-0.5919,-0.5919,-0.5919,-0.5919,-0.5919,-0.5919,-0.5919,-0.5919,-0.5919,-0.5919,-0.5919,-0.5919,-0.5919,-0.5919,-0.5919,-0.5919,-0.5857,-0.5732,-0.5546,-0.493,-0.4375,-0.3879,-0.3143,-0.2749,-0.2536,-0.2145,-0.1935,-0.1786,-0.1821,-0.1808,-0.1796,-0.1795,-0.1795,-0.1795,-0.1795,-0.1795,-0.1795,-0.1795,-0.1795,-0.1795,-0.1795,-0.1795,-0.1795,-0.1795,-0.1795,-1.7001,-1.7001,-1.7001,-1.7001,-1.7001,-1.7001,-1.7001,-1.7001,-1.7001,-1.7001,-1.7001,-1.7001,-1.7001,-1.7001,-1.7001,-1.6936,-1.6936,-1.7001,-1.7001,-1.7001,-1.6807,-1.7001,-1.6872,-1.6353,-1.6024,-1.6019,-1.5359,-1.4898,-1.4898,-1.3329,-1.2347,-1.2873,-1.1692,-1.0767,-0.9908,-0.9047,-0.8911,-0.8845,-0.8246,-0.9374,-1.1439,-1.1769,-1.2033,-1.2103,-1.1901,-1.1435,-1.0836,-1.0435,-0.9507,-0.8312,-0.7774,-0.7312,-0.664,-0.6469,-0.638,-0.6353,-0.6302,-0.6241,-0.6217,-0.617,-0.6051,-0.6084,-0.5966,-0.593,-0.5914,-0.591,-0.5921,-0.5919,-0.5919,-0.5919,-0.5919,-0.5919,-0.5919,-0.5919,-0.5919,-0.5919,-0.5919,-0.5919,-0.5919,-0.5919,-0.5919,-0.5919,-0.5919,-0.5919,-0.5919,-0.5919,-0.5919,-0.5919,-0.5732,-0.5607,-0.5114,-0.4621,-0.3821,-0.3204,-0.2812,-0.2351,-0.1899,-0.1866,-0.189,-0.1814,-0.1802,-0.1797,-0.1795,-0.1795,-0.1795,-0.1795,-0.1795,-0.1795,-0.1795,-0.1795,-0.1795,-0.1795,-0.1795,-0.1795,-0.1795,-1.7001,-1.7001,-1.7001,-1.7001,-1.7001,-1.7001,-1.7001,-1.7001,-1.7001,-1.7001,-1.7001,-1.7001,-1.7001,-1.7001,-1.7001,-1.6872,-1.6678,-1.6413,-1.6543,-1.6148,-1.6143,-1.5754,-1.5429,-1.5168,-1.4838,-1.418,-1.339,-1.3259,-1.3259,-1.1552,-1.0502,-1.0571,-1.0174,-0.951,-0.8518,-0.8382,-0.8776,-0.8112,-0.7846,-0.8312,-0.944,-1.0435,-1.0836,-1.0969,-1.0902,-1.0439,-0.9775,-0.9244,-0.8778,-0.7982,-0.7051,-0.6786,-0.6587,-0.6508,-0.651,-0.6415,-0.6376,-0.6339,-0.6315,-0.6253,-0.6217,-0.6176,-0.6043,-0.5992,-0.5972,-0.5928,-0.5939,-0.5919,-0.5919,-0.5919,-0.5919,-0.5919,-0.5919,-0.5919,-0.5919,-0.5919,-0.5919,-0.5919,-0.5919,-0.5919,-0.5919,-0.5919,-0.5919,-0.5919,-0.5919,-0.5919,-0.5919,-0.5919,-0.5857,-0.5794,-0.5546,-0.5053,-0.4436,-0.3817,-0.3383,-0.2858,-0.2451,-0.2185,-0.2206,-0.2001,-0.1806,-0.1799,-0.1795,-0.1795,-0.1795,-0.1795,-0.1795,-0.1795,-0.1795,-0.1795,-0.1795,-0.1795,-0.1795,-0.1795,-0.1795,-1.7001,-1.7001,-1.7001,-1.7001,-1.7001,-1.7001,-1.7001,-1.7001,-1.7001,-1.7001,-1.7001,-1.7001,-1.7001,-1.7001,-1.7001,-1.6678,-1.6024,-1.5759,-1.4572,-1.3713,-1.4441,-1.4045,-1.3652,-1.3652,-1.3325,-1.2602,-1.1882,-1.1882,-1.1681,-1.0104,-0.9579,-1.0502,-0.9383,-0.872,-0.8256,-0.8187,-0.7917,-0.7383,-0.7183,-0.745,-0.8312,-0.9108,-0.9775,-0.9908,-0.9908,-0.9178,-0.8576,-0.831,-0.7715,-0.7051,-0.6654,-0.652,-0.652,-0.652,-0.652,-0.6518,-0.6417,-0.6415,-0.6378,-0.6331,-0.6298,-0.6276,-0.613,-0.6021,-0.5984,-0.5988,-0.5947,-0.5921,-0.5919,-0.5919,-0.5919,-0.5919,-0.5919,-0.5919,-0.5919,-0.5919,-0.5919,-0.5919,-0.5919,-0.5919,-0.5919,-0.5919,-0.5919,-0.5919,-0.5919,-0.5919,-0.5919,-0.5919,-0.5919,-0.5919,-0.5919,-0.5485,-0.4928,-0.4865,-0.4555,-0.3719,-0.3247,-0.2915,-0.2523,-0.2242,-0.1982,-0.1799,-0.1795,-0.1795,-0.1795,-0.1795,-0.1795,-0.1795,-0.1795,-0.1795,-0.1795,-0.1795,-0.1795,-0.1795,-0.1795]},{"header":{"parameterUnit":"m.s-1","parameterCategory":1,"la1":31.0,"la2":29.5877,"lo1":-88.7671,"lo2":-86.6584,"dy":0.0162,"dx":0.0185,"nx":115,"ny":88,"refTime":"2023-03-28T12:00:00:Z","depth":0,"parameterNumber":3,"parameterNumberName":"V-component_of_WINDS"},"data":[0.0,0.0,0.0,0.0,0.0,0.0,0.0,0.0,0.0,0.0,0.0,0.0,0.0,0.0,0.0,0.0,0.0,0.0,0.0,0.0,0.0,0.0,0.0,0.0,0.0,0.0,0.0,0.0,0.0,0.0,0.0,0.0,0.0,0.0,0.0,0.0,0.0,0.0,0.0,0.0,0.0,0.0,0.0,0.0,0.0,0.0,0.0,0.0,0.0,0.0,0.0,0.0,0.0,0.0,0.0,0.0,0.0,0.0,0.0,0.0,0.0,0.0,0.0,0.0,0.0,0.0,0.0,0.0,0.0,0.0,0.0,0.0,0.0,0.0,0.0,0.0,0.0,0.0,0.0,0.0,0.0,0.0,0.0,0.0,0.0,0.0,0.0,0.0,0.0,0.0,0.0,0.0,0.0,0.0,0.0,0.0,0.0,0.0,0.0,0.0,0.0,0.0,0.0,0.0,0.0,0.0,0.0,0.0,0.0,0.0,0.0,0.0,0.0,0.0,0.0,0.0,0.0,0.0,0.0,0.0,0.0,0.0,0.0,0.0,0.0,0.0,0.0,0.0,0.0,0.0,0.0,0.0,0.0,0.0,0.0,0.0,0.0,0.0,0.0,0.0,0.0,0.0,0.0,0.0,0.0,0.0,0.0,0.0,0.0,0.0,0.0,0.0,0.0,0.0,0.0,0.0,0.0,0.0,0.0,0.0,0.0,0.0,0.0,0.0,0.0,0.0,0.0,0.0,0.0,0.0,0.0,0.0,0.0,0.0,0.0,0.0,0.0,0.0,0.0,0.0,0.0,0.0,0.0,0.0,0.0,0.0,0.0,0.0,0.0,0.0,0.0,0.0,0.0,0.0,0.0,0.0,0.0,0.0,0.0,0.0,0.0,0.0,0.0,0.0,0.0,0.0,0.0,0.0,0.0,0.0,0.0,0.0,0.0,0.0,0.0,0.0,0.0,0.0,0.0,0.0,0.0,0.0,0.0,0.0,0.0,0.0,0.0,0.0,0.0,0.0,0.0,0.0,0.0,0.0,0.0,0.0,0.0,0.0,0.0,0.0,0.0,0.0,0.0,0.0,0.0,0.0,0.0,0.0,0.0,0.0,0.0,0.0,0.0,0.0,0.0,0.0,0.0,0.0,0.0,0.0,0.0,0.0,0.0,0.0,0.0,0.0,0.0,0.0,0.0,0.0,0.0,0.0,0.0,0.0,0.0,0.0,0.0,0.0,0.0,0.0,0.0,0.0,0.0,0.0,0.0,0.0,0.0,0.0,0.0,0.0,0.0,0.0,0.0,0.0,0.0,0.0,0.0,0.0,0.0,0.0,0.0,0.0,0.0,0.0,0.0,0.0,0.0,0.0,0.0,0.0,0.0,0.0,0.0,0.0,0.0,0.0,0.0,0.0,0.0,0.0,0.0,0.0,0.0,0.0,0.0,0.0,0.0,0.0,0.0,0.0,0.0,0.0,0.0,0.0,0.0,0.0,0.0,0.0,0.0,0.0,0.0,0.0,0.0,0.0,0.0,0.0,0.0,0.0,0.0,0.0,0.0,0.0,0.0,0.0,0.0,0.0,0.0,0.0,0.0,0.0,0.0,0.0,0.0,0.0,0.0,0.0,0.0,0.0,0.0,0.0,0.0,0.0,0.0,0.0,0.0,0.0,0.0,0.0,0.0,0.0,0.0,0.0,0.0,0.0,0.0,0.0,0.0,0.0,0.0,0.0,0.0,0.0,0.0,0.0,0.0,0.0,0.0,0.0,0.0,0.0,0.0,0.0,0.0,0.0,0.0,0.0,0.0,0.0,0.0,0.0,0.0,0.0,0.0,0.0,0.0,0.0,0.0,0.0,0.0,0.0,0.0,0.0,0.0,0.0,0.0,0.0,0.0,0.0,0.0,0.0,0.0,0.0,0.0,0.0,0.0,0.0,0.0,0.0,0.0,0.0,0.0,0.0,0.0,0.0,0.0,0.0,0.0,0.0,0.0,0.0,0.0,0.0,0.0,0.0,0.0,0.0,0.0,0.0,0.0,0.0,0.0,0.0,0.0,0.0,0.0,0.0,0.0,0.0,0.0,0.0,0.0,0.0,0.0,0.0,0.0,0.0,0.0,0.0,0.0,0.0,0.0,0.0,0.0,0.0,0.0,0.0,0.0,0.0,0.0,0.0,0.0,0.0,0.0,0.0,0.0,0.0,0.0,0.0,0.0,0.0,0.0,0.0,0.0,0.0,0.0,0.0,0.0,0.0,0.0,0.0,0.0,0.0,0.0,0.0,0.0,0.0,0.0,0.0,0.0,0.0,0.0,0.0,0.0,0.0,0.0,0.0,0.0,0.0,0.0,0.0,0.0,0.0,0.0,0.0,0.0,0.0,0.0,0.0,0.0,0.0,0.0,0.0,0.0,0.0,0.0,0.0,0.0,0.0,0.0,0.0,0.0,0.0,0.0,0.0,0.0,0.0,0.0,0.0,0.0,0.0,0.0,0.0,0.0,0.0,0.0,0.0,0.0,0.0,0.0,0.0,0.0,0.0,0.0,0.0,0.0,0.0,0.0,0.0,0.0,0.0,0.0,0.0,0.0,0.0,0.0,0.0,0.0,0.0,0.0,0.0,0.0,0.0,0.0,0.0,0.0,0.0,0.0,0.0,0.0,0.0,0.0,0.0,0.0,0.0,0.0,0.0,0.0,0.0,0.0,0.0,0.0,0.0,0.0,0.0,0.0,0.0,0.0,0.0,0.0,0.0,0.0,0.0,0.0,0.0,0.0,0.0,0.0,0.0,0.0,0.0,0.0,0.0,0.0,0.0,0.0,0.0,0.0,0.0,0.0,0.0,0.0,0.0,0.0,0.0,0.0,0.0,0.0,0.0,0.0,0.0,0.0,0.0,0.0,0.0,0.0,0.0,0.0,0.0,0.0,0.0,0.0,0.0,0.0,0.0,0.0,0.0,0.0,0.0,0.0,0.0,0.0,0.0,0.0,0.0,0.0,0.0,0.0,0.0,0.0,0.0,0.0,0.0,0.0,0.0,0.0,0.0,0.0,0.0,0.0,0.0,0.0,0.0,0.0,0.0,0.0,0.0,0.0,0.0,0.0,0.0,0.0,0.0,0.0,0.0,0.0,0.0,0.0,0.0,0.0,0.0,0.0,0.0,0.0,0.0,0.0,0.0,0.0,0.0,0.0,0.0,0.0,0.0,0.0,0.0,0.0,0.0,0.0,0.0,0.0,0.0,0.0,0.0,0.0,0.0,0.0,0.0,0.0,0.0,0.0,0.0,0.0,0.0,0.0,0.0,0.0,0.0,0.0,0.0,0.0,0.0,0.0,0.0,0.0,0.0,0.0,0.0,0.0,0.0,0.0,0.0,0.0,0.0,0.0,0.0,0.0,0.0,0.0,0.0,0.0,0.0,0.0,0.0,0.0,0.0,0.0,0.0,0.0,0.0,0.0,0.0,0.0,0.0,0.0,0.0,0.0,0.0,0.0,0.0,0.0,0.0,0.0,0.0,0.0,0.0,0.0,0.0,0.0,0.0,0.0,0.0,0.0,0.0,0.0,0.0,0.0,0.0,0.0,0.0,0.0,0.0,0.0,0.0,0.0,0.0,0.0,0.0,0.0,0.0,0.0,0.0,0.0,0.0,0.0,0.0,0.0,0.0,0.0,0.0,0.0,0.0,0.0,0.0,0.0,0.0,0.0,0.0,0.0,0.0,0.0,0.0,0.0,0.0,0.0,0.0,0.0,0.0,0.0,0.0,0.0,0.0,0.0,0.0,0.0,0.0,0.0,0.0,0.0,0.0,0.0,0.0,0.0,0.0,0.0,0.0,0.0,0.0,0.0,0.0,0.0,0.0,0.0,0.0,0.0,0.0,0.0,0.0,0.0,0.0,0.0,0.0,0.0,0.0,0.0,0.0,0.0,0.0,0.0,0.0,0.0,0.0,0.0,0.0,0.0,0.0,0.0,0.0,0.0,0.0,0.0,0.0,0.0,0.0,0.0,0.0,0.0,0.0,0.0,0.0,0.0,0.0,0.0,0.0,0.0,0.0,0.0,0.0,0.0,0.0,0.0,0.0,0.0,0.0,0.0,0.0,0.0,0.0,0.0,0.0,0.0,0.0,0.0,0.0,0.0,0.0,0.0,0.0,0.0,0.0,0.0,0.0,0.0,0.0,0.0,0.0,0.0,0.0,0.0,0.0,0.0,0.0,0.0,0.0,0.0,0.0,0.0,0.0,0.0,0.0,0.0,0.0,0.0,0.0,0.0,0.0,0.0,0.0,2.268,0.0,0.0,0.0,0.0,0.0,0.0,0.0,0.0,0.0,0.0,0.0,0.0,0.0,0.0,0.0,0.0,0.0,0.0,0.0,0.0,0.0,0.0,0.0,0.0,0.0,0.0,0.0,0.0,0.0,0.0,0.0,0.0,0.0,0.0,0.0,0.0,0.0,0.0,0.0,0.0,0.0,0.0,0.0,0.0,0.0,0.0,0.0,0.0,0.0,0.0,0.0,0.0,0.0,0.0,0.0,0.0,0.0,0.0,0.0,0.0,0.0,0.0,0.0,0.0,0.0,0.0,0.0,0.0,0.0,0.0,0.0,0.0,0.0,0.0,0.0,0.0,0.0,0.0,0.0,0.0,0.0,0.0,0.0,0.0,0.0,0.0,0.0,0.0,0.0,0.0,0.0,0.0,0.0,0.0,0.0,0.0,0.0,0.0,0.0,0.0,0.0,0.0,0.0,0.0,0.0,0.0,0.0,0.0,0.0,0.0,2.3554,2.3216,2.3253,2.3061,2.2535,0.0,0.0,0.0,0.0,0.0,0.0,0.0,0.0,0.0,0.0,0.0,0.0,0.0,0.0,0.0,0.0,0.0,0.0,0.0,0.0,0.0,0.0,0.0,0.0,0.0,0.0,0.0,0.0,0.0,0.0,0.0,0.0,0.0,0.0,0.0,0.0,0.0,0.0,0.0,0.0,0.0,0.0,0.0,0.0,0.0,0.0,0.0,0.0,0.0,0.0,0.0,0.0,0.0,0.0,0.0,0.0,0.0,0.0,0.0,0.0,0.0,0.0,0.0,0.0,0.0,0.0,0.0,0.0,0.0,0.0,0.0,0.0,0.0,0.0,0.0,0.0,0.0,0.0,0.0,0.0,0.0,0.0,0.0,0.0,0.0,0.0,0.0,0.0,0.0,0.0,0.0,0.0,0.0,0.0,0.0,0.0,0.0,0.0,0.0,0.0,0.0,0.0,0.0,0.0,0.0,0.0,0.0,0.0,0.0,0.0,0.0,0.0,2.323,2.2963,2.2443,0.0,0.0,0.0,0.0,0.0,0.0,0.0,0.0,0.0,0.0,0.0,0.0,0.0,0.0,0.0,0.0,0.0,0.0,0.0,0.0,0.0,0.0,0.0,0.0,0.0,0.0,0.0,0.0,0.0,0.0,0.0,0.0,0.0,0.0,0.0,0.0,0.0,0.0,0.0,0.0,0.0,0.0,0.0,0.0,0.0,0.0,0.0,0.0,0.0,0.0,0.0,0.0,0.0,0.0,0.0,0.0,0.0,0.0,0.0,0.0,0.0,0.0,0.0,0.0,0.0,0.0,0.0,0.0,0.0,0.0,0.0,0.0,0.0,0.0,0.0,0.0,0.0,0.0,0.0,0.0,0.0,0.0,0.0,0.0,0.0,0.0,0.0,0.0,0.0,0.0,0.0,0.0,0.0,0.0,0.0,0.0,0.0,0.0,0.0,0.0,0.0,0.0,0.0,0.0,0.0,0.0,0.0,0.0,0.0,0.0,2.3885,2.3827,2.3238,0.0,2.2208,0.0,0.0,0.0,0.0,0.0,0.0,0.0,0.0,0.0,0.0,0.0,0.0,0.0,0.0,0.0,0.0,0.0,0.0,0.0,0.0,0.0,0.0,0.0,0.0,0.0,0.0,0.0,0.0,0.0,0.0,0.0,0.0,0.0,0.0,0.0,0.0,0.0,0.0,0.0,0.0,0.0,0.0,0.0,0.0,0.0,0.0,0.0,0.0,0.0,0.0,0.0,0.0,0.0,0.0,0.0,0.0,0.0,0.0,0.0,0.0,0.0,0.0,0.0,0.0,0.0,0.0,0.0,0.0,0.0,0.0,0.0,0.0,0.0,0.0,0.0,0.0,0.0,0.0,0.0,0.0,0.0,0.0,0.0,0.0,0.0,0.0,0.0,0.0,0.0,0.0,0.0,0.0,0.0,0.0,0.0,0.0,0.0,0.0,0.0,0.0,0.0,0.0,0.0,0.0,0.0,0.0,0.0,0.0,0.0,0.0,2.4244,2.3905,2.2991,2.2394,0.0,0.0,0.0,0.0,0.0,0.0,0.0,0.0,0.0,0.0,0.0,0.0,0.0,0.0,0.0,0.0,0.0,0.0,0.0,0.0,0.0,0.0,0.0,0.0,0.0,0.0,0.0,0.0,0.0,0.0,0.0,0.0,0.0,0.0,0.0,0.0,0.0,0.0,0.0,0.0,0.0,0.0,0.0,0.0,0.0,0.0,0.0,0.0,0.0,0.0,0.0,0.0,0.0,0.0,0.0,0.0,0.0,0.0,0.0,0.0,0.0,0.0,0.0,0.0,0.0,0.0,0.0,0.0,0.0,0.0,0.0,0.0,0.0,0.0,0.0,0.0,0.0,0.0,0.0,0.0,0.0,0.0,0.0,0.0,0.0,0.0,0.0,0.0,0.0,0.0,0.0,0.0,0.0,0.0,0.0,0.0,0.0,0.0,0.0,0.0,0.0,0.0,0.0,0.0,0.0,0.0,0.0,0.0,0.0,0.0,2.523,2.4418,2.365,2.2705,2.2147,2.2091,0.0,0.0,0.0,0.0,0.0,0.0,0.0,0.0,0.0,0.0,0.0,0.0,0.0,0.0,0.0,0.0,0.0,0.0,0.0,0.0,0.0,0.0,0.0,0.0,0.0,0.0,0.0,0.0,0.0,0.0,0.0,0.0,0.0,0.0,0.0,0.0,0.0,0.0,0.0,0.0,0.0,0.0,0.0,0.0,0.0,0.0,0.0,0.0,0.0,0.0,0.0,0.0,0.0,0.0,0.0,0.0,0.0,0.0,0.0,0.0,0.0,0.0,0.0,0.0,0.0,0.0,0.0,0.0,0.0,0.0,0.0,0.0,0.0,0.0,0.0,0.0,0.0,0.0,0.0,0.0,0.0,0.0,0.0,0.0,0.0,0.0,0.0,0.0,0.0,0.0,0.0,0.0,0.0,0.0,0.0,0.0,0.0,0.0,0.0,0.0,0.0,0.0,0.0,0.0,0.0,0.0,0.0,0.0,2.6692,2.5462,2.4192,2.2995,2.2468,2.2077,0.0,0.0,0.0,0.0,0.0,0.0,0.0,0.0,0.0,0.0,0.0,0.0,0.0,0.0,0.0,0.0,0.0,0.0,0.0,0.0,0.0,0.0,0.0,0.0,0.0,0.0,0.0,0.0,0.0,0.0,0.0,0.0,0.0,0.0,0.0,0.0,0.0,0.0,0.0,0.0,0.0,0.0,0.0,0.0,0.0,0.0,0.0,0.0,0.0,0.0,0.0,0.0,0.0,0.0,0.0,0.0,0.0,0.0,0.0,0.0,0.0,0.0,0.0,0.0,0.0,0.0,0.0,0.0,0.0,0.0,0.0,0.0,0.0,0.0,0.0,0.0,0.0,0.0,0.0,0.0,0.0,0.0,0.0,0.0,0.0,0.0,0.0,0.0,0.0,0.0,0.0,0.0,0.0,0.0,0.0,0.0,0.0,0.0,0.0,0.0,0.0,0.0,0.0,0.0,0.0,0.0,0.0,0.0,0.0,2.6162,2.4955,2.3967,2.3297,2.2597,2.21,0.0,0.0,0.0,0.0,0.0,0.0,0.0,0.0,0.0,0.0,0.0,0.0,0.0,0.0,0.0,0.0,0.0,0.0,0.0,0.0,0.0,0.0,0.0,0.0,0.0,0.0,0.0,0.0,0.0,0.0,0.0,0.0,0.0,0.0,0.0,0.0,0.0,0.0,0.0,0.0,0.0,0.0,0.0,0.0,0.0,0.0,0.0,0.0,0.0,0.0,0.0,0.0,0.0,0.0,0.0,0.0,0.0,0.0,0.0,0.0,0.0,0.0,0.0,0.0,0.0,0.0,0.0,0.0,0.0,0.0,0.0,0.0,0.0,0.0,0.0,0.0,0.0,0.0,0.0,0.0,0.0,0.0,0.0,0.0,0.0,0.0,0.0,0.0,0.0,0.0,0.0,0.0,0.0,0.0,0.0,0.0,0.0,0.0,0.0,0.0,0.0,0.0,0.0,0.0,0.0,0.0,0.0,0.0,0.0,2.557,0.0,2.4115,2.366,2.2706,2.2169,0.0,0.0,0.0,0.0,0.0,0.0,0.0,0.0,0.0,0.0,0.0,0.0,0.0,0.0,0.0,0.0,0.0,0.0,0.0,0.0,0.0,0.0,0.0,0.0,0.0,0.0,0.0,0.0,0.0,0.0,0.0,0.0,0.0,0.0,0.0,0.0,0.0,0.0,0.0,0.0,0.0,0.0,0.0,0.0,0.0,0.0,0.0,0.0,0.0,0.0,0.0,0.0,0.0,0.0,0.0,0.0,0.0,0.0,0.0,0.0,0.0,0.0,0.0,0.0,0.0,0.0,0.0,0.0,0.0,0.0,0.0,0.0,0.0,0.0,0.0,0.0,0.0,0.0,0.0,0.0,0.0,0.0,0.0,0.0,0.0,0.0,0.0,0.0,0.0,0.0,0.0,0.0,0.0,0.0,0.0,0.0,0.0,0.0,0.0,0.0,0.0,0.0,0.0,0.0,0.0,0.0,0.0,0.0,2.5571,2.4941,2.4871,2.4551,2.4005,2.291,2.2255,0.0,0.0,0.0,0.0,0.0,0.0,0.0,0.0,0.0,0.0,0.0,0.0,0.0,0.0,0.0,0.0,0.0,0.0,0.0,0.0,0.0,0.0,0.0,0.0,0.0,0.0,0.0,0.0,0.0,0.0,0.0,0.0,0.0,0.0,0.0,0.0,0.0,0.0,0.0,0.0,0.0,0.0,0.0,0.0,0.0,0.0,0.0,0.0,0.0,0.0,0.0,0.0,0.0,0.0,0.0,0.0,0.0,0.0,0.0,0.0,0.0,0.0,0.0,0.0,0.0,0.0,0.0,0.0,0.0,0.0,0.0,0.0,0.0,0.0,0.0,0.0,0.0,0.0,0.0,0.0,0.0,0.0,0.0,0.0,0.0,0.0,0.0,0.0,0.0,0.0,0.0,0.0,0.0,0.0,0.0,0.0,0.0,0.0,0.0,0.0,0.0,0.0,0.0,0.0,0.0,0.0,0.0,0.0,0.0,2.4956,2.4559,2.4352,2.4318,2.3412,2.2865,0.0,0.0,0.0,0.0,0.0,0.0,0.0,0.0,0.0,0.0,0.0,0.0,0.0,0.0,0.0,0.0,0.0,0.0,0.0,0.0,0.0,0.0,0.0,0.0,0.0,0.0,0.0,0.0,0.0,0.0,0.0,0.0,0.0,0.0,0.0,0.0,0.0,0.0,0.0,0.0,0.0,0.0,0.0,0.0,0.0,0.0,0.0,0.0,0.0,0.0,0.0,0.0,0.0,0.0,0.0,0.0,0.0,0.0,0.0,0.0,0.0,0.0,0.0,0.0,0.0,0.0,0.0,0.0,0.0,0.0,0.0,0.0,0.0,0.0,0.0,0.0,0.0,0.0,0.0,0.0,0.0,0.0,0.0,0.0,0.0,0.0,0.0,0.0,0.0,0.0,0.0,0.0,0.0,0.0,0.0,0.0,0.0,0.0,0.0,0.0,0.0,0.0,0.0,0.0,0.0,0.0,0.0,0.0,0.0,2.5317,2.4978,2.4858,2.5025,2.4259,2.3555,2.2949,0.0,0.0,0.0,0.0,0.0,0.0,0.0,0.0,0.0,0.0,0.0,0.0,0.0,0.0,0.0,0.0,0.0,0.0,0.0,0.0,0.0,0.0,0.0,0.0,0.0,0.0,0.0,0.0,0.0,0.0,0.0,0.0,0.0,0.0,0.0,0.0,0.0,0.0,0.0,0.0,0.0,0.0,0.0,0.0,0.0,0.0,0.0,0.0,0.0,0.0,0.0,0.0,0.0,0.0,0.0,0.0,0.0,0.0,0.0,0.0,0.0,0.0,0.0,0.0,0.0,0.0,0.0,0.0,0.0,0.0,0.0,0.0,0.0,0.0,0.0,0.0,0.0,0.0,0.0,0.0,0.0,0.0,0.0,0.0,0.0,0.0,0.0,0.0,0.0,0.0,0.0,0.0,0.0,0.0,0.0,0.0,0.0,0.0,0.0,0.0,0.0,0.0,0.0,0.0,0.0,0.0,0.0,0.0,2.5941,2.5982,2.5968,2.5928,2.5358,2.4395,0.0,0.0,0.0,0.0,0.0,0.0,0.0,0.0,0.0,0.0,0.0,0.0,0.0,0.0,0.0,0.0,0.0,0.0,0.0,0.0,0.0,0.0,0.0,0.0,0.0,0.0,0.0,0.0,0.0,0.0,0.0,0.0,0.0,0.0,0.0,0.0,0.0,0.0,0.0,0.0,0.0,0.0,0.0,0.0,0.0,0.0,0.0,0.0,0.0,0.0,0.0,0.0,0.0,0.0,0.0,0.0,0.0,0.0,0.0,0.0,0.0,0.0,0.0,0.0,0.0,0.0,0.0,0.0,0.0,0.0,0.0,0.0,0.0,0.0,0.0,0.0,0.0,0.0,0.0,0.0,0.0,0.0,0.0,0.0,0.0,0.0,0.0,0.0,0.0,0.0,0.0,0.0,0.0,0.0,0.0,0.0,0.0,0.0,0.0,0.0,0.0,0.0,0.0,0.0,0.0,0.0,0.0,0.0,0.0,2.6535,2.6999,2.7026,2.6592,2.5982,2.5488,0.0,0.0,0.0,0.0,0.0,0.0,0.0,0.0,0.0,0.0,0.0,0.0,0.0,0.0,0.0,0.0,0.0,0.0,0.0,0.0,0.0,0.0,0.0,0.0,0.0,0.0,0.0,0.0,0.0,0.0,0.0,0.0,0.0,0.0,0.0,0.0,0.0,0.0,0.0,0.0,0.0,0.0,0.0,0.0,0.0,0.0,0.0,0.0,0.0,0.0,0.0,0.0,0.0,0.0,0.0,0.0,0.0,0.0,0.0,0.0,0.0,0.0,0.0,0.0,0.0,0.0,0.0,0.0,0.0,0.0,0.0,0.0,0.0,0.0,0.0,0.0,0.0,0.0,0.0,0.0,0.0,0.0,0.0,0.0,0.0,0.0,0.0,0.0,0.0,0.0,0.0,0.0,0.0,0.0,0.0,0.0,0.0,0.0,0.0,0.0,0.0,0.0,0.0,0.0,0.0,0.0,0.0,0.0,2.6685,2.7514,2.813,2.8288,2.7949,2.685,2.6056,0.0,0.0,0.0,0.0,0.0,0.0,0.0,0.0,0.0,0.0,0.0,0.0,0.0,0.0,0.0,0.0,0.0,0.0,0.0,0.0,0.0,0.0,0.0,0.0,0.0,0.0,0.0,0.0,0.0,0.0,0.0,0.0,0.0,0.0,0.0,0.0,0.0,0.0,0.0,0.0,0.0,0.0,0.0,0.0,0.0,0.0,0.0,0.0,0.0,0.0,0.0,0.0,0.0,0.0,0.0,0.0,0.0,0.0,0.0,0.0,0.0,0.0,0.0,0.0,0.0,0.0,0.0,0.0,0.0,0.0,0.0,0.0,0.0,0.0,0.0,0.0,0.0,0.0,0.0,0.0,0.0,0.0,0.0,0.0,0.0,0.0,0.0,0.0,0.0,0.0,0.0,0.0,0.0,0.0,0.0,0.0,0.0,0.0,0.0,0.0,0.0,0.0,0.0,0.0,0.0,0.0,0.0,0.0,2.7429,2.8584,2.9182,2.9502,2.9461,2.7868,2.6492,0.0,0.0,0.0,0.0,0.0,0.0,0.0,0.0,0.0,0.0,0.0,0.0,0.0,0.0,0.0,0.0,0.0,0.0,0.0,0.0,0.0,0.0,0.0,0.0,0.0,0.0,0.0,0.0,0.0,0.0,0.0,0.0,0.0,0.0,0.0,0.0,0.0,0.0,0.0,0.0,0.0,0.0,0.0,0.0,0.0,0.0,0.0,0.0,0.0,0.0,0.0,0.0,0.0,0.0,0.0,0.0,0.0,0.0,0.0,0.0,0.0,0.0,0.0,0.0,0.0,0.0,0.0,0.0,0.0,0.0,0.0,0.0,0.0,0.0,0.0,0.0,0.0,0.0,0.0,0.0,0.0,0.0,0.0,0.0,0.0,0.0,0.0,0.0,0.0,0.0,0.0,0.0,0.0,0.0,0.0,0.0,0.0,0.0,0.0,0.0,0.0,0.0,0.0,0.0,0.0,0.0,0.0,0.0,2.8047,2.9248,2.9421,2.9502,2.9502,2.8655,2.7687,0.0,0.0,0.0,0.0,0.0,0.0,0.0,0.0,0.0,0.0,0.0,0.0,0.0,0.0,0.0,0.0,0.0,0.0,0.0,0.0,0.0,0.0,0.0,0.0,0.0,0.0,0.0,0.0,0.0,0.0,0.0,0.0,0.0,0.0,0.0,0.0,0.0,0.0,0.0,0.0,0.0,0.0,0.0,0.0,0.0,0.0,0.0,0.0,2.5787,0.0,0.0,0.0,0.0,0.0,0.0,0.0,0.0,0.0,0.0,0.0,0.0,0.0,0.0,0.0,0.0,0.0,0.0,0.0,0.0,0.0,0.0,0.0,0.0,0.0,0.0,0.0,0.0,0.0,0.0,0.0,0.0,0.0,0.0,0.0,0.0,0.0,0.0,0.0,0.0,0.0,0.0,0.0,0.0,0.0,0.0,0.0,0.0,0.0,0.0,0.0,0.0,0.0,0.0,0.0,0.0,0.0,0.0,0.0,2.8809,3.0273,3.0359,3.0225,2.9937,2.9876,2.8894,0.0,0.0,0.0,0.0,0.0,0.0,0.0,0.0,0.0,0.0,0.0,0.0,0.0,0.0,0.0,0.0,0.0,0.0,0.0,0.0,0.0,0.0,0.0,0.0,0.0,0.0,0.0,0.0,0.0,0.0,0.0,0.0,0.0,0.0,0.0,0.0,0.0,0.0,0.0,0.0,0.0,0.0,0.0,0.0,0.0,0.0,0.0,0.0,0.0,0.0,0.0,0.0,0.0,0.0,0.0,0.0,0.0,0.0,0.0,0.0,0.0,0.0,0.0,0.0,0.0,0.0,0.0,0.0,0.0,0.0,0.0,0.0,0.0,0.0,0.0,0.0,0.0,0.0,0.0,0.0,0.0,0.0,0.0,0.0,0.0,0.0,0.0,0.0,0.0,0.0,0.0,0.0,0.0,0.0,0.0,0.0,0.0,0.0,0.0,0.0,0.0,0.0,0.0,0.0,0.0,0.0,0.0,2.8891,2.9769,3.1526,3.1614,3.1333,3.0719,3.1085,2.9945,2.7086,0.0,0.0,0.0,0.0,0.0,0.0,0.0,0.0,0.0,0.0,0.0,0.0,0.0,0.0,0.0,0.0,0.0,0.0,0.0,0.0,0.0,0.0,0.0,0.0,0.0,0.0,0.0,0.0,0.0,0.0,0.0,0.0,0.0,0.0,0.0,0.0,0.0,0.0,2.7241,2.7501,0.0,0.0,0.0,0.0,0.0,0.0,0.0,0.0,2.7336,0.0,0.0,0.0,0.0,0.0,0.0,0.0,0.0,0.0,0.0,0.0,0.0,0.0,0.0,0.0,0.0,0.0,0.0,0.0,0.0,0.0,0.0,0.0,0.0,0.0,0.0,0.0,0.0,0.0,0.0,0.0,0.0,0.0,0.0,0.0,0.0,0.0,0.0,0.0,0.0,0.0,0.0,0.0,0.0,0.0,0.0,0.0,0.0,0.0,0.0,0.0,0.0,0.0,0.0,0.0,0.0,3.0072,3.015,3.1113,3.3001,3.3083,3.2735,3.2087,3.1605,3.0197,2.7802,0.0,0.0,0.0,0.0,0.0,0.0,0.0,0.0,0.0,0.0,0.0,0.0,0.0,0.0,0.0,0.0,0.0,0.0,0.0,0.0,0.0,0.0,0.0,0.0,0.0,0.0,0.0,0.0,0.0,0.0,0.0,0.0,0.0,0.0,0.0,0.0,0.0,0.0,0.0,2.771,2.766,0.0,0.0,0.0,0.0,0.0,0.0,0.0,0.0,2.834,0.0,0.0,0.0,0.0,0.0,0.0,0.0,0.0,0.0,0.0,0.0,0.0,0.0,0.0,0.0,0.0,0.0,0.0,0.0,0.0,0.0,0.0,0.0,0.0,0.0,0.0,0.0,0.0,0.0,0.0,0.0,0.0,0.0,0.0,0.0,0.0,0.0,0.0,0.0,0.0,0.0,0.0,0.0,0.0,0.0,0.0,0.0,0.0,0.0,0.0,0.0,0.0,0.0,0.0,0.0,3.033,3.1128,3.2112,3.3349,3.3754,3.3419,3.2425,3.2081,3.0628,0.0,0.0,0.0,0.0,0.0,0.0,0.0,0.0,0.0,0.0,0.0,0.0,0.0,0.0,0.0,0.0,0.0,0.0,0.0,0.0,0.0,0.0,0.0,0.0,0.0,0.0,0.0,0.0,0.0,0.0,0.0,0.0,0.0,0.0,0.0,0.0,0.0,0.0,0.0,0.0,2.9761,2.9799,2.9531,0.0,0.0,0.0,0.0,0.0,0.0,2.8831,2.8556,0.0,0.0,0.0,0.0,0.0,0.0,0.0,0.0,0.0,0.0,0.0,0.0,0.0,0.0,0.0,0.0,0.0,0.0,0.0,0.0,0.0,0.0,0.0,0.0,0.0,0.0,0.0,0.0,0.0,0.0,0.0,0.0,0.0,0.0,0.0,0.0,0.0,0.0,0.0,0.0,0.0,0.0,0.0,0.0,0.0,0.0,0.0,0.0,0.0,0.0,0.0,0.0,0.0,0.0,0.0,3.0586,3.1936,3.3031,3.3818,3.448,3.417,3.2882,3.2542,3.1057,0.0,0.0,0.0,0.0,0.0,0.0,0.0,0.0,0.0,0.0,0.0,0.0,0.0,0.0,0.0,0.0,0.0,0.0,0.0,0.0,0.0,0.0,0.0,0.0,0.0,0.0,0.0,0.0,0.0,0.0,0.0,0.0,0.0,0.0,0.0,0.0,0.0,0.0,0.0,0.0,0.0,3.1729,3.0879,3.0545,0.0,0.0,0.0,0.0,2.9416,2.9381,0.0,0.0,0.0,0.0,0.0,0.0,0.0,0.0,0.0,0.0,0.0,0.0,0.0,0.0,0.0,0.0,0.0,0.0,0.0,0.0,0.0,0.0,0.0,0.0,0.0,0.0,0.0,0.0,0.0,0.0,0.0,0.0,0.0,0.0,0.0,0.0,0.0,0.0,0.0,0.0,0.0,0.0,0.0,0.0,0.0,0.0,0.0,0.0,0.0,0.0,0.0,0.0,0.0,0.0,0.0,0.0,3.1259,3.2613,3.3923,3.5201,3.5891,3.5615,3.4284,3.3056,3.1445,0.0,0.0,0.0,0.0,0.0,0.0,0.0,0.0,0.0,0.0,0.0,0.0,0.0,0.0,0.0,0.0,0.0,0.0,0.0,0.0,0.0,0.0,0.0,0.0,0.0,0.0,0.0,0.0,0.0,0.0,0.0,0.0,0.0,0.0,0.0,0.0,0.0,0.0,0.0,0.0,0.0,3.157,3.0736,3.0475,3.0551,0.0,0.0,3.0456,3.0951,3.0674,0.0,0.0,0.0,0.0,0.0,0.0,0.0,0.0,0.0,0.0,0.0,0.0,0.0,0.0,0.0,0.0,0.0,0.0,0.0,0.0,0.0,0.0,0.0,0.0,0.0,0.0,0.0,0.0,0.0,0.0,0.0,0.0,0.0,0.0,0.0,0.0,0.0,0.0,0.0,0.0,0.0,0.0,0.0,0.0,0.0,0.0,0.0,0.0,0.0,0.0,0.0,0.0,0.0,0.0,0.0,3.0762,3.1439,3.3426,3.4809,3.5491,3.6153,3.5876,3.4536,3.3519,3.1903,0.0,0.0,0.0,0.0,0.0,0.0,0.0,0.0,0.0,0.0,0.0,0.0,0.0,0.0,0.0,0.0,0.0,0.0,0.0,0.0,0.0,0.0,0.0,0.0,0.0,0.0,0.0,0.0,0.0,0.0,0.0,0.0,0.0,0.0,0.0,0.0,0.0,0.0,0.0,0.0,0.0,0.0,3.226,3.2323,0.0,0.0,0.0,3.1609,3.1899,0.0,0.0,0.0,0.0,0.0,0.0,0.0,0.0,0.0,0.0,0.0,0.0,0.0,0.0,0.0,0.0,0.0,0.0,0.0,0.0,0.0,0.0,0.0,0.0,0.0,0.0,0.0,0.0,0.0,0.0,0.0,0.0,0.0,0.0,0.0,0.0,0.0,0.0,0.0,0.0,0.0,0.0,0.0,0.0,0.0,0.0,0.0,0.0,0.0,0.0,0.0,0.0,0.0,0.0,0.0,0.0,0.0,3.1911,3.4297,3.5758,3.6171,3.6536,3.618,3.5017,3.4074,0.0,0.0,0.0,0.0,0.0,0.0,0.0,0.0,0.0,0.0,0.0,0.0,0.0,0.0,0.0,0.0,0.0,0.0,0.0,0.0,0.0,0.0,0.0,0.0,0.0,0.0,0.0,3.0227,0.0,0.0,0.0,0.0,0.0,0.0,0.0,0.0,0.0,0.0,0.0,0.0,0.0,0.0,3.3554,3.3494,3.3745,3.3784,0.0,0.0,3.2679,3.2894,3.2274,3.156,0.0,0.0,0.0,0.0,0.0,0.0,0.0,0.0,0.0,0.0,0.0,0.0,0.0,0.0,0.0,0.0,0.0,0.0,0.0,0.0,0.0,0.0,0.0,0.0,0.0,0.0,0.0,0.0,0.0,0.0,0.0,0.0,0.0,0.0,0.0,0.0,0.0,0.0,0.0,0.0,0.0,0.0,0.0,0.0,0.0,0.0,0.0,0.0,0.0,0.0,0.0,0.0,0.0,0.0,0.0,3.3187,3.5139,3.6772,3.8036,3.7589,3.6995,3.6269,3.4896,3.3255,0.0,0.0,0.0,0.0,0.0,0.0,0.0,0.0,0.0,0.0,0.0,0.0,0.0,0.0,0.0,0.0,0.0,0.0,0.0,0.0,0.0,0.0,0.0,0.0,0.0,0.0,0.0,0.0,0.0,0.0,0.0,0.0,0.0,0.0,0.0,0.0,0.0,0.0,0.0,0.0,0.0,3.3515,3.375,3.3792,3.3968,0.0,0.0,3.3833,3.4273,3.3935,3.3421,3.2801,0.0,0.0,0.0,0.0,0.0,0.0,0.0,0.0,0.0,0.0,0.0,0.0,0.0,0.0,0.0,0.0,0.0,0.0,0.0,0.0,0.0,0.0,0.0,0.0,0.0,0.0,0.0,0.0,0.0,0.0,0.0,0.0,0.0,0.0,0.0,0.0,0.0,0.0,0.0,0.0,0.0,0.0,0.0,0.0,0.0,0.0,0.0,0.0,0.0,0.0,0.0,0.0,0.0,3.2833,3.3742,3.5694,3.7235,3.8241,3.8067,3.7644,3.6954,3.5963,3.468,0.0,0.0,0.0,0.0,0.0,0.0,0.0,0.0,0.0,0.0,0.0,0.0,0.0,0.0,0.0,0.0,0.0,0.0,0.0,0.0,0.0,0.0,0.0,0.0,0.0,0.0,0.0,0.0,3.2716,3.2797,3.2361,0.0,0.0,0.0,0.0,0.0,0.0,0.0,0.0,0.0,0.0,3.3765,3.4768,3.4919,0.0,0.0,3.5026,3.4981,3.5138,3.4273,3.3491,3.3249,3.1485,0.0,0.0,0.0,0.0,0.0,0.0,0.0,0.0,0.0,0.0,0.0,0.0,0.0,0.0,0.0,0.0,0.0,0.0,0.0,0.0,0.0,0.0,0.0,0.0,0.0,0.0,0.0,0.0,0.0,0.0,0.0,0.0,0.0,0.0,0.0,0.0,0.0,0.0,0.0,0.0,0.0,0.0,0.0,0.0,0.0,0.0,0.0,0.0,0.0,0.0,0.0,0.0,3.3359,3.4268,3.6266,3.7799,3.8816,3.8657,3.8345,3.7894,3.7149,3.6026,0.0,0.0,0.0,0.0,0.0,0.0,0.0,0.0,0.0,0.0,0.0,0.0,0.0,0.0,0.0,0.0,0.0,0.0,0.0,0.0,0.0,0.0,0.0,0.0,0.0,0.0,0.0,0.0,3.2899,3.2865,3.2361,0.0,0.0,0.0,0.0,0.0,0.0,0.0,0.0,0.0,0.0,3.4569,3.5797,3.5876,3.5805,3.5805,3.5486,3.5261,3.5284,3.4235,3.3339,3.3102,0.0,0.0,0.0,0.0,0.0,0.0,0.0,0.0,0.0,0.0,0.0,0.0,0.0,0.0,0.0,0.0,0.0,0.0,0.0,0.0,0.0,0.0,0.0,0.0,0.0,0.0,0.0,0.0,0.0,0.0,3.2718,0.0,0.0,0.0,0.0,0.0,0.0,0.0,0.0,0.0,0.0,0.0,0.0,0.0,0.0,0.0,0.0,0.0,0.0,0.0,0.0,0.0,0.0,3.3895,3.4911,3.6851,3.8575,3.9952,3.947,3.9162,3.9156,3.8434,3.7152,3.524,0.0,0.0,0.0,0.0,0.0,0.0,0.0,0.0,0.0,0.0,0.0,0.0,0.0,0.0,0.0,0.0,0.0,0.0,0.0,0.0,0.0,0.0,0.0,0.0,0.0,0.0,3.335,3.275,3.2347,0.0,0.0,0.0,0.0,0.0,0.0,0.0,0.0,0.0,0.0,3.5266,3.6003,3.6755,3.6516,3.6228,3.628,3.5288,3.4544,3.4561,3.3897,3.3152,0.0,0.0,0.0,0.0,0.0,0.0,0.0,0.0,0.0,0.0,0.0,0.0,0.0,0.0,0.0,0.0,0.0,0.0,0.0,0.0,0.0,0.0,0.0,0.0,0.0,0.0,0.0,3.6259,3.5924,0.0,0.0,0.0,0.0,0.0,0.0,0.0,0.0,0.0,0.0,0.0,3.9143,3.8977,0.0,0.0,0.0,0.0,0.0,0.0,0.0,0.0,0.0,0.0,0.0,0.0,3.4322,3.6131,3.731,3.8616,4.0062,3.9918,3.9799,3.9799,3.9093,3.7778,3.5861,0.0,0.0,0.0,0.0,0.0,0.0,0.0,0.0,0.0,0.0,0.0,0.0,0.0,0.0,0.0,0.0,0.0,0.0,0.0,0.0,0.0,0.0,0.0,0.0,0.0,3.4263,0.0,0.0,0.0,0.0,0.0,0.0,0.0,0.0,0.0,0.0,0.0,3.442,3.5285,3.562,3.6076,3.6794,3.6324,3.6085,0.0,0.0,0.0,0.0,0.0,0.0,0.0,0.0,0.0,0.0,0.0,0.0,0.0,0.0,3.1946,3.054,3.0607,3.0897,3.1042,0.0,0.0,0.0,0.0,0.0,0.0,0.0,0.0,0.0,0.0,0.0,0.0,0.0,0.0,3.8536,0.0,3.7295,0.0,0.0,0.0,0.0,0.0,0.0,0.0,0.0,4.0447,4.1462,4.2026,4.1822,4.1492,0.0,4.0071,3.8541,0.0,0.0,0.0,0.0,0.0,0.0,0.0,0.0,3.5047,3.6761,3.777,3.887,4.0028,4.0113,4.0113,4.0096,3.9377,3.8409,3.7142,3.5994,3.4869,0.0,0.0,0.0,0.0,0.0,0.0,0.0,0.0,0.0,0.0,0.0,0.0,0.0,0.0,0.0,0.0,0.0,0.0,0.0,0.0,0.0,0.0,0.0,3.4838,0.0,0.0,0.0,0.0,0.0,0.0,0.0,0.0,0.0,3.3927,3.4694,3.5509,3.6132,3.6469,3.6807,3.7268,0.0,0.0,0.0,0.0,0.0,0.0,0.0,3.4086,3.3683,3.3605,3.3813,3.4436,3.5044,3.5406,3.5136,0.0,0.0,3.232,3.2265,3.2612,3.2612,3.2593,3.2438,3.1974,3.1887,3.1675,0.0,0.0,0.0,0.0,0.0,0.0,0.0,0.0,4.0357,4.0247,0.0,3.9493,0.0,0.0,0.0,0.0,0.0,4.0211,0.0,0.0,4.3496,4.4584,4.5198,4.4492,4.4168,4.4094,4.2927,4.1958,4.1042,3.7776,0.0,0.0,0.0,0.0,0.0,0.0,3.6073,3.6966,3.834,3.94,4.0137,4.0205,4.0239,4.0256,3.9595,3.918,3.9044,3.746,3.6225,3.5554,3.3771,0.0,0.0,0.0,0.0,0.0,0.0,0.0,0.0,0.0,0.0,0.0,0.0,0.0,0.0,0.0,0.0,0.0,0.0,0.0,0.0,3.4941,0.0,0.0,0.0,0.0,0.0,0.0,0.0,0.0,0.0,0.0,3.4762,3.5708,3.6609,3.7,0.0,0.0,0.0,0.0,3.747,3.7506,3.6518,3.5817,3.5868,3.5254,3.4668,3.4248,0.0,0.0,3.5477,3.671,3.7485,3.7163,3.7631,3.7334,3.4807,3.436,3.432,3.4303,3.4337,3.4214,3.4182,3.4079,3.4059,4.3221,0.0,0.0,0.0,0.0,4.0804,4.1386,4.2185,4.2427,4.241,4.2151,4.1605,0.0,0.0,0.0,0.0,0.0,0.0,4.2727,4.3911,4.4868,4.5621,4.6142,4.5924,4.5816,4.578,4.4883,4.4317,4.401,4.1931,3.9226,3.6025,0.0,0.0,0.0,0.0,3.7523,3.9277,3.9795,4.0351,4.1076,4.1656,4.2218,4.2799,4.2607,4.2224,4.1644,4.0612,3.9168,3.7232,3.6004,0.0,0.0,0.0,0.0,0.0,0.0,0.0,0.0,0.0,0.0,0.0,0.0,0.0,0.0,0.0,0.0,0.0,0.0,0.0,3.6474,3.6417,3.6118,0.0,0.0,0.0,0.0,0.0,0.0,0.0,0.0,0.0,3.6345,3.7112,3.7711,0.0,0.0,3.8209,3.8209,3.7583,3.7335,3.7894,3.6729,0.0,3.6952,3.6879,3.6767,3.695,3.775,3.8405,3.8468,3.9079,3.9462,3.9126,3.9247,3.91,3.8451,3.7714,3.7331,3.7301,3.7323,3.6926,3.5959,3.5663,3.5373,4.6784,4.5364,4.3279,4.2722,4.3296,4.3588,4.4196,4.4955,4.5227,4.5192,4.4886,4.4119,4.3492,4.3019,4.2438,0.0,0.0,0.0,4.4571,4.5368,4.618,4.6708,4.6954,4.6975,4.6975,4.6957,4.6486,4.6087,4.5761,4.4476,4.2117,3.8763,0.0,0.0,3.7509,3.805,3.9015,4.0366,4.0998,4.1543,4.1978,4.2756,4.3429,4.3868,4.3886,4.3675,4.32,4.23,4.0997,3.9264,3.7647,3.6011,0.0,0.0,0.0,0.0,0.0,0.0,0.0,0.0,0.0,0.0,0.0,3.2498,3.2702,0.0,0.0,0.0,3.5852,3.6655,3.7468,3.7213,0.0,0.0,0.0,0.0,0.0,0.0,0.0,3.716,3.7649,3.8064,3.8337,3.8808,3.888,3.8299,3.8209,3.8334,3.8676,0.0,3.8294,3.9108,3.8384,3.7993,3.8741,3.8797,3.8833,3.8962,3.9884,4.0539,4.0464,4.1052,4.1452,4.1175,4.108,4.1022,4.0847,4.0382,3.9726,3.9051,3.9002,3.8674,3.7443,3.7365,3.7089,4.9811,4.9521,4.6738,4.5699,4.5961,4.6639,4.7143,4.752,4.8179,4.8109,4.7432,4.673,4.6052,4.5422,4.512,0.0,4.5078,4.6245,4.6757,4.6739,4.7446,4.7772,4.7699,4.7699,4.7699,4.7699,4.7699,4.7319,4.6576,4.578,4.4441,4.2627,4.1101,4.0028,3.952,4.0207,4.063,4.0718,4.2168,4.2938,4.3009,4.3719,4.4147,4.4218,4.4218,4.4183,4.4077,4.3102,4.2203,4.1375,3.8974,3.7298,3.6586,0.0,0.0,0.0,0.0,0.0,0.0,0.0,0.0,0.0,0.0,0.0,0.0,0.0,0.0,0.0,3.7292,0.0,3.8339,3.7703,0.0,0.0,0.0,3.6435,3.7122,3.7249,3.7846,3.9315,0.0,0.0,4.0401,4.0492,3.9985,3.8554,3.8373,3.8677,3.947,3.9561,3.9868,4.0555,4.0667,4.0687,4.0685,4.0796,4.0799,4.0582,4.1068,4.1575,4.1723,4.2505,4.316,4.2904,4.2939,4.279,4.2362,4.2213,4.1749,3.9994,3.9893,3.984,3.9029,3.9054,3.8916,5.061,5.0557,4.9835,4.8872,4.7866,4.7997,4.8137,4.8249,4.8407,4.8415,4.824,4.831,4.8356,4.8396,4.8463,4.8488,4.851,4.8999,4.8912,4.8348,4.8511,4.8275,4.7717,4.7699,4.7699,4.7699,4.7699,4.7609,4.7391,4.6613,4.5974,4.5477,4.45,4.2895,4.0798,4.1755,4.2613,4.3224,4.4196,4.4988,4.5564,4.578,4.6194,4.6769,4.6805,4.6518,4.5906,4.5611,4.4484,4.2422,4.166,4.0098,3.7463,3.6466,0.0,0.0,0.0,0.0,0.0,0.0,0.0,0.0,0.0,3.4253,3.5256,0.0,3.6108,0.0,3.8418,3.9228,3.9752,3.9733,0.0,0.0,3.9152,3.9242,3.8897,3.9333,3.9822,4.0202,4.0238,4.0293,4.0474,4.0492,4.0365,3.9985,3.9967,4.0021,4.0238,4.0274,4.0328,4.0581,4.0636,4.0763,4.1415,4.2087,4.2523,4.2631,4.2795,4.2959,4.3011,4.3263,4.3445,4.3375,4.3357,4.3286,4.3196,4.3214,4.2941,4.2204,4.1843,4.1408,4.0671,4.0341,3.9898,5.0891,5.0891,5.0891,5.0382,4.9574,4.9574,4.9574,4.9574,4.9574,4.9627,4.9748,4.9692,4.9577,4.9418,4.9618,4.9711,4.9716,4.9983,4.9854,4.9438,4.9438,4.9202,4.8786,4.8768,4.8586,4.8221,4.8221,4.804,4.7681,4.6902,4.6504,4.6486,4.5707,4.4522,4.3061,4.3636,4.4186,4.4621,4.5436,4.6214,4.7011,4.7047,4.7265,4.7681,4.7699,4.75,4.7065,4.6685,4.5789,4.4268,4.3169,4.1763,3.9925,3.8572,3.7411,0.0,0.0,0.0,0.0,0.0,0.0,0.0,0.0,0.0,0.0,0.0,3.7735,3.887,3.9535,4.004,4.0347,4.0456,4.0329,3.9948,4.0256,4.0474,4.042,4.0782,4.118,4.1524,4.1578,4.1578,4.1578,4.1578,4.1597,4.1651,4.1651,4.1506,4.1198,4.1125,4.1252,4.1633,4.1705,4.1833,4.2323,4.285,4.3269,4.3376,4.3429,4.3445,4.3497,4.3479,4.3479,4.3479,4.3479,4.3479,4.3479,4.3479,4.341,4.3232,4.2958,4.2494,4.1763,4.1553,4.1261,5.0891,5.0891,5.0891,5.0891,5.0891,5.0891,5.0891,5.0891,5.0945,5.1114,5.1375,5.0916,5.0378,4.9818,4.997,5.0063,5.0086,5.029,5.0343,5.0275,5.0253,5.018,5.0112,5.0112,4.9727,4.9075,4.9036,4.8637,4.7823,4.7156,4.6757,4.6631,4.5943,4.5617,4.5599,4.5599,4.5599,4.5617,4.6305,4.6972,4.7681,4.7699,4.7699,4.7699,4.7699,4.7699,4.7681,4.7047,4.6512,4.6182,4.4237,4.301,4.2757,4.074,3.9193,0.0,3.7557,0.0,0.0,0.0,0.0,0.0,0.0,0.0,0.0,3.887,3.9589,4.0381,4.0564,4.0691,4.08,4.08,4.08,4.08,4.08,4.1089,4.1741,4.1868,4.214,4.2828,4.2919,4.2901,4.2922,4.2957,4.2975,4.3105,4.3014,4.2741,4.2268,4.2086,4.2323,4.3105,4.3214,4.3014,4.3123,4.3304,4.3394,4.3429,4.3464,4.3479,4.3479,4.3479,4.3479,4.3479,4.3479,4.3479,4.3479,4.3479,4.3479,4.3462,4.3427,4.3196,4.26,4.2562,4.2533,5.0891,5.0891,5.0891,5.0891,5.0891,5.0891,5.0891,5.0918,5.1141,5.1487,5.1938,5.1825,5.1826,5.1907,5.1958,5.1958,5.1976,5.2004,5.1683,5.1072,5.109,5.0728,5.013,5.0112,5.0021,4.9872,4.9894,4.9456,4.8656,4.8511,4.8113,4.7479,4.7337,4.7246,4.7246,0.0,0.0,0.0,4.7391,4.7554,4.7699,4.7699,4.7699,4.7699,4.7699,0.0,4.7699,4.7551,4.7171,4.646,4.599,0.0,0.0,0.0,0.0,0.0,0.0,0.0,0.0,0.0,0.0,0.0,4.1601,4.0991,3.9949,4.0095,4.0492,4.1138,4.1359,4.1741,4.2375,4.2429,4.2448,4.2448,4.2429,4.2502,4.2665,4.2665,4.2737,4.2883,4.2919,4.3032,4.3318,4.3196,4.3286,4.377,4.3493,4.3248,4.3358,4.3082,4.2996,4.3196,4.3214,4.3251,4.334,4.3376,4.3411,4.3463,4.3479,4.3479,4.3479,4.3479,4.3479,4.3479,4.3479,4.3479,4.3479,4.3479,4.3479,4.3479,4.3479,4.3444,4.3286,4.305,4.2846,5.0891,0.0,5.0891,5.0891,0.0,5.1052,5.1088,5.1088,5.1228,5.1589,5.2084,5.2246,5.2364,5.2498,5.2498,5.2498,5.2498,5.2498,5.2281,5.19,5.1882,5.1665,5.1267,5.1267,5.1067,5.0687,5.0709,5.0271,4.9528,4.951,4.9275,4.8876,4.8496,4.8275,4.8275,4.7877,4.7699,4.7699,4.7699,4.7699,4.7699,4.7699,4.7699,4.7699,4.7699,0.0,0.0,0.0,0.0,0.0,0.0,0.0,0.0,0.0,0.0,4.2767,4.2273,4.2199,4.2595,4.2631,4.3012,4.3868,4.394,4.3435,4.2261,4.259,4.3007,4.3292,4.344,4.348,4.348,4.3499,4.3336,4.2955,4.3032,4.3105,4.3105,4.3214,4.3303,4.3303,4.3336,4.3473,4.3689,4.3656,4.3754,4.4106,4.3943,4.3804,4.3927,4.356,4.3214,4.3287,4.3233,4.3251,4.3376,4.3394,4.3411,4.3446,4.348,4.3479,4.3479,4.3479,4.3479,4.3479,4.3479,4.3479,4.3479,4.3479,4.3479,4.3479,4.3479,4.3479,4.3479,4.3339,4.3196,5.0891,5.0891,5.0945,5.0954,5.0981,5.1228,5.1402,5.1454,0.0,0.0,0.0,5.2405,5.2498,5.2498,5.2498,5.2498,5.2498,5.2498,5.2498,5.2498,5.2498,5.2498,5.2498,5.2498,5.2154,5.152,5.1502,5.1108,5.0347,5.0329,5.0238,5.0057,4.942,4.9112,4.9075,4.846,4.8061,4.7935,4.7769,4.7699,4.7699,4.7699,4.7699,4.7699,4.7699,4.7699,4.7699,4.7699,4.7699,4.7681,4.7083,4.6721,4.6685,4.5961,4.52,4.4584,4.4385,4.4367,4.4512,4.453,4.4876,4.5733,4.5847,4.5429,4.4405,4.491,4.5291,4.5291,4.5368,4.5118,4.4464,4.4449,4.4141,4.336,4.3469,4.3538,4.3409,4.3562,4.3679,4.3726,4.3804,4.3943,4.4031,4.4073,4.4219,4.4397,4.4374,4.4332,4.4299,4.3804,4.3427,4.3516,4.3462,4.341,4.348,4.3582,4.3565,4.3649,4.3664,4.3631,4.3599,4.3582,4.3565,4.3496,4.3531,4.3565,4.3532,4.3583,4.3566,4.3515,4.3479,4.3479,4.3479,4.3515,4.3496,5.0908,5.09,5.1141,5.1246,5.1272,5.1513,5.1765,5.2005,5.2005,5.2132,5.2452,5.2475,5.2498,5.2498,5.2498,5.2498,5.2498,5.2498,5.2498,5.2498,5.2498,5.2498,5.2498,5.2498,5.2444,5.2335,5.2335,5.1919,5.1194,5.114,5.08,5.0162,5.0003,4.9949,4.9908,4.9818,4.942,4.8728,4.8061,4.7699,4.7699,4.7699,4.7699,4.7699,4.7699,4.7699,4.7699,4.7699,4.7699,4.7699,4.7588,4.7554,4.7518,4.6776,4.6269,4.6142,4.5508,4.5436,4.6087,4.616,4.6608,4.7597,4.7977,4.7314,4.535,4.5236,4.5291,4.5309,4.5638,4.568,4.5571,4.5754,4.5529,4.481,4.4732,4.4491,4.383,4.3769,4.383,4.3955,4.3881,4.4106,4.446,4.4411,4.4538,4.4917,4.472,4.4411,4.4416,4.4102,4.3908,4.391,4.3892,4.3876,4.3908,4.4117,4.4173,4.4275,4.4213,4.4129,4.3936,4.3923,4.3828,4.3565,4.3765,4.3814,4.3615,4.3749,4.3779,4.3614,4.3582,4.3548,4.3548,4.3565,4.36,5.1705,5.1705,5.1562,5.1531,5.1538,5.179,5.206,5.2317,5.2317,5.2382,5.2498,5.2498,5.2498,5.2498,5.2498,5.2498,5.2498,5.2498,5.2498,5.2498,5.2498,5.2498,5.2498,5.2498,5.2498,5.2498,5.2498,5.2317,5.1973,5.1937,5.1756,5.1375,5.0977,5.0546,5.013,5.0112,4.9908,4.9546,4.8746,4.8131,4.7717,4.7699,4.7699,4.7699,4.7699,4.7699,4.7699,4.7699,4.7699,4.7699,4.7699,4.7699,4.7699,4.7334,4.7156,4.7138,4.6812,4.6776,4.7138,4.7156,4.7427,4.8038,4.825,4.7995,4.7166,4.7092,4.7092,4.7092,4.7261,4.7132,4.6727,4.6779,4.6535,4.5722,4.5766,4.57,4.5324,4.5028,4.4919,4.4936,4.4734,4.4662,4.4893,4.4881,4.4917,4.5235,4.5,4.4875,4.4862,4.4636,4.4393,4.425,4.4206,4.4221,4.4221,4.4303,4.4402,4.4416,4.4416,4.436,4.4236,4.4221,4.4147,4.4042,4.4114,4.4147,4.3977,4.4102,4.4117,4.4053,4.3996,4.3965,4.3857,4.3765,4.3701,5.296,5.2855,5.2387,5.2057,5.1907,5.2084,5.2335,5.2498,5.2498,5.2498,5.2498,5.2498,5.2498,5.2498,5.2498,5.2498,5.2498,5.2498,5.2498,5.2498,5.2498,5.2498,5.2498,5.2498,5.2498,5.2498,5.2498,5.2498,5.2498,5.2498,5.2498,5.2426,5.1864,5.1271,5.0651,5.0655,5.0542,5.0347,4.9764,4.9075,4.8279,4.8242,4.817,4.7989,4.7968,4.7877,4.7735,4.7699,4.7699,4.7699,4.7699,4.7699,4.7699,4.7744,4.7744,4.772,4.7845,4.7927,4.7927,4.7951,4.8092,4.827,4.8365,4.855,4.8767,4.8784,4.8731,4.8623,4.8568,4.8381,4.788,4.7839,4.7558,4.6778,4.6831,4.6831,4.6691,4.6379,4.6197,4.6174,4.5885,4.5654,4.5483,4.5491,4.5496,4.5324,4.5277,4.5277,4.5256,4.5076,4.4831,4.465,4.4533,4.4493,4.4493,4.4572,4.463,4.4604,4.463,4.4604,4.4533,4.4493,4.4438,4.4397,4.4438,4.4425,4.443,4.4471,4.4457,4.4369,4.4332,4.4303,4.4117,4.4002,4.3897,5.4658,5.4345,5.3849,5.3142,5.2488,5.2493,5.2516,5.2521,5.2498,5.2498,5.2498,5.2498,5.2498,5.2498,5.2498,5.2498,5.2498,5.2498,5.2498,5.2498,5.2498,5.2498,5.2498,5.2498,5.2498,5.2498,5.2498,5.2498,5.2498,5.2498,5.2498,5.2498,5.2408,5.2299,5.2245,5.2226,5.1919,5.1194,5.1126,5.0669,4.9927,4.9876,4.9528,4.88,4.8782,4.8438,4.7844,4.7699,4.7717,4.7699,4.7717,4.7699,4.772,4.7913,4.7953,4.7741,4.8209,4.8514,4.8514,4.8767,4.8854,4.894,4.9146,4.9329,4.9377,4.9412,4.9162,4.8803,4.8837,4.8902,4.8881,4.9046,4.8837,4.8072,4.7987,4.777,4.7203,4.7048,4.7124,4.7238,4.7219,4.7121,4.6495,4.6394,4.6099,4.5517,4.5449,4.5373,4.5277,4.5246,4.5194,4.514,4.4976,4.4795,4.4795,4.5023,4.5098,4.5162,4.5184,4.5065,4.4856,4.4751,4.4701,4.4612,4.4637,4.4688,4.4585,4.4572,4.4676,4.4578,4.4498,4.4388,4.4231,4.4236,4.4196,5.5981,5.5793,5.5269,5.4564,5.3839,5.3803,5.3398,5.282,5.2779,5.2686,5.2521,5.2498,5.2498,5.2498,5.2498,5.2498,5.2498,5.2498,5.2498,5.2498,5.2498,5.2498,5.2498,5.2498,5.2498,5.2498,5.2498,5.2498,5.2498,5.2498,5.2498,5.2498,5.2498,5.2498,5.2498,5.2498,5.2317,5.2009,5.2009,5.1828,5.1448,5.0583,4.9945,4.9655,4.9619,4.9474,4.9133,4.8829,4.8644,4.8626,4.8207,4.7933,4.7933,4.8035,4.8055,4.7953,4.8345,4.8587,4.8624,4.8695,4.8837,4.8993,4.9129,4.9297,4.9474,4.9509,4.9377,4.9197,4.923,4.9295,4.9313,4.9427,4.9358,4.9039,4.8964,4.8826,4.8629,4.8263,4.8077,4.8163,4.7917,4.7648,4.7368,4.7272,4.692,4.6233,4.6003,4.5889,4.543,4.5277,4.5277,4.5286,4.5173,4.5109,4.5098,4.5184,4.5277,4.5277,4.5277,4.5194,4.5132,4.5098,4.5034,4.4929,4.5,4.5034,4.4988,4.4988,4.5053,4.4905,4.4826,4.4777,4.4745,4.4643,4.4552,5.7337,5.7183,5.6528,5.5775,5.5034,5.5034,5.4428,5.3537,5.346,5.32,5.2761,5.2739,5.2757,5.2735,5.2572,5.2498,5.2498,5.2498,5.2498,5.2498,5.2498,5.2498,5.2498,5.2498,5.2498,5.2498,5.2498,5.2549,5.264,5.2735,5.2757,5.2739,5.2739,5.2739,5.2739,5.2739,5.2739,5.2739,5.2739,5.2712,5.2481,5.1548,5.0817,5.0478,5.0438,5.0373,5.0246,4.9875,4.9691,4.9754,4.9204,4.8782,4.858,4.862,4.8623,4.8495,4.8623,4.8749,4.8838,4.8838,4.8925,4.9113,4.9127,4.9246,4.9443,4.9509,4.9509,4.9474,4.9509,4.949,4.9509,4.9509,4.9509,4.9509,4.9521,4.9593,4.9602,4.921,4.9048,4.9087,4.8853,4.838,4.817,4.7933,4.7474,4.6978,4.6863,4.671,4.608,4.5851,4.566,4.5602,4.5468,4.5277,4.5277,4.5277,4.5277,4.5277,4.5277,4.5277,4.5277,4.5277,4.5277,4.5109,4.5246,4.5267,4.5184,4.5246,4.5307,4.5307,4.5256,4.5132,4.5023,4.4969,4.4927,5.9007,5.8541,5.7508,5.661,5.587,5.5891,5.5406,5.4624,5.4605,5.416,5.3455,5.3381,5.3365,5.3285,5.2783,5.2521,5.2521,5.2521,5.2521,5.248,5.2498,5.2498,5.2498,5.2498,5.2498,5.2498,5.2526,5.2686,5.2959,5.3219,5.3367,5.3346,5.3324,5.3326,5.3324,5.3285,5.3346,5.3285,5.3285,5.3219,5.3027,5.309,5.2504,5.1419,5.1253,5.1108,5.0728,5.0588,5.0677,5.0914,5.0822,5.0471,4.9843,4.9933,4.9825,4.9479,4.9164,4.9129,4.9377,4.9412,4.9427,4.9459,4.9443,4.9474,4.949,4.9509,4.9509,4.9509,4.9509,4.9509,4.9524,4.9505,4.9505,4.9521,4.9608,4.9678,4.9707,4.9863,5.0012,5.0006,4.9933,4.9641,4.9098,4.8315,4.7998,4.7788,4.775,4.7635,4.7406,4.6882,4.6538,4.6328,4.5946,4.5335,4.5335,4.5297,4.5297,4.5277,4.5277,4.5277,4.5277,4.5277,4.5277,4.5277,4.5277,4.5277,4.5277,4.5298,4.5319,4.536,4.541,4.5351,4.522,4.5191,4.518,5.9234,5.9083,5.8687,5.8031,5.734,5.7303,5.674,5.582,5.5801,5.5198,5.4351,5.424,5.3924,5.3368,5.318,5.2984,5.2842,5.2824,5.269,5.2521,5.2498,5.2498,5.2498,5.2498,5.2498,5.2526,5.2712,5.298,5.3222,5.3367,5.3407,5.3407,5.3407,5.3407,5.3407,5.3407,5.3407,5.3407,5.3407,5.3346,5.3263,5.3346,5.3138,5.2692,5.2635,5.2569,5.2397,5.2098,5.1992,5.2067,5.162,5.1193,5.0896,5.0427,5.0243,5.0228,4.9674,4.9377,4.9474,4.9509,4.9509,4.9509,4.9509,4.9509,4.9509,4.9509,4.9509,4.9509,4.9509,4.9536,4.9612,4.9551,4.9555,4.9623,4.9682,4.9778,4.9925,5.0044,5.0133,5.0207,5.0259,5.0149,4.9882,4.9576,4.9213,4.8754,4.8621,4.8411,4.7922,4.7513,4.733,4.7311,4.7111,4.6901,4.692,4.587,4.5316,4.5297,4.5277,4.5277,4.5277,4.5277,4.5277,4.5277,4.5277,4.5317,4.5328,4.536,4.538,4.539,4.5467,4.5457,4.539,4.5381,4.541,5.929,5.929,5.929,5.9009,5.852,5.8483,5.7885,5.7005,5.693,5.6367,5.5523,5.5391,5.4927,5.4202,5.4109,5.3786,5.3318,5.3175,5.3005,5.2806,5.2708,5.2712,5.2761,5.2731,5.2712,5.285,5.3133,5.3365,5.3546,5.3681,5.3719,5.3738,5.3701,5.3701,5.3719,5.3719,5.3719,5.3719,5.3719,5.3682,5.3603,5.3662,5.3662,5.3585,5.3662,5.3681,5.3565,5.3237,5.3161,5.3158,5.2727,5.2298,5.2035,5.1214,5.0719,5.0657,5.0203,4.9753,4.9546,4.9509,4.9509,4.9509,4.9509,4.9509,4.9509,4.9509,4.9509,4.949,4.9551,4.9608,4.9648,4.9648,4.9682,4.9764,4.9807,4.9898,5.0089,5.0133,5.0207,5.0267,5.029,5.0302,5.0302,5.0283,4.9996,4.9538,4.95,4.9194,4.8743,4.8372,4.822,4.82,4.7914,4.7685,4.757,4.6825,4.6099,4.5984,4.5526,4.5449,4.5392,4.5354,4.5316,4.5297,4.5317,4.5338,4.5369,4.5409,4.5419,4.5448,4.5495,4.5522,4.5513,4.5559,4.555,5.929,5.929,5.929,5.9271,5.9196,5.9178,5.8802,5.8146,5.8071,5.7584,5.6835,5.6833,5.6329,5.5689,5.5505,5.4985,5.4093,5.3714,5.3499,5.3285,5.3091,5.3115,5.3285,5.3072,5.3133,5.3367,5.3719,5.387,5.3907,5.4163,5.4304,5.4356,5.4321,5.4287,5.4356,5.4304,5.4339,5.4321,5.4304,5.4179,5.3981,5.418,5.418,5.3963,5.418,5.4198,5.3926,5.387,5.396,5.4264,5.426,5.3977,5.3172,5.2348,5.1593,5.1029,5.0748,5.0316,4.9678,4.9602,4.9621,4.9509,4.9509,4.9509,4.9509,4.9509,4.9505,4.9536,4.9608,4.9726,4.975,4.9816,4.9898,4.9912,4.9992,5.007,5.0133,5.0219,5.029,5.0302,5.0302,5.0302,5.0302,5.0302,5.0206,5.0168,5.0149,5.0111,4.9882,4.9423,4.9137,4.8965,4.8716,4.8457,4.8132,4.778,4.7264,4.6768,4.6137,4.5755,4.5679,4.5621,4.5468,4.543,4.5329,4.535,4.538,4.5419,4.5467,4.5495,4.554,4.5558,4.5586,4.5605,4.5586,5.929,5.929,5.929,5.929,5.929,5.929,5.914,5.8933,5.8933,5.8464,5.7826,5.7732,5.7281,5.6643,5.6474,5.5971,5.5113,5.493,5.4372,5.3539,5.3324,5.3306,5.3387,5.3324,5.3427,5.3719,5.3851,5.4017,5.4233,5.4356,5.4409,5.4409,5.4409,5.4409,5.4409,5.4409,5.4409,5.4409,5.4409,5.4339,5.4251,5.4339,5.4339,5.4268,5.4375,5.432,5.4251,5.4233,5.4304,5.4409,5.4409,5.4277,5.3921,5.3245,5.27,5.2416,5.1818,5.118,5.0485,5.0297,5.0072,4.9659,4.9509,4.9509,4.9509,4.949,4.9551,4.9627,4.9697,4.9764,4.9939,5.0005,5.0044,5.0044,5.0063,5.0145,5.02,5.0267,5.029,5.0302,5.0302,5.0302,5.0302,5.0302,5.0302,5.0302,5.0302,5.0302,5.0225,5.0054,4.9939,4.9862,4.9545,4.9297,4.9117,4.885,4.843,4.7857,4.7169,4.6443,4.6233,4.5908,4.5736,4.5489,4.5397,4.537,4.54,4.5448,4.5495,4.5531,4.5577,4.5586,4.5594,4.5594,4.5594,5.929,5.929,5.929,5.929,5.929,5.929,5.929,5.929,5.929,5.9009,5.8614,5.8539,5.8107,5.7469,5.7356,5.6868,5.6118,5.6062,5.5396,5.426,5.3697,5.3662,5.3757,5.3776,5.3851,5.4035,5.409,5.4198,5.4409,5.4409,5.4409,5.4409,5.4409,5.4409,5.4409,5.4409,5.4409,5.4409,5.4409,5.4409,5.4409,5.4409,5.4409,5.4409,5.4409,5.4409,5.4409,5.4409,5.4409,5.4409,5.4409,5.4409,5.4352,5.3883,5.3524,5.3149,5.2698,5.2024,5.1273,5.1142,5.0785,5.0128,4.994,4.979,4.9618,4.9536,4.9623,4.9678,4.9807,4.9912,5.007,5.0158,5.017,5.017,5.0182,5.0219,5.029,5.0302,5.0302,5.0302,5.0302,5.0302,5.0302,5.0302,5.0302,5.0302,5.0302,5.0302,5.0302,5.0283,5.0302,5.0302,5.013,5.0034,5.0168,4.992,4.9576,4.8984,4.8334,4.7589,4.7073,4.6519,4.6156,4.5606,4.536,4.5409,4.5448,4.5476,4.5522,4.5568,4.5594,4.5594,4.5594,4.5594,4.5594,5.929,5.929,5.929,5.929,5.929,5.929,5.929,5.929,5.929,5.9271,5.9234,5.9178,5.884,5.8258,5.8164,5.7713,5.7075,5.6943,5.6475,5.5562,5.4763,5.4334,5.4288,5.4287,5.4304,5.4339,5.4356,5.4392,5.4409,5.4409,5.4409,5.4409,5.4409,5.4409,5.4409,5.4409,5.4409,5.4409,5.4409,5.4409,5.4409,5.4409,5.4409,5.4409,5.4409,5.4409,5.4409,5.4409,5.4409,5.4409,5.4409,5.4409,5.4409,5.439,5.3996,5.3412,5.328,5.2794,5.2193,5.1987,5.1611,5.0879,5.0629,5.0426,4.9855,4.9732,4.9736,4.9778,4.9939,5.0082,5.0133,5.0219,5.0259,5.029,5.0278,5.029,5.029,5.0302,5.0302,5.0302,5.0302,5.0302,5.0302,5.0302,5.0302,5.0302,5.0302,5.0302,5.0302,5.0302,5.0302,5.0302,5.0302,5.0302,5.0283,5.0225,4.9912,4.9773,4.9215,4.8649,4.787,4.7259,4.6581,4.601,4.5601,4.5582,4.5505,4.554,4.5558,4.5586,4.5594,4.5594,4.5594,4.5594,4.5594,5.929,5.929,5.929,5.929,5.929,5.929,5.929,5.929,5.929,5.929,5.929,5.929,5.9178,5.899,5.8952,5.8539,5.7938,5.7788,5.7356,5.6606,5.6308,5.539,5.4598,5.4409,5.4409,5.4409,5.4409,5.4409,5.4409,5.4409,5.4409,5.4409,5.4409,5.4409,5.4409,5.4409,5.4409,5.4409,5.4409,5.4409,5.4409,5.4409,5.4409,5.4409,5.4409,5.4409,5.4409,5.4409,5.4409,5.4409,5.4409,5.4409,5.4409,5.4409,5.4277,5.409,5.4015,5.3731,5.3074,5.2867,5.2454,5.1665,5.1249,5.0768,5.0561,5.01,4.996,4.9978,5.0089,5.0145,5.0231,5.0278,5.0302,5.0302,5.0302,5.0302,5.0302,5.0302,5.0302,5.0302,5.0302,5.0302,5.0302,5.0302,5.0302,5.0302,5.0302,5.0314,5.0306,5.0302,5.0302,5.0302,5.0302,5.0302,5.0302,5.0302,5.0272,5.0327,5.0023,4.9676,4.8877,4.8118,4.7343,4.6626,4.634,4.6252,4.5853,4.5624,4.5627,4.564,4.5676,4.5688,4.561,4.5594,4.5603,5.929,5.929,5.929,5.929,5.929,5.929,5.929,5.929,5.929,5.929,5.929,5.929,5.929,5.929,5.929,5.9046,5.8652,5.8614,5.8164,5.7431,5.7018,5.6136,5.5122,5.4653,5.4409,5.4409,5.4409,5.4409,5.4409,5.4409,5.4409,5.4409,5.4409,5.4409,5.4409,5.4409,5.4409,5.4409,5.4409,5.4409,5.4409,5.4409,5.4409,5.4409,5.4409,5.4409,5.4409,5.4409,5.4409,5.4409,5.4409,5.4409,5.4409,5.4409,5.4409,5.4409,5.4409,5.4198,5.3908,5.379,5.3427,5.2755,5.2186,5.1876,5.1504,5.0916,5.0576,5.0666,5.0386,5.0238,5.0278,5.0302,5.0302,5.0302,5.0302,5.0302,5.0302,5.0302,5.0302,5.0302,5.0302,5.0302,5.0302,5.0302,5.0302,5.0302,5.0302,5.0329,5.0385,5.0329,5.0329,5.0355,5.0352,5.034,5.0377,5.0399,5.0476,5.0538,5.0557,5.0269,4.9673,4.8884,4.8241,4.7568,4.7191,4.6771,4.6368,4.5979,4.5769,4.579,4.5796,4.5759,4.5704,4.564,4.5651,5.929,5.929,5.929,5.929,5.929,5.929,5.929,5.929,5.929,5.929,5.929,5.929,5.929,5.929,5.929,5.9271,5.9253,5.9159,5.8821,5.8164,5.7507,5.6681,5.6025,5.5047,5.4615,5.4446,5.4409,5.4409,5.4409,5.4409,5.4409,5.4409,5.4409,5.4409,5.4409,5.4409,5.4409,5.4409,5.4409,5.4409,5.4409,5.4409,5.4409,5.4409,5.4409,5.4409,5.4409,5.4409,5.4409,5.4409,5.4409,5.4409,5.4409,5.4409,5.4409,5.4409,5.4426,5.442,5.4528,5.443,5.434,5.3762,5.3594,5.3338,5.2589,5.1939,5.1535,5.1548,5.093,5.0756,5.0531,5.0436,5.0302,5.0302,5.0302,5.0302,5.0302,5.0302,5.0302,5.0302,5.0302,5.0302,5.0302,5.0302,5.0294,5.0385,5.0385,5.0421,5.0453,5.0432,5.0445,5.0498,5.0466,5.0388,5.0445,5.0527,5.0625,5.0713,5.0786,5.0619,5.0226,4.9586,4.908,4.8587,4.8284,4.7678,4.7003,4.6604,4.623,4.5903,4.5889,4.5854,4.5808,4.5747,4.5725,5.929,5.929,5.929,5.929,5.929,5.929,5.929,5.929,5.929,5.929,5.929,5.929,5.929,5.929,5.929,5.929,5.929,5.929,5.9178,5.899,5.822,5.7826,5.7207,5.6081,5.5066,5.4634,5.4428,5.4409,5.4409,5.4409,5.4409,5.4409,5.4409,5.4409,5.4409,5.4409,5.4409,5.4409,5.4409,5.4409,5.4409,5.4409,5.4409,5.4409,5.4409,5.4409,5.4409,5.4409,5.4409,5.4409,5.4426,5.446,5.4426,5.4426,5.4426,5.4424,5.4443,5.4491,5.4581,5.4626,5.462,5.4556,5.4178,5.3764,5.3607,5.2908,5.2545,5.2462,5.2334,5.1868,5.1372,5.0684,5.0493,5.0455,5.0409,5.0352,5.0302,5.0302,5.0302,5.0302,5.0302,5.0302,5.0302,5.0314,5.0352,5.0432,5.0486,5.0537,5.0547,5.0537,5.0596,5.0643,5.0567,5.0498,5.0625,5.0724,5.0801,5.0903,5.0966,5.0985,5.0583,5.0428,4.9981,4.9651,4.9388,4.8693,4.7923,4.7231,4.6847,4.6424,4.6022,4.5954,4.5917,4.5846,4.5821,5.929,5.929,5.929,5.929,5.929,5.929,5.929,5.929,5.929,5.929,5.929,5.929,5.929,5.929,5.929,5.929,5.929,5.929,5.929,5.9196,5.8802,5.8483,5.8033,5.7188,5.6194,5.5122,5.4559,5.4428,5.4409,5.4409,5.4409,5.4409,5.4409,5.4409,5.4409,5.4409,5.4409,5.4409,5.4409,5.4409,5.4409,5.4409,5.4409,5.4409,5.4409,5.4409,5.4409,5.4472,5.4489,5.4522,5.4571,5.4557,5.4441,5.4455,5.4505,5.4505,5.4587,5.4698,5.4799,5.4844,5.4922,5.509,5.4787,5.4661,5.4421,5.3875,5.3461,5.332,5.3034,5.2556,5.2193,5.1868,5.1391,5.0982,5.0975,5.0848,5.0492,5.034,5.0302,5.0302,5.0302,5.0302,5.0302,5.0352,5.0429,5.0516,5.0596,5.0653,5.0735,5.0754,5.0763,5.0752,5.0662,5.0671,5.0811,5.0908,5.1011,5.1089,5.1152,5.1146,5.0973,5.095,5.0938,5.0538,5.0095,4.9696,4.8954,4.8233,4.7518,4.7041,4.6651,4.6275,4.6,4.5944,4.5944,5.929,5.929,5.929,5.929,5.929,5.929,5.929,5.929,5.929,5.929,5.929,5.929,5.929,5.929,5.929,5.929,5.929,5.929,5.929,5.9253,5.9215,5.8877,5.8408,5.792,5.7263,5.595,5.5086,5.469,5.4465,5.4409,5.4409,5.4409,5.4409,5.4409,5.4409,5.4409,5.4409,5.4409,5.4409,5.4409,5.4426,5.4424,5.4474,5.4524,5.4543,5.4543,5.4557,5.4603,5.4645,5.4645,5.4807,5.4733,5.4606,5.4552,5.4645,5.4645,5.4776,5.4897,5.5009,5.508,5.5154,5.5358,5.5352,5.5352,5.5142,5.474,5.439,5.4027,5.3683,5.3091,5.2996,5.2652,5.2346,5.2,5.1897,5.1572,5.0917,5.058,5.0593,5.034,5.0363,5.0374,5.0399,5.0445,5.0526,5.0587,5.068,5.0784,5.0887,5.0929,5.0914,5.0917,5.0832,5.0882,5.1024,5.1092,5.1201,5.1228,5.1304,5.1281,5.1241,5.1222,5.1175,5.1043,5.0638,5.0251,4.9784,4.9069,4.8391,4.7773,4.7179,4.6702,4.6355,4.608,4.6057,5.929,5.929,5.929,5.929,5.929,5.929,5.929,5.929,5.929,5.929,5.929,5.929,5.929,5.929,5.929,5.929,5.929,5.929,5.929,5.929,5.929,5.9102,5.8952,5.8446,5.7938,5.7357,5.625,5.5218,5.4597,5.4409,5.4409,5.4409,5.4409,5.4409,5.4409,5.4409,5.4426,5.4424,5.4426,5.4409,5.4474,5.4538,5.4632,5.473,5.4764,5.4764,5.4795,5.4826,5.4856,5.4871,5.4867,5.4852,5.4841,5.4856,5.4852,5.4852,5.4897,5.5,5.5094,5.5121,5.5214,5.5345,5.539,5.539,5.5345,5.525,5.504,5.4868,5.439,5.3874,5.3855,5.3441,5.2874,5.2674,5.2735,5.2555,5.1863,5.1554,5.1322,5.0987,5.0755,5.0485,5.0517,5.0596,5.0709,5.078,5.0871,5.0947,5.1049,5.1062,5.1041,5.103,5.1024,5.1109,5.123,5.1269,5.133,5.1317,5.1355,5.1347,5.1344,5.1357,5.1299,5.1177,5.1079,5.0828,5.0315,4.9772,4.9089,4.8365,4.7734,4.7086,4.6716,4.6401,4.6203,5.929,5.929,5.929,5.929,5.929,5.929,5.929,5.929,5.929,5.929,5.929,5.929,5.929,5.929,5.929,5.929,5.929,5.929,5.929,5.929,5.929,5.929,5.929,5.884,5.8464,5.8014,5.717,5.6137,5.5066,5.4597,5.4465,5.4409,5.4409,5.4409,5.4409,5.4409,5.4458,5.4472,5.4458,5.4491,5.4638,5.4711,5.4807,5.4852,5.4901,5.4901,5.4916,5.4971,5.5,5.5014,5.5109,5.5151,5.5151,5.5137,5.509,5.5028,5.509,5.5165,5.5246,5.526,5.5319,5.5377,5.539,5.539,5.539,5.5371,5.539,5.5275,5.5193,5.4772,5.4772,5.4362,5.4077,5.3724,5.379,5.3532,5.2962,5.2731,5.2336,5.1798,5.1174,5.0827,5.0634,5.0743,5.089,5.0978,5.1055,5.1128,5.1196,5.1165,5.1114,5.1138,5.1139,5.1205,5.1308,5.1359,5.1386,5.1394,5.1399,5.139,5.1394,5.1392,5.1388,5.1316,5.123,5.116,5.0867,5.0338,4.9636,4.8933,4.8228,4.7582,4.7096,4.6727,4.6515,5.929,5.929,5.929,5.929,5.929,5.929,5.929,5.929,5.929,5.929,5.929,5.929,5.929,5.929,5.929,5.929,5.929,5.929,5.929,5.929,5.929,5.929,5.929,5.9234,5.8952,5.8502,5.7995,5.7226,5.5668,5.5028,5.4634,5.4446,5.4409,5.4424,5.4441,5.4455,5.4519,5.4568,5.4552,5.467,5.4852,5.4916,5.4946,5.499,5.499,5.5023,5.5066,5.5118,5.5154,5.52,5.5273,5.5377,5.539,5.539,5.5332,5.5227,5.5332,5.539,5.539,5.539,5.5377,5.539,5.539,5.539,5.539,5.539,5.539,5.539,5.5365,5.5345,5.5319,5.5466,5.5212,5.4907,5.4794,5.4734,5.406,5.3673,5.3526,5.2824,5.1816,5.1402,5.1365,5.0894,5.1029,5.1062,5.1128,5.114,5.1202,5.1211,5.1192,5.1234,5.1254,5.1285,5.134,5.1361,5.1399,5.1386,5.1388,5.1392,5.1394,5.1394,5.1388,5.1367,5.1369,5.1258,5.1082,5.0887,5.028,4.9577,4.8757,4.8035,4.7469,4.7061,4.6788,5.929,5.929,5.929,5.929,5.929,5.929,5.929,5.929,5.929,5.929,5.929,5.929,5.929,5.929,5.929,5.929,5.929,5.929,5.929,5.929,5.929,5.929,5.929,5.929,5.9234,5.8915,5.8427,5.7151,5.6081,5.5593,5.5066,5.4634,5.4482,5.4439,5.4552,5.4533,5.468,5.4822,5.4837,5.4912,5.5028,5.499,5.5076,5.5219,5.5305,5.5292,5.5279,5.53,5.5332,5.5345,5.5358,5.539,5.539,5.539,5.539,5.5377,5.539,5.539,5.539,5.539,5.539,5.5403,5.5416,5.5403,5.5409,5.5409,5.5428,5.539,5.5403,5.5465,5.5558,5.5596,5.5568,5.5615,5.5597,5.537,5.4855,5.4706,5.4546,5.4146,5.322,5.267,5.2372,5.1703,5.1165,5.1171,5.119,5.1235,5.1214,5.1217,5.1259,5.13,5.132,5.1336,5.1361,5.1379,5.1386,5.1394,5.1394,5.1394,5.1394,5.1394,5.1394,5.1392,5.1394,5.1394,5.1258,5.1063,5.0809,5.0299,4.9577,4.8679,4.7762,4.7411,4.7081,5.929,5.929,5.929,5.929,5.929,5.929,5.929,5.929,5.929,5.929,5.929,5.929,5.929,5.929,5.929,5.929,5.929,5.929,5.929,5.929,5.929,5.929,5.929,5.929,5.929,5.9196,5.8915,5.8333,5.7094,5.6043,5.5349,5.5085,5.467,5.4455,5.4613,5.4613,5.4769,5.4937,5.5104,5.5146,5.5127,5.5159,5.5252,5.539,5.539,5.539,5.539,5.539,5.539,5.539,5.539,5.539,5.539,5.539,5.539,5.539,5.539,5.539,5.539,5.5403,5.5403,5.5422,5.5453,5.5519,5.5538,5.5526,5.5507,5.5519,5.5507,5.5562,5.5707,5.5789,5.5856,5.5954,5.6064,5.5966,5.5705,5.5719,5.5526,5.5113,5.4686,5.4109,5.3584,5.3139,5.2439,5.1915,5.1766,5.1597,5.142,5.1208,5.1287,5.1375,5.1366,5.1378,5.1377,5.139,5.1388,5.1394,5.1394,5.1394,5.1394,5.1394,5.1394,5.1394,5.1394,5.1394,5.1394,5.1297,5.1082,5.077,5.0436,4.946,4.8504,4.7684,4.7276,5.929,5.929,5.929,5.929,5.929,5.929,5.929,5.929,5.929,5.929,5.929,5.929,5.929,5.929,5.929,5.929,5.929,5.929,5.929,5.929,5.929,5.929,5.929,5.929,5.929,5.929,5.9234,5.8858,5.8126,5.7094,5.6194,5.5648,5.5153,5.4799,5.4686,5.4754,5.4922,5.5154,5.5227,5.5227,5.5195,5.5241,5.5332,5.5371,5.539,5.539,5.539,5.539,5.539,5.539,5.539,5.539,5.539,5.539,5.539,5.539,5.539,5.5441,5.5434,5.5434,5.5441,5.5477,5.5551,5.5643,5.5643,5.5621,5.564,5.5632,5.5596,5.5686,5.5817,5.5935,5.6004,5.6087,5.6199,5.6252,5.6291,5.6142,5.6058,5.5793,5.5482,5.5411,5.4951,5.4634,5.3941,5.297,5.2451,5.2069,5.17,5.1366,5.132,5.1422,5.1391,5.1396,5.1384,5.1394,5.1394,5.1394,5.1394,5.1394,5.1394,5.1394,5.1394,5.1394,5.1394,5.1394,5.1394,5.1394,5.1375,5.1102,5.077,5.0143,4.9304,4.8347,4.7391,5.929,5.929,5.929,5.929,5.929,5.929,5.929,5.929,5.929,5.929,5.929,5.929,5.929,5.929,5.929,5.929,5.929,5.929,5.929,5.929,5.929,5.929,5.929,5.929,5.929,5.929,5.929,5.9253,5.9027,5.822,5.6963,5.5798,5.5823,5.5435,5.5136,5.508,5.5151,5.5273,5.5273,5.5273,5.5273,5.5273,5.5241,5.5358,5.539,5.539,5.539,5.539,5.539,5.539,5.539,5.539,5.539,5.5409,5.5422,5.5434,5.5453,5.5526,5.5566,5.5495,5.549,5.5593,5.5688,5.5779,5.5789,5.5675,5.5675,5.575,5.5719,5.5779,5.5919,5.602,5.6109,5.6192,5.6252,5.6278,5.6311,5.6291,5.6227,5.6253,5.6155,5.5942,5.5903,5.5476,5.4815,5.3844,5.2966,5.2564,5.1959,5.1608,5.1479,5.1457,5.1408,5.139,5.139,5.1394,5.1394,5.1394,5.1394,5.1394,5.1394,5.1394,5.1394,5.1394,5.1394,5.1394,5.1394,5.1394,5.1394,5.1394,5.1102,5.0535,4.9616,4.8543,4.7569,5.929,5.929,5.929,5.929,5.929,5.929,5.929,5.929,5.929,5.929,5.929,5.929,5.929,5.929,5.929,5.929,5.929,5.929,5.929,5.929,5.929,5.929,5.929,5.929,5.929,5.929,5.929,5.929,5.9215,5.8877,5.8367,5.7532,5.6939,5.634,5.5972,5.5554,5.5433,5.5383,5.5351,5.5351,5.5345,5.5364,5.5332,5.5371,5.539,5.539,5.539,5.539,5.539,5.539,5.539,5.539,5.5409,5.5465,5.5507,5.5531,5.5581,5.5654,5.5686,5.5629,5.5618,5.5818,5.5891,5.5926,5.5945,5.5855,5.5864,5.5891,5.5864,5.5917,5.6121,5.6192,5.6232,5.6285,5.6311,5.6311,5.6311,5.6311,5.6311,5.6291,5.6291,5.6214,5.6214,5.6214,5.5476,5.4679,5.3827,5.3034,5.2472,5.196,5.1837,5.1581,5.1509,5.1394,5.1394,5.1394,5.1394,5.1394,5.1394,5.1394,5.1394,5.1394,5.1394,5.1394,5.1394,5.1394,5.1394,5.1394,5.1394,5.1394,5.1258,5.0984,4.9928,4.8777,4.792,5.929,5.929,5.929,5.929,5.929,5.929,5.929,5.929,5.929,5.929,5.929,5.929,5.929,5.929,5.929,5.929,5.929,5.929,5.929,5.929,5.929,5.929,5.929,5.929,5.929,5.929,5.929,5.929,5.929,5.929,5.9005,5.8583,5.8193,5.7646,5.6763,5.6393,5.6014,5.5804,5.5747,5.5556,5.5498,5.539,5.539,5.539,5.539,5.539,5.539,5.539,5.539,5.539,5.539,5.539,5.5447,5.5507,5.5593,5.5662,5.5728,5.5827,5.5837,5.5818,5.5789,5.5935,5.6071,5.6087,5.6087,5.6044,5.5985,5.6099,5.6044,5.6067,5.6278,5.6285,5.6278,5.6311,5.6311,5.6311,5.6311,5.6311,5.6311,5.6291,5.6311,5.6311,5.6311,5.6272,5.5747,5.5131,5.461,5.3823,5.3182,5.2685,5.2296,5.1976,5.1629,5.1511,5.1394,5.1394,5.1394,5.1394,5.1394,5.1394,5.1394,5.1394,5.1394,5.1394,5.1394,5.1394,5.1394,5.1394,5.1394,5.1394,5.1258,5.1141,5.0377,4.9284,4.8465,5.929,5.929,5.929,5.929,5.929,5.929,5.929,5.929,5.929,5.929,5.929,5.929,5.929,5.929,5.929,5.929,5.929,5.929,5.929,5.929,5.929,5.929,5.929,5.929,5.929,5.929,5.929,5.929,5.929,5.929,5.9306,5.9482,5.9257,5.8862,5.7701,5.7742,5.7371,5.6702,5.66,5.6205,5.588,5.5785,5.5785,5.5594,5.5613,5.5632,5.5409,5.539,5.539,5.539,5.539,5.5416,5.5447,5.5558,5.564,5.5654,5.5788,5.5901,5.5996,5.5985,5.6001,5.6044,5.6158,5.6239,5.6239,5.6158,5.6094,5.6218,5.6124,5.6117,5.6232,5.6311,5.6311,5.6311,5.6311,5.6311,5.6311,5.6311,5.6311,5.6311,5.6311,5.6311,5.6311,5.6214,5.5845,5.5435,5.5181,5.4639,5.3954,5.3553,5.3181,5.2368,5.196,5.1648,5.1531,5.1414,5.1394,5.1394,5.1394,5.1394,5.1394,5.1394,5.1394,5.1394,5.1394,5.1394,5.1394,5.1394,5.1394,5.1394,5.1394,5.116,5.0475,4.985,4.9089,5.929,5.929,5.929,5.929,5.929,5.929,5.929,5.929,5.929,5.929,5.929,5.929,5.929,5.929,5.929,5.929,5.929,5.929,5.929,5.929,5.929,5.929,5.929,5.929,5.929,5.929,5.929,5.929,5.929,5.929,5.9419,5.9614,5.9774,5.9475,5.8673,5.8274,5.7657,5.7504,5.7447,5.7313,5.7084,5.6969,5.674,5.6224,5.6205,5.6014,5.5632,5.5632,5.5613,5.5594,5.5581,5.553,5.5595,5.572,5.5769,5.5865,5.6024,5.6129,5.6192,5.6199,5.6179,5.6213,5.6246,5.6311,5.6285,5.6246,5.6252,5.6278,5.6232,5.6239,5.6285,5.6311,5.6311,5.6311,5.6311,5.6311,5.6311,5.6311,5.6311,5.6311,5.6311,5.6311,5.6311,5.6311,5.6,5.5915,5.5716,5.5389,5.4788,5.4596,5.4264,5.3093,5.237,5.196,5.1668,5.1531,5.1414,5.1394,5.1394,5.1394,5.1394,5.1394,5.1394,5.1394,5.1394,5.1394,5.1394,5.1394,5.1394,5.1394,5.1394,5.1394,5.1004,5.0455,4.987,5.929,5.929,5.929,5.929,5.929,5.929,5.929,5.929,5.929,5.929,5.929,5.929,5.929,5.929,5.929,5.929,5.929,5.929,5.929,5.929,5.929,5.929,5.929,5.929,5.929,5.929,5.929,5.929,5.929,5.929,5.9419,5.9631,5.9864,5.9752,5.935,5.9035,5.867,5.8498,5.8288,5.8096,5.7886,5.7714,5.7542,5.7199,5.6988,5.6855,5.6434,5.6243,5.6243,5.6167,5.6021,5.5905,5.5999,5.5921,5.5941,5.6012,5.6185,5.6259,5.6285,5.6285,5.6278,5.6285,5.6311,5.6311,5.6311,5.6285,5.6285,5.6311,5.6311,5.6311,5.6311,5.6311,5.6311,5.6311,5.6311,5.6311,5.6311,5.6311,5.6311,5.6311,5.6311,5.6311,5.6311,5.6311,5.6214,5.6257,5.6283,5.5916,5.5567,5.5337,5.5062,5.4051,5.2977,5.245,5.1999,5.1609,5.1511,5.1414,5.1394,5.1394,5.1394,5.1394,5.1394,5.1394,5.1394,5.1394,5.1394,5.1394,5.1394,5.1394,5.1394,5.1394,5.1394,5.1004,5.0475,5.929,5.929,5.929,5.929,5.929,5.929,5.929,5.929,5.929,5.929,5.929,5.929,5.929,5.929,5.929,5.929,5.929,5.929,5.929,5.929,5.929,5.929,5.929,5.929,5.929,5.929,5.929,5.929,5.929,5.929,5.9419,5.9579,5.9801,5.9865,5.9889,5.9908,5.9639,5.9295,5.9147,5.8899,5.8612,5.8307,5.8211,5.8001,5.7867,5.7753,5.7542,5.7485,5.7588,5.7435,5.7066,5.6886,5.6625,5.624,5.6096,5.6078,5.6322,5.6278,5.6311,5.6311,5.6311,5.6311,5.6311,5.6311,5.6311,5.6311,5.6311,5.6311,5.6311,5.6311,5.6311,5.6311,5.6311,5.6311,5.6311,5.6311,5.6311,5.6311,5.6311,5.6311,5.6311,5.6311,5.6311,5.6311,5.6317,5.6303,5.6325,5.6285,5.5948,5.574,5.5443,5.5007,5.3953,5.3016,5.2509,5.2019,5.159,5.1511,5.1414,5.1394,5.1394,5.1394,5.1394,5.1394,5.1394,5.1394,5.1394,5.1394,5.1394,5.1394,5.1394,5.1394,5.1394,5.1394,5.0984,5.929,5.929,5.929,5.929,5.929,5.929,5.929,5.929,5.929,5.929,5.929,5.929,5.929,5.929,5.929,5.929,5.929,5.929,5.929,5.929,5.929,5.929,5.929,5.929,5.929,5.929,5.929,5.929,5.929,5.929,5.9327,5.9419,5.9767,5.9934,6.0114,6.0335,6.0177,6.0062,5.9934,5.9715,5.9581,5.9453,5.9224,5.8899,5.8765,5.8574,5.823,5.8096,5.8112,5.8022,5.7836,5.7774,5.8036,5.7858,5.7713,5.7084,5.6732,5.6311,5.6311,5.6311,5.6311,5.6311,5.6311,5.6311,5.6311,5.6311,5.6311,5.6311,5.6311,5.6311,5.6311,5.6311,5.6311,5.6311,5.6311,5.6311,5.6311,5.6311,5.6311,5.6311,5.6311,5.6311,5.6311,5.6311,5.6298,5.6317,5.6321,5.6322,5.6305,5.6078,5.5879,5.5484,5.4871,5.3914,5.3075,5.2509,5.1999,5.1609,5.1511,5.1414,5.1394,5.1394,5.1394,5.1394,5.1394,5.1394,5.1394,5.1394,5.1394,5.1394,5.1394,5.1394,5.1394,5.1394,5.1394,5.929,5.929,5.929,5.929,5.929,5.929,5.929,5.929,5.929,5.929,5.929,5.929,5.929,5.929,5.929,5.929,5.929,5.929,5.929,5.929,5.929,5.929,5.929,5.929,5.929,5.929,5.929,5.929,5.9327,5.9453,5.9524,5.9559,5.9831,6.0038,6.0227,6.0384,6.0469,6.0437,6.043,6.0433,6.0412,6.0403,6.0007,5.972,5.9587,5.9224,5.8912,5.8817,5.8917,5.8952,5.893,5.8792,5.8949,5.8839,5.8595,5.7936,5.734,5.6997,5.6861,5.6466,5.6369,5.6311,5.6311,5.6311,5.6311,5.6311,5.6311,5.6311,5.6311,5.6311,5.6311,5.6311,5.6311,5.6311,5.6311,5.6311,5.6311,5.6311,5.6311,5.6311,5.6311,5.6311,5.6311,5.6311,5.6317,5.6304,5.6303,5.6314,5.6359,5.6313,5.6212,5.5996,5.5465,5.4793,5.3951,5.3093,5.2489,5.196,5.157,5.1492,5.1433,5.1394,5.1394,5.1394,5.1394,5.1394,5.1394,5.1394,5.1394,5.1394,5.1394,5.1394,5.1394,5.1394,5.1375,5.929,5.929,5.929,5.929,5.929,5.929,5.929,5.929,5.929,5.929,5.929,5.929,5.929,5.929,5.929,5.929,5.929,5.929,5.929,5.929,5.929,5.929,5.929,5.929,5.929,5.929,5.929,5.929,5.9418,5.9609,5.9823,5.9842,6.003,6.0256,6.0482,6.0552,6.0633,6.0645,6.0645,6.0608,6.0453,6.0403,6.0403,6.0346,6.0307,6.025,6.0297,6.0376,6.05,6.0296,6.0092,5.9763,5.9732,5.9366,5.9048,5.8674,5.8117,5.7806,5.7483,5.7049,5.666,5.6511,5.633,5.6311,5.6311,5.6311,5.6311,5.6311,5.6311,5.6311,5.6311,5.6311,5.6311,5.6311,5.6311,5.6311,5.6311,5.6311,5.6311,5.6311,5.6311,5.6311,5.6311,5.6311,5.6311,5.6317,5.6304,5.6315,5.6342,5.6396,5.6375,5.6319,5.5993,5.5423,5.4726,5.3867,5.3034,5.245,5.1902,5.1511,5.1414,5.1394,5.1394,5.1394,5.1394,5.1394,5.1394,5.1394,5.1394,5.1394,5.1394,5.1394,5.1394,5.1394,5.1394,5.929,5.929,5.929,5.929,5.929,5.929,5.929,5.929,5.929,5.929,5.929,5.929,5.929,5.929,5.929,5.929,5.929,5.929,5.929,5.929,5.929,5.929,5.9309,5.9345,5.9327,5.929,5.929,5.9381,5.9505,5.9804,6.0019,5.9903,6.016,6.0476,6.0681,6.075,6.0828,6.0828,6.0873,6.0731,6.0487,6.0417,6.0403,6.0403,6.0417,6.0487,6.0507,6.0559,6.0731,6.0818,6.0809,6.0851,6.1,6.0221,5.9865,5.9632,5.9011,5.8642,5.8292,5.7806,5.7366,5.7036,5.6835,5.6466,5.6311,5.6311,5.6311,5.6311,5.6311,5.6311,5.6311,5.6311,5.6311,5.6311,5.6311,5.6311,5.6311,5.6311,5.6311,5.6311,5.6311,5.6311,5.6311,5.6311,5.6311,5.6311,5.6317,5.631,5.6309,5.6347,5.6373,5.6351,5.6436,5.5948,5.5313,5.4587,5.3735,5.2802,5.2136,5.1765,5.1433,5.1394,5.1394,5.1394,5.1394,5.1394,5.1394,5.1394,5.1394,5.1394,5.1394,5.1394,5.1394,5.1394,5.1394,5.929,5.929,5.929,5.929,5.929,5.929,5.929,5.929,5.929,5.929,5.929,5.929,5.929,5.929,5.929,5.9309,5.9309,5.929,5.929,5.929,5.9345,5.929,5.9327,5.9472,5.9542,5.9523,5.9656,5.9753,5.9753,6.0122,6.0351,6.0241,6.0502,6.0673,6.0839,6.0993,6.0993,6.1003,6.1086,6.0904,6.061,6.0546,6.0494,6.05,6.052,6.059,6.0681,6.0731,6.0883,6.1077,6.1109,6.1205,6.1243,6.0907,6.0701,6.0448,5.9963,5.938,5.9147,5.87,5.8182,5.7884,5.7366,5.7017,5.6861,5.6822,5.633,5.6311,5.6311,5.6311,5.6311,5.6311,5.6311,5.6311,5.6311,5.6311,5.6311,5.6311,5.6311,5.6311,5.6311,5.6311,5.6311,5.6311,5.6311,5.6311,5.6311,5.6311,5.631,5.6303,5.6331,5.6354,5.6414,5.6432,5.5984,5.5223,5.4381,5.3444,5.2485,5.1941,5.159,5.1453,5.1394,5.1394,5.1394,5.1394,5.1394,5.1394,5.1394,5.1394,5.1394,5.1394,5.1394,5.1394,5.1394,5.929,5.929,5.929,5.929,5.929,5.929,5.929,5.929,5.929,5.929,5.929,5.929,5.929,5.929,5.929,5.9327,5.9382,5.9435,5.9399,5.9488,5.9469,5.9573,5.9658,5.9725,5.9788,5.9927,6.0089,6.0118,6.0118,6.0489,6.0719,6.0727,6.0795,6.0902,6.1089,6.1088,6.0993,6.1104,6.1139,6.1077,6.0894,6.0731,6.0681,6.0657,6.0669,6.075,6.086,6.0943,6.1012,6.1141,6.1295,6.1344,6.1386,6.1276,6.1296,6.1031,6.0662,6.0312,6.0079,5.9496,5.9147,5.8758,5.8104,5.7619,5.7425,5.6997,5.6505,5.6311,5.6311,5.6311,5.6311,5.6311,5.6311,5.6311,5.6311,5.6311,5.6311,5.6311,5.6311,5.6311,5.6311,5.6311,5.6311,5.6311,5.6311,5.6311,5.6311,5.6311,5.6317,5.6304,5.6309,5.6336,5.6369,5.6355,5.6324,5.5688,5.4769,5.4116,5.3196,5.2384,5.1726,5.1511,5.1394,5.1394,5.1394,5.1394,5.1394,5.1394,5.1394,5.1394,5.1394,5.1394,5.1394,5.1394,5.1394,5.929,5.929,5.929,5.929,5.929,5.929,5.929,5.929,5.929,5.929,5.929,5.929,5.929,5.929,5.929,5.9382,5.9542,5.9592,5.9833,5.9996,5.9865,5.9939,6.003,6.003,6.0103,6.0259,6.0425,6.0425,6.0444,6.0787,6.0911,6.0719,6.0962,6.108,6.1164,6.1154,6.1169,6.1236,6.126,6.1228,6.1077,6.0944,6.086,6.0839,6.0839,6.0953,6.1021,6.1058,6.1175,6.1295,6.1378,6.1393,6.1393,6.1393,6.1393,6.1373,6.105,6.1031,6.0681,6.0234,5.9924,5.971,5.894,5.7891,5.7541,5.6971,5.6583,5.633,5.6311,5.6311,5.6311,5.6311,5.6311,5.6311,5.6311,5.6311,5.6311,5.6311,5.6311,5.6311,5.6311,5.6311,5.6311,5.6311,5.6311,5.6311,5.6311,5.6311,5.6311,5.6311,5.6311,5.6315,5.6328,5.6314,5.63,5.5814,5.506,5.4492,5.3749,5.2667,5.1896,5.1511,5.1394,5.1394,5.1394,5.1394,5.1394,5.1394,5.1394,5.1394,5.1394,5.1394,5.1394,5.1394,5.1394]}]]